[000:071] [2025-02-02 10:03:38 +0000.
186800][30e9] Log to
file:/storage/emulated/0/voip-data/[Link]/[Link] start time:2025-02-
02 10:03:38 +0000
[000:071] [2025-02-02 10:03:38 +0000.186893][30e9] set AppID=50011 old AppID=-1
[000:071] [2025-02-02 10:03:38 +0000.186923][30e9] Init the android object with
jvm:0xb4000077dbc21380 env:0x77cc41b080 context:0x77631d0288
[000:071] [2025-02-02 10:03:38 +0000.186978][30e9] SetAndroidMediaCodecObjects
time:108365665 enter.
[000:071] [2025-02-02 10:03:38 +0000.187012][30e9] SetAndroidMediaCodecObjects
leave. expire time = 0 ms
[000:071] [2025-02-02 10:03:38 +0000.187040][30e9] SetAndroidMediaCodecObjects
time:108365665 enter.
[000:071] [2025-02-02 10:03:38 +0000.187064][30e9] SetAndroidMediaCodecObjects:
SetAndroidMediaCodecObjects:: jvm :0xb4000077dbc21380
[000:071] [2025-02-02 10:03:38 +0000.187117][30e9] SetAndroidMediaCodecObjects:
SetAndroidMediaCodecObjects success g_jvm_:0xb4000077dbc21380 address:0x772347a760
[000:071] [2025-02-02 10:03:38 +0000.187159][30e9] SetAndroidMediaCodecObjects:
SetAndroidMediaCodecObjects success g_jvm_encoder_:0xb4000077dbc21380
address:0x772347a760
[000:071] [2025-02-02 10:03:38 +0000.187212][30e9] SetAndroidMediaCodecObjects
leave. expire time = 0 ms
[000:071] [2025-02-02 10:03:38 +0000.187252][30e9] Set the android objects with
jvm:0xb4000077dbc21380 env:0x77cc41b080 context:0x77631d0288
[000:073] [2025-02-02 10:03:38 +0000.189218][30e9] audio jni debug :manager
SetAndroidAudioDeviceObjects env:0x77cc41b080
[000:073] [2025-02-02 10:03:38 +0000.189330][30e9] SystemUtil Init done
[000:080] [2025-02-02 10:03:38 +0000.195886][30e9]
Java_com_xiaomi_recordmediaprocess_MediaEffectCamera_ConstructMediaEffectCameraJni:
[000:082] [2025-02-02 10:03:38 +0000.198700][30e9] MediaFilterCamera
[000:083] [2025-02-02 10:03:38 +0000.198815][30e9] RecordingSessionInternalSimple:
Create session internal:720 X 1280 fps:30
[000:083] [2025-02-02 10:03:38 +0000.198990][30e9] createSessionInternal: create
session with video size:720 X 1280 fps:30 bitrate:31457280
[000:083] [2025-02-02 10:03:38 +0000.199049][30e9] Recording session using default
bitrate support by app:31457280
[000:083] [2025-02-02 10:03:38 +0000.199065][4c67] Error([Link]): Set the
pthread name failed with error:34 name:Thread 0x0x77cc598c40
[000:083] [2025-02-02 10:03:38 +0000.199285][4c67] setAudioChannelCount_w:
RecordingSessionInternalSimple:set the audio channel count:2
[000:083] [2025-02-02 10:03:38 +0000.199387][30e9] setAudioSampleRate:
RecordingSessionInternalSimple:set the audio bitrate:44100
[000:084] [2025-02-02 10:03:38 +0000.200060][30e9] Error([Link]): Open the file
failed. error:2
[000:084] [2025-02-02 10:03:38 +0000.200112][30e9]
Error(key_value_pair_store.cc:130): load the data failed from: voip_config.ini
[000:084] [2025-02-02 10:03:38 +0000.200154][30e9] The device model: 2201117ti
usingSoftwareAEC value: 0
[000:088] [2025-02-02 10:03:38 +0000.204727][30e9] Error([Link]): Open the file
failed. error:2
[000:089] [2025-02-02 10:03:38 +0000.204846][30e9]
Error(key_value_pair_store.cc:130): load the data failed from:
/storage/emulated/0/voip-data/[Link]/voip_config.ini
[000:089] [2025-02-02 10:03:38 +0000.204887][30e9] The device model: 2201117ti
usingHardwareAEC value: 0
[000:089] [2025-02-02 10:03:38 +0000.204915][30e9] The machine device: 2201117ti
usingHardwareAEC value: 0
[000:089] [2025-02-02 10:03:38 +0000.204941][30e9] Using Default AEC type: software
AEC
[000:090] [2025-02-02 10:03:38 +0000.206208][30e9] The device model: 2201117ti enum
value: 0
[000:091] [2025-02-02 10:03:38 +0000.206966][30e9] GetMachineModel is 2201117TI
[000:091] [2025-02-02 10:03:38 +0000.207063][30e9] GetMachineInfo: 2201117TI
[000:091] [2025-02-02 10:03:38 +0000.207106][30e9] Construct BeautifyReader
begin...
[000:091] [2025-02-02 10:03:38 +0000.207136][30e9] dumpStickerRgba:0
dumpStickerYuv:0
[000:091] [2025-02-02 10:03:38 +0000.207159][30e9] Construct BeautifyReader done.
[000:094] [2025-02-02 10:03:38 +0000.210191][30e9] Error([Link]): Open the file
failed. error:2
[000:094] [2025-02-02 10:03:38 +0000.210299][30e9]
Error(key_value_pair_store.cc:130): load the data failed from:
/storage/emulated/0/voip-data/[Link]/support_resolution.txt
[000:094] [2025-02-02 10:03:38 +0000.210443][30e9] AppDeviceManagerStartCamera::The
result of start thread is: 1 micOn:0
[000:094] [2025-02-02 10:03:38 +0000.210480][30e9] AppDeviceManager telnet server
for statistics started......
[000:094] [2025-02-02 10:03:38 +0000.210481][4c6b] Error([Link]): Set the
pthread name failed with error:34 name:Thread 0x0x775ed659a0
[000:095] [2025-02-02 10:03:38 +0000.211079][30e9] CpuOverloadDetect time:108365689
enter.
[000:095] [2025-02-02 10:03:38 +0000.211196][30e9] CpuOverloadDetect leave. expire
time = 0 ms
[000:095] [2025-02-02 10:03:38 +0000.211224][4c6c] Error([Link]): Set the
pthread name failed with error:34 name:Thread 0x0x77cc4ff040
[000:096] [2025-02-02 10:03:38 +0000.211830][30e9] AppDeviceMana
GetOpenslVoiceMode before get setting: 1
[000:096] [2025-02-02 10:03:38 +0000.211878][30e9] AppDeviceMana
GetOpenslVoiceMode after get setting: 1
[000:099] [2025-02-02 10:03:38 +0000.215445][30e9] AudioManagerAndroid
getProperty:[Link].OUTPUT_SAMPLE_RATE
[000:101] [2025-02-02 10:03:38 +0000.217240][30e9] AudioManagerAndroid
getProperty:[Link].OUTPUT_FRAMES_PER_BUFFER
[000:102] [2025-02-02 10:03:38 +0000.217887][30e9] CreatePlatformSpecificObjects:
[000:102] [2025-02-02 10:03:38 +0000.217964][30e9] audio device use opensle input
and opensl output
[000:102] [2025-02-02 10:03:38 +0000.218032][30e9] Create OpenSLES output module
with java VM support.
[000:102] [2025-02-02 10:03:38 +0000.218251][30e9] AudioManagerAndroid
getProperty:[Link].OUTPUT_SAMPLE_RATE
[000:102] [2025-02-02 10:03:38 +0000.218422][30e9] AudioManagerAndroid
getProperty:[Link].OUTPUT_FRAMES_PER_BUFFER
[000:102] [2025-02-02 10:03:38 +0000.218618][30e9] Create OpenSLES output module
with buffer num:1
[000:103] [2025-02-02 10:03:38 +0000.218808][30e9] AudioManagerAndroid
getProperty:[Link].OUTPUT_SAMPLE_RATE
[000:103] [2025-02-02 10:03:38 +0000.218957][30e9] AudioManagerAndroid
getProperty:[Link].OUTPUT_FRAMES_PER_BUFFER
[000:103] [2025-02-02 10:03:38 +0000.219157][30e9] Create OpenSLES input module
with java VM support.
[000:103] [2025-02-02 10:03:38 +0000.219218][30e9] Create OpenSLES input module
with buffer num:1
[000:103] [2025-02-02 10:03:38 +0000.219292][30e9] Error([Link]): Init the
output and input for audio device template.
[000:103] [2025-02-02 10:03:38 +0000.219334][30e9] Init the output device.
[000:103] [2025-02-02 10:03:38 +0000.219359][30e9] Init the opensl input.
[000:103] [2025-02-02 10:03:38 +0000.219391][30e9] AppDeviceManager get setting
samplerate: 0
[000:104] [2025-02-02 10:03:38 +0000.219829][30e9] The device model: 2201117ti enum
value: 0
[000:104] [2025-02-02 10:03:38 +0000.220463][30e9] The device model: 2201117ti enum
value: 0
[000:104] [2025-02-02 10:03:38 +0000.220521][30e9] Set the sample rate to be:48000
[000:104] [2025-02-02 10:03:38 +0000.220550][30e9] Enable the recording stereo:0
[000:104] [2025-02-02 10:03:38 +0000.220575][30e9] Set the playout as stereo:1
[000:104] [2025-02-02 10:03:38 +0000.220598][30e9] Init the microphone.
[000:105] [2025-02-02 10:03:38 +0000.221035][30e9] Update the recording sample rate
to be: 48000
[000:105] [2025-02-02 10:03:38 +0000.221103][30e9] Init the speaker.
[000:105] [2025-02-02 10:03:38 +0000.221155][30e9] Low latency buffer size:144 low
sample rate:48000
[000:105] [2025-02-02 10:03:38 +0000.221421][30e9] Using 1 x 10ms for an audio
frame.
[000:109] [2025-02-02 10:03:38 +0000.225072][30e9] Error(splitting_filter.cc:26):
Splitting filter only support two or three bands now.
[000:109] [2025-02-02 10:03:38 +0000.225266][30e9] Error(splitting_filter.cc:26):
Splitting filter only support two or three bands now.
[000:109] [2025-02-02 10:03:38 +0000.225315][30e9] Error(splitting_filter.cc:26):
Splitting filter only support two or three bands now.
[000:114] [2025-02-02 10:03:38 +0000.230262][30e9] The device model:2201117ti
[000:114] [2025-02-02 10:03:38 +0000.230376][30e9] speaker output factor:100
defaultFactor: 100
[000:114] [2025-02-02 10:03:38 +0000.230405][30e9] headset output factor:100
defaultFactor: 100
[000:115] [2025-02-02 10:03:38 +0000.230833][30e9] AppDeviceManagerStart finished.
[000:115] [2025-02-02 10:03:38 +0000.230884][30e9] AppDeviceManagerStartMic::mic
status is off
[000:115] [2025-02-02 10:03:38 +0000.230931][30e9] AppDeviceManagerStartMic update
aec type: 2
[000:115] [2025-02-02 10:03:38 +0000.230965][30e9] AppDeviceManagerStartMic update
voiceChangeMode: 4
[000:115] [2025-02-02 10:03:38 +0000.230991][30e9]
AudioDeviceDataHandler::setVoiceChangeMode, mode : 4
[000:115] [2025-02-02 10:03:38 +0000.231023][30e9]
AudioDeviceDataHandler::StartMicProcess
[000:115] [2025-02-02 10:03:38 +0000.231152][30e9] Try to start webrtc recording
device.
[000:115] [2025-02-02 10:03:38 +0000.231180][30e9] StartRecording. threadID:12521
[000:115] [2025-02-02 10:03:38 +0000.231181][4c6d] Error([Link]): Set the
pthread name failed with error:34 name:AudioDeviceDataHandler gapProcessThread
[000:115] [2025-02-02 10:03:38 +0000.231249][4c6d] haveEnoughProcessedData
[Link]: 0
[000:115] [2025-02-02 10:03:38 +0000.231530][30e9] The machine model:2201117TI
[000:115] [2025-02-02 10:03:38 +0000.231596][30e9] default mode: Set the recording
mode to voice communication to enable HW AEC .
[000:115] [2025-02-02 10:03:38 +0000.231623][30e9] Set the recording mode before
getSetting: 4
[000:115] [2025-02-02 10:03:38 +0000.231653][30e9] Set the recording mode after
getSetting: 1
[000:144] [2025-02-02 10:03:38 +0000.260715][30e9] StartRecording finished.
[000:145] [2025-02-02 10:03:38 +0000.260824][30e9] audio: start the audio mic
checker timer.
[000:145] [2025-02-02 10:03:38 +0000.261392][30e9] machine model :redmi
[000:145] [2025-02-02 10:03:38 +0000.261448][30e9] Support this machine
model :redmi
[000:149] [2025-02-02 10:03:38 +0000.265367][30e9] global inited! current sdk
version: 07-20-936c45f
[000:225] [2025-02-02 10:03:38 +0000.341458][4c6f] webrtc device:Handle the data
from samplesPerSec recording sample rate:48000 nSamples:480 nBytesPerSample:#
nChannels:#
[000:225] [2025-02-02 10:03:38 +0000.341539][4c6f] _deviceSampleRate:48000
[000:227] [2025-02-02 10:03:38 +0000.343501][4c6d] Run AGC when audioType = 0
[000:227] [2025-02-02 10:03:38 +0000.343601][4c6d]
AudioDeviceDataHandler::MixAndSendOutFrame
[000:785] [2025-02-02 10:03:38 +0000.901004][4b0d]
Java_com_xiaomi_recordmediaprocess_OpenGlRender_SetCurrentGLContextJni:
[000:785] [2025-02-02 10:03:38 +0000.901235][4c68] MediaFilterCamera, recording
file context:0x77c80fc180 input texture:10
[000:785] [2025-02-02 10:03:38 +0000.901338][4c68] GLESContext:
[000:785] [2025-02-02 10:03:38 +0000.901472][4c68] The result of eglGetDisplay is:
0x1
[000:787] [2025-02-02 10:03:38 +0000.903379][4c68] The result of creation:
0x773f54c800
[000:787] [2025-02-02 10:03:38 +0000.903682][4c68] The result of
eglCreatePbufferSurface is: 0x773f54c900
[000:788] [2025-02-02 10:03:38 +0000.903866][4b0d]
Java_com_xiaomi_recordmediaprocess_OpenGlRender_SetCurrentGLContextJni:
g_eglcontext: 0x77c80fc180 input_texture: 10
[001:147] [2025-02-02 10:03:39 +0000.263530][30e9]
Java_com_xiaomi_recordmediaprocess_MediaEffectCamera_DestructMediaEffectCameraJni:
[001:147] [2025-02-02 10:03:39 +0000.263706][30e9] ~MediaFilterCamera
time:108366741 enter.
[001:147] [2025-02-02 10:03:39 +0000.263760][30e9] StopPullFrameAndWriteMp4
time:108366741 enter.
[001:148] [2025-02-02 10:03:39 +0000.264221][4c67] stop recording
[001:148] [2025-02-02 10:03:39 +0000.264283][4c67] we have stopped recording before
[001:148] [2025-02-02 10:03:39 +0000.264348][30e9] StopPullFrameAndWriteMp4 leave.
expire time = 1 ms
[001:148] [2025-02-02 10:03:39 +0000.264662][30e9] DestroyPipelineAndFilters
time:108366742 enter.
[001:148] [2025-02-02 10:03:39 +0000.264694][30e9] DestroyPipelineAndFilters
leave. expire time = 0 ms
[001:148] [2025-02-02 10:03:39 +0000.264766][30e9] AppDeviceManagerStopMic
[001:149] [2025-02-02 10:03:39 +0000.264810][30e9] AppDeviceManagerStopMic::mic
status is on
[001:149] [2025-02-02 10:03:39 +0000.264833][30e9] Try to stop webrtc device.
[001:149] [2025-02-02 10:03:39 +0000.264858][30e9] Set record state to
[Link]
[001:183] [2025-02-02 10:03:39 +0000.298837][30e9] Try to destory the
[Link]
[001:383] [2025-02-02 10:03:39 +0000.499064][30e9] DestroyAudioRecorder:
[001:383] [2025-02-02 10:03:39 +0000.499306][30e9] Cleanup the buffer queue in the
recorder.
[001:383] [2025-02-02 10:03:39 +0000.499353][30e9] Destroy the recorder.
[001:384] [2025-02-02 10:03:39 +0000.500543][30e9] StopRecording finished.
[001:384] [2025-02-02 10:03:39 +0000.500652][30e9] The stop recording success.
[001:384] [2025-02-02 10:03:39 +0000.500717][30e9]
AudioDeviceDataHandler::StopMicProcess
[001:388] [2025-02-02 10:03:39 +0000.504620][30e9] AppDeviceManager stop.
[001:389] [2025-02-02 10:03:39 +0000.504933][30e9] Rlease the webrtc device object.
[001:392] [2025-02-02 10:03:39 +0000.508425][30e9] OpenSlesInput destruct.
[001:394] [2025-02-02 10:03:39 +0000.510523][30e9] OpenSlesOutput destruct.
[001:395] [2025-02-02 10:03:39 +0000.511785][30e9] EventDispatchServerScope
destruct
[001:396] [2025-02-02 10:03:39 +0000.511891][30e9]
Warning([Link]): PhysicalSocketServer destruct
[001:396] [2025-02-02 10:03:39 +0000.511974][30e9] ~AudioDeviceDataHandler
[001:397] [2025-02-02 10:03:39 +0000.512953][30e9] AppDeviceManagerDestruct.
[001:397] [2025-02-02 10:03:39 +0000.513040][30e9] ~AppDeviceManager:
[001:397] [2025-02-02 10:03:39 +0000.513097][30e9] ~CpuOverloadDetect
time:108366991 enter.
[001:398] [2025-02-02 10:03:39 +0000.513864][30e9] ~CpuOverloadDetect leave.
expire time = 1 ms
[001:421] [2025-02-02 10:03:39 +0000.537100][30e9] Destruct BeautifyReader begin...
[001:421] [2025-02-02 10:03:39 +0000.537305][30e9] Destruct BeautifyReader done.
[001:421] [2025-02-02 10:03:39 +0000.537367][30e9] ~MediaFilterCamera leave.
expire time = 274 ms
[001:423] [2025-02-02 10:03:39 +0000.539691][30e9] ~GLESContext:
[001:428] [2025-02-02 10:03:39 +0000.544584][30e9] GLESContext destruct finish.
[001:429] [2025-02-02 10:03:39 +0000.544824][30e9] ~RecordingSessionInternalSimple:
RecordingSessionInternalSimple::~RecordingSessionInternalSimple
[001:429] [2025-02-02 10:03:39 +0000.545501][30e9] global uninited!
[001:432] [2025-02-02 10:03:39 +0000.548688][30e9] clear AppID 50011
[001:432] [2025-02-02 10:03:39 +0000.548763][30e9] UnRegister JVM for Xplatform
util
[001:433] [2025-02-02 10:03:39 +0000.548794][30e9] Dispose::unregister webrtc video
engine
[001:433] [2025-02-02 10:03:39 +0000.548818][30e9] Init the android object with
jvm:0x0 env:0x0 context:0x0
[001:433] [2025-02-02 10:03:39 +0000.548848][30e9] SetAndroidMediaCodecObjects
time:108367027 enter.
[001:433] [2025-02-02 10:03:39 +0000.548874][30e9] ClearAndroidMediaCodecObjects
time:108367027 enter.
[001:433] [2025-02-02 10:03:39 +0000.548900][30e9] ClearAndroidMediaCodecObjects
leave. expire time = 0 ms
[001:433] [2025-02-02 10:03:39 +0000.548924][30e9] SetAndroidMediaCodecObjects
leave. expire time = 0 ms
[001:433] [2025-02-02 10:03:39 +0000.548948][30e9] SetAndroidMediaCodecObjects
time:108367027 enter.
[001:433] [2025-02-02 10:03:39 +0000.548972][30e9] SetAndroidMediaCodecObjects:
SetAndroidMediaCodecObjects:: jvm :0x0
[001:433] [2025-02-02 10:03:39 +0000.548996][30e9] ClearAndroidMediaCodecObjects
time:108367027 enter.
[001:433] [2025-02-02 10:03:39 +0000.549019][30e9] ClearAndroidMediaCodecObjects
leave. expire time = 0 ms
[001:433] [2025-02-02 10:03:39 +0000.549042][30e9] SetAndroidMediaCodecObjects:
SetAndroidMediaCodecObjects failed
[001:433] [2025-02-02 10:03:39 +0000.549064][30e9] SetAndroidMediaCodecObjects
leave. expire time = 0 ms
[001:433] [2025-02-02 10:03:39 +0000.549088][30e9] Dispose::unregister webrtc voice
engine
[001:433] [2025-02-02 10:03:39 +0000.549111][30e9] Set the android objects with
jvm:0x0 env:0x0 context:0x0
[001:433] [2025-02-02 10:03:39 +0000.549161][30e9] SystemUtil UnInit done
[070:854] [2025-02-02 10:04:48 +0000.970716][30e9] Register JVM for xplatform util
[070:859] [2025-02-02 10:04:48 +0000.975115][30e9] Log to
file:/storage/emulated/0/voip-data/[Link]/[Link] start time:2025-02-
02 10:04:48 +0000
[070:859] [2025-02-02 10:04:48 +0000.975176][30e9] set AppID=50011 old AppID=-1
[070:859] [2025-02-02 10:04:48 +0000.975201][30e9] Init the android object with
jvm:0xb4000077dbc21380 env:0x77cc41b080 context:0x77631d0288
[070:859] [2025-02-02 10:04:48 +0000.975229][30e9] SetAndroidMediaCodecObjects
time:108436453 enter.
[070:859] [2025-02-02 10:04:48 +0000.975259][30e9] SetAndroidMediaCodecObjects
leave. expire time = 0 ms
[070:859] [2025-02-02 10:04:48 +0000.975294][30e9] SetAndroidMediaCodecObjects
time:108436453 enter.
[070:859] [2025-02-02 10:04:48 +0000.975331][30e9] SetAndroidMediaCodecObjects:
SetAndroidMediaCodecObjects:: jvm :0xb4000077dbc21380
[070:859] [2025-02-02 10:04:48 +0000.975366][30e9] SetAndroidMediaCodecObjects:
SetAndroidMediaCodecObjects success g_jvm_:0xb4000077dbc21380 address:0x772347a760
[070:859] [2025-02-02 10:04:48 +0000.975402][30e9] SetAndroidMediaCodecObjects:
SetAndroidMediaCodecObjects success g_jvm_encoder_:0xb4000077dbc21380
address:0x772347a760
[070:859] [2025-02-02 10:04:48 +0000.975436][30e9] SetAndroidMediaCodecObjects
leave. expire time = 0 ms
[070:859] [2025-02-02 10:04:48 +0000.975460][30e9] Set the android objects with
jvm:0xb4000077dbc21380 env:0x77cc41b080 context:0x77631d0288
[070:859] [2025-02-02 10:04:48 +0000.975493][30e9] audio jni debug :manager
SetAndroidAudioDeviceObjects env:0x77cc41b080
[070:859] [2025-02-02 10:04:48 +0000.975534][30e9] SystemUtil Init done
[070:860] [2025-02-02 10:04:48 +0000.975790][30e9]
Java_com_xiaomi_recordmediaprocess_MediaEffectCamera_ConstructMediaEffectCameraJni:
[070:860] [2025-02-02 10:04:48 +0000.975904][30e9] MediaFilterCamera
[070:860] [2025-02-02 10:04:48 +0000.975949][30e9] RecordingSessionInternalSimple:
Create session internal:720 X 1280 fps:30
[070:860] [2025-02-02 10:04:48 +0000.976182][30e9] createSessionInternal: create
session with video size:720 X 1280 fps:30 bitrate:31457280
[070:860] [2025-02-02 10:04:48 +0000.976228][30e9] Recording session using default
bitrate support by app:31457280
[070:860] [2025-02-02 10:04:48 +0000.976219][561e] Error([Link]): Set the
pthread name failed with error:34 name:Thread 0x0x77c827e4c0
[070:860] [2025-02-02 10:04:48 +0000.976400][561e] setAudioChannelCount_w:
RecordingSessionInternalSimple:set the audio channel count:2
[070:860] [2025-02-02 10:04:48 +0000.976482][30e9] setAudioSampleRate:
RecordingSessionInternalSimple:set the audio bitrate:44100
[070:861] [2025-02-02 10:04:48 +0000.977308][30e9] Error([Link]): Open the file
failed. error:2
[070:861] [2025-02-02 10:04:48 +0000.977357][30e9]
Error(key_value_pair_store.cc:130): load the data failed from: voip_config.ini
[070:861] [2025-02-02 10:04:48 +0000.977392][30e9] The device model: 2201117ti
usingSoftwareAEC value: 0
[070:863] [2025-02-02 10:04:48 +0000.979729][30e9] Error([Link]): Open the file
failed. error:2
[070:864] [2025-02-02 10:04:48 +0000.979814][30e9]
Error(key_value_pair_store.cc:130): load the data failed from:
/storage/emulated/0/voip-data/[Link]/voip_config.ini
[070:864] [2025-02-02 10:04:48 +0000.979857][30e9] The device model: 2201117ti
usingHardwareAEC value: 0
[070:864] [2025-02-02 10:04:48 +0000.979890][30e9] The machine device: 2201117ti
usingHardwareAEC value: 0
[070:864] [2025-02-02 10:04:48 +0000.979926][30e9] Using Default AEC type: software
AEC
[070:865] [2025-02-02 10:04:48 +0000.980988][30e9] The device model: 2201117ti enum
value: 0
[070:865] [2025-02-02 10:04:48 +0000.981585][30e9] GetMachineModel is 2201117TI
[070:865] [2025-02-02 10:04:48 +0000.981662][30e9] GetMachineInfo: 2201117TI
[070:865] [2025-02-02 10:04:48 +0000.981697][30e9] Construct BeautifyReader
begin...
[070:865] [2025-02-02 10:04:48 +0000.981734][30e9] dumpStickerRgba:0
dumpStickerYuv:0
[070:865] [2025-02-02 10:04:48 +0000.981767][30e9] Construct BeautifyReader done.
[070:868] [2025-02-02 10:04:48 +0000.984249][30e9] AppDeviceManagerStartCamera::The
result of start thread is: 1 micOn:0
[070:868] [2025-02-02 10:04:48 +0000.984282][5622] Error([Link]): Set the
pthread name failed with error:34 name:Thread 0x0x77cc5fb0a0
[070:868] [2025-02-02 10:04:48 +0000.984324][30e9] AppDeviceManager telnet server
for statistics started......
[070:868] [2025-02-02 10:04:48 +0000.984729][30e9] CpuOverloadDetect time:108436462
enter.
[070:869] [2025-02-02 10:04:48 +0000.984808][30e9] CpuOverloadDetect leave. expire
time = 1 ms
[070:869] [2025-02-02 10:04:48 +0000.984834][5623] Error([Link]): Set the
pthread name failed with error:34 name:Thread 0x0x77269a8700
[070:869] [2025-02-02 10:04:48 +0000.985454][30e9] AppDeviceMana
GetOpenslVoiceMode before get setting: 1
[070:869] [2025-02-02 10:04:48 +0000.985493][30e9] AppDeviceMana
GetOpenslVoiceMode after get setting: 1
[070:869] [2025-02-02 10:04:48 +0000.985734][30e9] AudioManagerAndroid
getProperty:[Link].OUTPUT_SAMPLE_RATE
[070:870] [2025-02-02 10:04:48 +0000.986020][30e9] AudioManagerAndroid
getProperty:[Link].OUTPUT_FRAMES_PER_BUFFER
[070:870] [2025-02-02 10:04:48 +0000.986227][30e9] CreatePlatformSpecificObjects:
[070:870] [2025-02-02 10:04:48 +0000.986265][30e9] audio device use opensle input
and opensl output
[070:870] [2025-02-02 10:04:48 +0000.986306][30e9] Create OpenSLES output module
with java VM support.
[070:870] [2025-02-02 10:04:48 +0000.986411][30e9] AudioManagerAndroid
getProperty:[Link].OUTPUT_SAMPLE_RATE
[070:870] [2025-02-02 10:04:48 +0000.986540][30e9] AudioManagerAndroid
getProperty:[Link].OUTPUT_FRAMES_PER_BUFFER
[070:870] [2025-02-02 10:04:48 +0000.986685][30e9] Create OpenSLES output module
with buffer num:1
[070:871] [2025-02-02 10:04:48 +0000.986787][30e9] AudioManagerAndroid
getProperty:[Link].OUTPUT_SAMPLE_RATE
[070:871] [2025-02-02 10:04:48 +0000.986910][30e9] AudioManagerAndroid
getProperty:[Link].OUTPUT_FRAMES_PER_BUFFER
[070:871] [2025-02-02 10:04:48 +0000.987049][30e9] Create OpenSLES input module
with java VM support.
[070:871] [2025-02-02 10:04:48 +0000.987088][30e9] Create OpenSLES input module
with buffer num:1
[070:871] [2025-02-02 10:04:48 +0000.987131][30e9] Error([Link]): Init the
output and input for audio device template.
[070:871] [2025-02-02 10:04:48 +0000.987165][30e9] Init the output device.
[070:871] [2025-02-02 10:04:48 +0000.987187][30e9] Init the opensl input.
[070:871] [2025-02-02 10:04:48 +0000.987220][30e9] AppDeviceManager get setting
samplerate: 0
[070:871] [2025-02-02 10:04:48 +0000.987520][30e9] The device model: 2201117ti enum
value: 0
[070:872] [2025-02-02 10:04:48 +0000.988047][30e9] The device model: 2201117ti enum
value: 0
[070:872] [2025-02-02 10:04:48 +0000.988083][30e9] Set the sample rate to be:48000
[070:872] [2025-02-02 10:04:48 +0000.988107][30e9] Enable the recording stereo:0
[070:872] [2025-02-02 10:04:48 +0000.988131][30e9] Set the playout as stereo:1
[070:872] [2025-02-02 10:04:48 +0000.988156][30e9] Init the microphone.
[070:872] [2025-02-02 10:04:48 +0000.988544][30e9] Update the recording sample rate
to be: 48000
[070:872] [2025-02-02 10:04:48 +0000.988584][30e9] Init the speaker.
[070:872] [2025-02-02 10:04:48 +0000.988624][30e9] Low latency buffer size:144 low
sample rate:48000
[070:873] [2025-02-02 10:04:48 +0000.988934][30e9] Using 1 x 10ms for an audio
frame.
[070:876] [2025-02-02 10:04:48 +0000.992153][30e9] Error(splitting_filter.cc:26):
Splitting filter only support two or three bands now.
[070:876] [2025-02-02 10:04:48 +0000.992288][30e9] Error(splitting_filter.cc:26):
Splitting filter only support two or three bands now.
[070:876] [2025-02-02 10:04:48 +0000.992328][30e9] Error(splitting_filter.cc:26):
Splitting filter only support two or three bands now.
[070:880] [2025-02-02 10:04:48 +0000.996741][30e9] The device model:2201117ti
[070:881] [2025-02-02 10:04:48 +0000.996835][30e9] speaker output factor:100
defaultFactor: 100
[070:881] [2025-02-02 10:04:48 +0000.996886][30e9] headset output factor:100
defaultFactor: 100
[070:881] [2025-02-02 10:04:48 +0000.997249][30e9] AppDeviceManagerStart finished.
[070:881] [2025-02-02 10:04:48 +0000.997286][30e9] AppDeviceManagerStartMic::mic
status is off
[070:881] [2025-02-02 10:04:48 +0000.997351][30e9] AppDeviceManagerStartMic update
aec type: 2
[070:881] [2025-02-02 10:04:48 +0000.997384][30e9] AppDeviceManagerStartMic update
voiceChangeMode: 4
[070:881] [2025-02-02 10:04:48 +0000.997427][30e9]
AudioDeviceDataHandler::setVoiceChangeMode, mode : 4
[070:881] [2025-02-02 10:04:48 +0000.997450][30e9]
AudioDeviceDataHandler::StartMicProcess
[070:881] [2025-02-02 10:04:48 +0000.997593][30e9] Try to start webrtc recording
device.
[070:881] [2025-02-02 10:04:48 +0000.997629][30e9] StartRecording. threadID:12521
[070:881] [2025-02-02 10:04:48 +0000.997624][5624] Error([Link]): Set the
pthread name failed with error:34 name:AudioDeviceDataHandler gapProcessThread
[070:881] [2025-02-02 10:04:48 +0000.997728][30e9] default mode: Set the recording
mode to voice communication to enable HW AEC .
[070:881] [2025-02-02 10:04:48 +0000.997769][30e9] Set the recording mode before
getSetting: 4
[070:882] [2025-02-02 10:04:48 +0000.997825][30e9] Set the recording mode after
getSetting: 1
[070:895] [2025-02-02 10:04:49 +0000.11432][30e9] StartRecording finished.
[070:895] [2025-02-02 10:04:49 +0000.11519][30e9] audio: start the audio mic
checker timer.
[070:896] [2025-02-02 10:04:49 +0000.11987][30e9] machine model :redmi
[070:896] [2025-02-02 10:04:49 +0000.12025][30e9] Support this machine model :redmi
[070:896] [2025-02-02 10:04:49 +0000.12053][30e9] global inited! current sdk
version: 07-20-936c45f
[071:450] [2025-02-02 10:04:49 +0000.566375][5624] haveEnoughProcessedData
[Link]: 10
[071:477] [2025-02-02 10:04:49 +0000.593359][4b0d]
Java_com_xiaomi_recordmediaprocess_OpenGlRender_SetCurrentGLContextJni:
[071:477] [2025-02-02 10:04:49 +0000.593742][561f] MediaFilterCamera, recording
file context:0x77c80fc180 input texture:18
[071:478] [2025-02-02 10:04:49 +0000.593840][561f] GLESContext:
[071:478] [2025-02-02 10:04:49 +0000.593907][561f] The result of eglGetDisplay is:
0x1
[071:479] [2025-02-02 10:04:49 +0000.595077][561f] The result of creation:
0x772e82f980
[071:479] [2025-02-02 10:04:49 +0000.595228][561f] The result of
eglCreatePbufferSurface is: 0x772e82fa80
[071:480] [2025-02-02 10:04:49 +0000.595848][4b0d]
Java_com_xiaomi_recordmediaprocess_OpenGlRender_SetCurrentGLContextJni:
g_eglcontext: 0x77c80fc180 input_texture: 18
[071:771] [2025-02-02 10:04:49 +0000.887131][30e9]
Java_com_xiaomi_recordmediaprocess_MediaEffectCamera_DestructMediaEffectCameraJni:
[071:771] [2025-02-02 10:04:49 +0000.887242][30e9] ~MediaFilterCamera
time:108437365 enter.
[071:771] [2025-02-02 10:04:49 +0000.887292][30e9] StopPullFrameAndWriteMp4
time:108437365 enter.
[071:771] [2025-02-02 10:04:49 +0000.887577][561e] stop recording
[071:771] [2025-02-02 10:04:49 +0000.887622][561e] we have stopped recording before
[071:771] [2025-02-02 10:04:49 +0000.887695][30e9] StopPullFrameAndWriteMp4 leave.
expire time = 0 ms
[071:772] [2025-02-02 10:04:49 +0000.888077][30e9] DestroyPipelineAndFilters
time:108437366 enter.
[071:772] [2025-02-02 10:04:49 +0000.888119][30e9] DestroyPipelineAndFilters
leave. expire time = 0 ms
[071:772] [2025-02-02 10:04:49 +0000.888156][30e9] AppDeviceManagerStopMic
[071:772] [2025-02-02 10:04:49 +0000.888224][30e9] AppDeviceManagerStopMic::mic
status is on
[071:772] [2025-02-02 10:04:49 +0000.888264][30e9] Try to stop webrtc device.
[071:772] [2025-02-02 10:04:49 +0000.888292][30e9] Set record state to
[Link]
[071:812] [2025-02-02 10:04:49 +0000.928390][30e9] Try to destory the
[Link]
[072:012] [2025-02-02 10:04:50 +0000.128634][30e9] DestroyAudioRecorder:
[072:013] [2025-02-02 10:04:50 +0000.128823][30e9] Cleanup the buffer queue in the
recorder.
[072:013] [2025-02-02 10:04:50 +0000.128866][30e9] Destroy the recorder.
[072:022] [2025-02-02 10:04:50 +0000.138717][30e9] StopRecording finished.
[072:023] [2025-02-02 [000:034] [2025-02-05 14:13:07 +0000.964922][6c2c] Log to
file:/storage/emulated/0/voip-data/[Link]/[Link] start time:2025-02-
05 14:13:07 +0000
[000:034] [2025-02-05 14:13:07 +0000.964972][6c2c] set AppID=50011 old AppID=-1
[000:034] [2025-02-05 14:13:07 +0000.965005][6c2c] Init the android object with
jvm:0xb4000077dbc21380 env:0x77cc41b080 context:0x77620d3288
[000:034] [2025-02-05 14:13:07 +0000.965068][6c2c] SetAndroidMediaCodecObjects
time:229894139 enter.
[000:034] [2025-02-05 14:13:07 +0000.965106][6c2c] SetAndroidMediaCodecObjects
leave. expire time = 0 ms
[000:034] [2025-02-05 14:13:07 +0000.965142][6c2c] SetAndroidMediaCodecObjects
time:229894139 enter.
[000:034] [2025-02-05 14:13:07 +0000.965175][6c2c] SetAndroidMediaCodecObjects:
SetAndroidMediaCodecObjects:: jvm :0xb4000077dbc21380
[000:034] [2025-02-05 14:13:07 +0000.965199][6c2c] SetAndroidMediaCodecObjects:
SetAndroidMediaCodecObjects success g_jvm_:0xb4000077dbc21380 address:0x771b1b4760
[000:034] [2025-02-05 14:13:07 +0000.965232][6c2c] SetAndroidMediaCodecObjects:
SetAndroidMediaCodecObjects success g_jvm_encoder_:0xb4000077dbc21380
address:0x771b1b4760
[000:034] [2025-02-05 14:13:07 +0000.965256][6c2c] SetAndroidMediaCodecObjects
leave. expire time = 0 ms
[000:034] [2025-02-05 14:13:07 +0000.965298][6c2c] Set the android objects with
jvm:0xb4000077dbc21380 env:0x77cc41b080 context:0x77620d3288
[000:036] [2025-02-05 14:13:07 +0000.966939][6c2c] audio jni debug :manager
SetAndroidAudioDeviceObjects env:0x77cc41b080
[000:036] [2025-02-05 14:13:07 +0000.966980][6c2c] SystemUtil Init done
[000:038] [2025-02-05 14:13:07 +0000.968468][6c2c]
Java_com_xiaomi_recordmediaprocess_MediaEffectCamera_ConstructMediaEffectCameraJni:
[000:040] [2025-02-05 14:13:07 +0000.971100][6c2c] MediaFilterCamera
[000:040] [2025-02-05 14:13:07 +0000.971161][6c2c] RecordingSessionInternalSimple:
Create session internal:720 X 1280 fps:30
[000:040] [2025-02-05 14:13:07 +0000.971290][6c2c] createSessionInternal: create
session with video size:720 X 1280 fps:30 bitrate:31457280
[000:041] [2025-02-05 14:13:07 +0000.971334][6c2c] Recording session using default
bitrate support by app:31457280
[000:041] [2025-02-05 14:13:07 +0000.971323][742b] Error([Link]): Set the
pthread name failed with error:34 name:Thread 0x0x773f0ccdc0
[000:041] [2025-02-05 14:13:07 +0000.971541][742b] setAudioChannelCount_w:
RecordingSessionInternalSimple:set the audio channel count:2
[000:041] [2025-02-05 14:13:07 +0000.971620][6c2c] setAudioSampleRate:
RecordingSessionInternalSimple:set the audio bitrate:44100
[000:041] [2025-02-05 14:13:07 +0000.972202][6c2c] Error([Link]): Open the file
failed. error:2
[000:041] [2025-02-05 14:13:07 +0000.972243][6c2c]
Error(key_value_pair_store.cc:130): load the data failed from: voip_config.ini
[000:041] [2025-02-05 14:13:07 +0000.972282][6c2c] The device model: 2201117ti
usingSoftwareAEC value: 0
[000:044] [2025-02-05 14:13:07 +0000.974548][6c2c] Error([Link]): Open the file
failed. error:2
[000:044] [2025-02-05 14:13:07 +0000.974630][6c2c]
Error(key_value_pair_store.cc:130): load the data failed from:
/storage/emulated/0/voip-data/[Link]/voip_config.ini
[000:044] [2025-02-05 14:13:07 +0000.974667][6c2c] The device model: 2201117ti
usingHardwareAEC value: 0
[000:044] [2025-02-05 14:13:07 +0000.974690][6c2c] The machine device: 2201117ti
usingHardwareAEC value: 0
[000:044] [2025-02-05 14:13:07 +0000.974711][6c2c] Using Default AEC type: software
AEC
[000:045] [2025-02-05 14:13:07 +0000.975753][6c2c] The device model: 2201117ti enum
value: 0
[000:045] [2025-02-05 14:13:07 +0000.976264][6c2c] GetMachineModel is 2201117TI
[000:046] [2025-02-05 14:13:07 +0000.976321][6c2c] GetMachineInfo: 2201117TI
[000:046] [2025-02-05 14:13:07 +0000.976358][6c2c] Construct BeautifyReader
begin...
[000:046] [2025-02-05 14:13:07 +0000.976396][6c2c] dumpStickerRgba:0
dumpStickerYuv:0
[000:046] [2025-02-05 14:13:07 +0000.976419][6c2c] Construct BeautifyReader done.
[000:049] [2025-02-05 14:13:07 +0000.980289][6c2c] AppDeviceManagerStartCamera::The
result of start thread is: 1 micOn:0
[000:050] [2025-02-05 14:13:07 +0000.980316][7432] Error([Link]): Set the
pthread name failed with error:34 name:Thread 0x0x773f2b40a0
[000:050] [2025-02-05 14:13:07 +0000.980677][6c2c] AppDeviceManager telnet server
for statistics started......
[000:050] [2025-02-05 14:13:07 +0000.981062][6c2c] CpuOverloadDetect time:229894155
enter.
[000:050] [2025-02-05 14:13:07 +0000.981160][6c2c] CpuOverloadDetect leave. expire
time = 0 ms
[000:050] [2025-02-05 14:13:07 +0000.981184][7433] Error([Link]): Set the
pthread name failed with error:34 name:Thread 0x0x773a4393c0
[000:051] [2025-02-05 14:13:07 +0000.981788][6c2c] AppDeviceMana
GetOpenslVoiceMode before get setting: 1
[000:051] [2025-02-05 14:13:07 +0000.981825][6c2c] AppDeviceMana
GetOpenslVoiceMode after get setting: 1
[000:051] [2025-02-05 14:13:07 +0000.982230][6c2c] AudioManagerAndroid
getProperty:[Link].OUTPUT_SAMPLE_RATE
[000:059] [2025-02-05 14:13:07 +0000.989372][6c2c] AudioManagerAndroid
getProperty:[Link].OUTPUT_FRAMES_PER_BUFFER
[000:059] [2025-02-05 14:13:07 +0000.990164][6c2c] CreatePlatformSpecificObjects:
[000:059] [2025-02-05 14:13:07 +0000.990259][6c2c] audio device use opensle input
and opensl output
[000:059] [2025-02-05 14:13:07 +0000.990306][6c2c] Create OpenSLES output module
with java VM support.
[000:060] [2025-02-05 14:13:07 +0000.990550][6c2c] AudioManagerAndroid
getProperty:[Link].OUTPUT_SAMPLE_RATE
[000:060] [2025-02-05 14:13:07 +0000.990820][6c2c] AudioManagerAndroid
getProperty:[Link].OUTPUT_FRAMES_PER_BUFFER
[000:060] [2025-02-05 14:13:07 +0000.991111][6c2c] Create OpenSLES output module
with buffer num:1
[000:061] [2025-02-05 14:13:07 +0000.991414][6c2c] AudioManagerAndroid
getProperty:[Link].OUTPUT_SAMPLE_RATE
[000:061] [2025-02-05 14:13:07 +0000.991604][6c2c] AudioManagerAndroid
getProperty:[Link].OUTPUT_FRAMES_PER_BUFFER
[000:061] [2025-02-05 14:13:07 +0000.991863][6c2c] Create OpenSLES input module
with java VM support.
[000:061] [2025-02-05 14:13:07 +0000.991933][6c2c] Create OpenSLES input module
with buffer num:1
[000:061] [2025-02-05 14:13:07 +0000.991997][6c2c] Error([Link]): Init the
output and input for audio device template.
[000:061] [2025-02-05 14:13:07 +0000.992034][6c2c] Init the output device.
[000:061] [2025-02-05 14:13:07 +0000.992058][6c2c] Init the opensl input.
[000:061] [2025-02-05 14:13:07 +0000.992098][6c2c] AppDeviceManager get setting
samplerate: 0
[000:062] [2025-02-05 14:13:07 +0000.992504][6c2c] The device model: 2201117ti enum
value: 0
[000:062] [2025-02-05 14:13:07 +0000.993062][6c2c] The device model: 2201117ti enum
value: 0
[000:062] [2025-02-05 14:13:07 +0000.993116][6c2c] Set the sample rate to be:48000
[000:062] [2025-02-05 14:13:07 +0000.993141][6c2c] Enable the recording stereo:0
[000:062] [2025-02-05 14:13:07 +0000.993181][6c2c] Set the playout as stereo:1
[000:062] [2025-02-05 14:13:07 +0000.993215][6c2c] Init the microphone.
[000:064] [2025-02-05 14:13:07 +0000.994775][6c2c] Update the recording sample rate
to be: 48000
[000:064] [2025-02-05 14:13:07 +0000.994885][6c2c] Init the speaker.
[000:064] [2025-02-05 14:13:07 +0000.994941][6c2c] Low latency buffer size:144 low
sample rate:48000
[000:065] [2025-02-05 14:13:07 +0000.995323][6c2c] Using 1 x 10ms for an audio
frame.
[000:068] [2025-02-05 14:13:07 +0000.998924][6c2c] Error(splitting_filter.cc:26):
Splitting filter only support two or three bands now.
[000:068] [2025-02-05 14:13:07 +0000.999071][6c2c] Error(splitting_filter.cc:26):
Splitting filter only support two or three bands now.
[000:068] [2025-02-05 14:13:07 +0000.999137][6c2c] Error(splitting_filter.cc:26):
Splitting filter only support two or three bands now.
[000:073] [2025-02-05 14:13:08 +0000.4162][6c2c] The device model:2201117ti
[000:073] [2025-02-05 14:13:08 +0000.4271][6c2c] speaker output factor:100
defaultFactor: 100
[000:073] [2025-02-05 14:13:08 +0000.4303][6c2c] headset output factor:100
defaultFactor: 100
[000:074] [2025-02-05 14:13:08 +0000.4750][6c2c] AppDeviceManagerStart finished.
[000:074] [2025-02-05 14:13:08 +0000.4802][6c2c] AppDeviceManagerStartMic::mic
status is off
[000:074] [2025-02-05 14:13:08 +0000.4881][6c2c] AppDeviceManagerStartMic update
aec type: 2
[000:074] [2025-02-05 14:13:08 +0000.4912][6c2c] AppDeviceManagerStartMic update
voiceChangeMode: 4
[000:074] [2025-02-05 14:13:08 +0000.4937][6c2c]
AudioDeviceDataHandler::setVoiceChangeMode, mode : 4
[000:074] [2025-02-05 14:13:08 +0000.4969][6c2c]
AudioDeviceDataHandler::StartMicProcess
[000:074] [2025-02-05 14:13:08 +0000.5157][6c2c] Try to start webrtc recording
device.
[000:074] [2025-02-05 14:13:08 +0000.5197][6c2c] StartRecording. threadID:27692
[000:074] [2025-02-05 14:13:08 +0000.5190][7434] Error([Link]): Set the
pthread name failed with error:34 name:AudioDeviceDataHandler gapProcessThread
[000:074] [2025-02-05 14:13:08 +0000.5286][7434] haveEnoughProcessedData
[Link]: 0
[000:075] [2025-02-05 14:13:08 +0000.5776][6c2c] The machine model:2201117TI
[000:075] [2025-02-05 14:13:08 +0000.5889][6c2c] default mode: Set the recording
mode to voice communication to enable HW AEC .
[000:075] [2025-02-05 14:13:08 +0000.5925][6c2c] Set the recording mode before
getSetting: 4
[000:075] [2025-02-05 14:13:08 +0000.5951][6c2c] Set the recording mode after
getSetting: 1
[000:120] [2025-02-05 14:13:08 +0000.50580][6c2c] StartRecording finished.
[000:120] [2025-02-05 14:13:08 +0000.50653][6c2c] audio: start the audio mic
checker timer.
[000:120] [2025-02-05 14:13:08 +0000.51153][6c2c] machine model :redmi
[000:120] [2025-02-05 14:13:08 +0000.51203][6c2c] Support this machine model :redmi
[000:126] [2025-02-05 14:13:08 +0000.56999][6c2c] global inited! current sdk
version: 07-20-936c45f
[000:210] [2025-02-05 14:13:08 +0000.141050][7435] webrtc device:Handle the data
from samplesPerSec recording sample rate:48000 nSamples:480 nBytesPerSample:#
nChannels:#
[000:210] [2025-02-05 14:13:08 +0000.141301][7435] _deviceSampleRate:48000
[000:213] [2025-02-05 14:13:08 +0000.143677][7434] Run AGC when audioType = 0
[000:213] [2025-02-05 14:13:08 +0000.143847][7434]
AudioDeviceDataHandler::MixAndSendOutFrame
[000:755] [2025-02-05 14:13:08 +0000.685528][6f4a]
Java_com_xiaomi_recordmediaprocess_OpenGlRender_SetCurrentGLContextJni:
[000:755] [2025-02-05 14:13:08 +0000.685926][7430] MediaFilterCamera, recording
file context:0x77c8228a80 input texture:14
[000:755] [2025-02-05 14:13:08 +0000.686039][7430] GLESContext:
[000:755] [2025-02-05 14:13:08 +0000.686135][7430] The result of eglGetDisplay is:
0x1
[000:757] [2025-02-05 14:13:08 +0000.687392][7430] The result of creation:
0x77256e6580
[000:757] [2025-02-05 14:13:08 +0000.687518][7430] The result of
eglCreatePbufferSurface is: 0x77256e6680
[000:757] [2025-02-05 14:13:08 +0000.687640][6f4a]
Java_com_xiaomi_recordmediaprocess_OpenGlRender_SetCurrentGLContextJni:
g_eglcontext: 0x77c8228a80 input_texture: 14
[001:821] [2025-02-05 14:13:09 +0000.751535][7434] haveEnoughProcessedData
[Link]: 10
[002:208] [2025-02-05 14:13:10 +0000.139077][7434] Run AGC when audioType = 0
[003:530] [2025-02-05 14:13:11 +0000.460452][7434] haveEnoughProcessedData
[Link]: 10
[004:123] [2025-02-05 14:13:12 +0000.53480][7426]
monitorTime:4003totalDuration:3920
[004:211] [2025-02-05 14:13:12 +0000.141408][7434] Run AGC when audioType = 0
[004:211] [2025-02-05 14:13:12 +0000.141610][7434]
AudioDeviceDataHandler::MixAndSendOutFrame
[005:242] [2025-02-05 14:13:13 +0000.172703][7434] haveEnoughProcessedData
[Link]: 0
[005:952] [2025-02-05 14:13:13 +0000.882694][6c2c]
Java_com_xiaomi_recordmediaprocess_MediaEffectCamera_DestructMediaEffectCameraJni:
[005:952] [2025-02-05 14:13:13 +0000.882880][6c2c] ~MediaFilterCamera
time:229900057 enter.
[005:952] [2025-02-05 14:13:13 +0000.882946][6c2c] StopPullFrameAndWriteMp4
time:229900057 enter.
[005:953] [2025-02-05 14:13:13 +0000.883504][742b] stop recording
[005:953] [2025-02-05 14:13:13 +0000.883572][742b] we have stopped recording before
[005:953] [2025-02-05 14:13:13 +0000.883658][6c2c] StopPullFrameAndWriteMp4 leave.
expire time = 1 ms
[005:953] [2025-02-05 14:13:13 +0000.883921][6c2c] DestroyPipelineAndFilters
time:229900058 enter.
[005:953] [2025-02-05 14:13:13 +0000.883957][6c2c] DestroyPipelineAndFilters
leave. expire time = 0 ms
[005:953] [2025-02-05 14:13:13 +0000.883993][6c2c] AppDeviceManagerStopMic
[005:953] [2025-02-05 14:13:13 +0000.884098][6c2c] AppDeviceManagerStopMic::mic
status is on
[005:953] [2025-02-05 14:13:13 +0000.884130][6c2c] Try to stop webrtc device.
[005:953] [2025-02-05 14:13:13 +0000.884155][6c2c] Set record state to
[Link]
[005:999] [2025-02-05 14:13:13 +0000.929855][6c2c] Try to destory the
[Link]
[006:199] [2025-02-05 14:13:14 +0000.130015][6c2c] DestroyAudioRecorder:
[006:199] [2025-02-05 14:13:14 +0000.130123][6c2c] Cleanup the buffer queue in the
recorder.
[006:199] [2025-02-05 14:13:14 +0000.130152][6c2c] Destroy the recorder.
[006:202] [2025-02-05 14:13:14 +0000.133359][6c2c] StopRecording finished.
[006:203] [2025-02-05 14:13:14 +0000.133430][6c2c] The stop recording success.
[006:203] [2025-02-05 14:13:14 +0000.133455][6c2c]
AudioDeviceDataHandler::StopMicProcess
[006:205] [2025-02-05 14:13:14 +0000.135659][6c2c] AppDeviceManager stop.
[006:205] [2025-02-05 14:13:14 +0000.135866][6c2c] Rlease the webrtc device object.
[006:207] [2025-02-05 14:13:14 +0000.137527][6c2c] OpenSlesInput destruct.
[006:207] [2025-02-05 14:13:14 +0000.137676][6c2c] OpenSlesOutput destruct.
[006:208] [2025-02-05 14:13:14 +0000.138338][6c2c] EventDispatchServerScope
destruct
[006:208] [2025-02-05 14:13:14 +0000.138396][6c2c]
Warning([Link]): PhysicalSocketServer destruct
[006:208] [2025-02-05 14:13:14 +0000.138461][6c2c] ~AudioDeviceDataHandler
[006:208] [2025-02-05 14:13:14 +0000.139074][6c2c] AppDeviceManagerDestruct.
[006:208] [2025-02-05 14:13:14 +0000.139123][6c2c] ~AppDeviceManager:
[006:208] [2025-02-05 14:13:14 +0000.139164][6c2c] ~CpuOverloadDetect
time:229900313 enter.
[006:209] [2025-02-05 14:13:14 +0000.139872][6c2c] ~CpuOverloadDetect leave.
expire time = 1 ms
[006:212] [2025-02-05 14:13:14 +0000.142517][6c2c] Destruct BeautifyReader begin...
[006:212] [2025-02-05 14:13:14 +0000.142613][6c2c] Destruct BeautifyReader done.
[006:212] [2025-02-05 14:13:14 +0000.142663][6c2c] ~MediaFilterCamera leave.
expire time = 260 ms
[006:212] [2025-02-05 14:13:14 +0000.142845][6c2c] ~GLESContext:
[006:214] [2025-02-05 14:13:14 +0000.145077][6c2c] GLESContext destruct finish.
[006:214] [2025-02-05 14:13:14 +0000.145164][6c2c] ~RecordingSessionInternalSimple:
RecordingSessionInternalSimple::~RecordingSessionInternalSimple
[006:215] [2025-02-05 14:13:14 +0000.145691][6c2c] global uninited!
[006:219] [2025-02-05 14:13:14 +0000.149459][6c2c] clear AppID 50011
[006:219] [2025-02-05 14:13:14 +0000.149543][6c2c] UnRegister JVM for Xplatform
util
[006:219] [2025-02-05 14:13:14 +0000.149590][6c2c] Dispose::unregister webrtc video
engine
[006:219] [2025-02-05 14:13:14 +0000.149632][6c2c] Init the android object with
jvm:0x0 env:0x0 context:0x0
[006:219] [2025-02-05 14:13:14 +0000.149673][6c2c] SetAndroidMediaCodecObjects
time:229900324 enter.
[006:219] [2025-02-05 14:13:14 +0000.149714][6c2c] ClearAndroidMediaCodecObjects
time:229900324 enter.
[006:219] [2025-02-05 14:13:14 +0000.149757][6c2c] ClearAndroidMediaCodecObjects
leave. expire time = 0 ms
[006:219] [2025-02-05 14:13:14 +0000.149799][6c2c] SetAndroidMediaCodecObjects
leave. expire time = 0 ms
[006:219] [2025-02-05 14:13:14 +0000.149821][6c2c] SetAndroidMediaCodecObjects
time:229900324 enter.
[006:219] [2025-02-05 14:13:14 +0000.149858][6c2c] SetAndroidMediaCodecObjects:
SetAndroidMediaCodecObjects:: jvm :0x0
[006:219] [2025-02-05 14:13:14 +0000.149899][6c2c] ClearAndroidMediaCodecObjects
time:229900324 enter.
[006:219] [2025-02-05 14:13:14 +0000.149921][6c2c] ClearAndroidMediaCodecObjects
leave. expire time = 0 ms
[006:219] [2025-02-05 14:13:14 +0000.149953][6c2c] SetAndroidMediaCodecObjects:
SetAndroidMediaCodecObjects failed
[006:219] [2025-02-05 14:13:14 +0000.149995][6c2c] SetAndroidMediaCodecObjects
leave. expire time = 0 ms
[006:219] [2025-02-05 14:13:14 +0000.150029][6c2c] Dispose::unregister webrtc voice
engine
[006:219] [2025-02-05 14:13:14 +0000.150067][6c2c] Set the android objects with
jvm:0x0 env:0x0 context:0x0
[006:219] [2025-02-05 14:13:14 +0000.150106][6c2c] SystemUtil UnInit done
[009:512] [2025-02-05 14:13:17 +0000.442901][6c2c] Register JVM for xplatform util
[009:520] [2025-02-05 14:13:17 +0000.450446][6c2c] Log to
file:/storage/emulated/0/voip-data/[Link]/[Link] start time:2025-02-
05 14:13:17 +0000
[009:520] [2025-02-05 14:13:17 +0000.450541][6c2c] set AppID=50011 old AppID=-1
[009:520] [2025-02-05 14:13:17 +0000.450570][6c2c] Init the android object with
jvm:0xb4000077dbc21380 env:0x77cc41b080 context:0x77620d3288
[009:520] [2025-02-05 14:13:17 +0000.450601][6c2c] SetAndroidMediaCodecObjects
time:229903625 enter.
[009:520] [2025-02-05 14:13:17 +0000.450644][6c2c] SetAndroidMediaCodecObjects
leave. expire time = 0 ms
[009:520] [2025-02-05 14:13:17 +0000.450694][6c2c] SetAndroidMediaCodecObjects
time:229903625 enter.
[009:520] [2025-02-05 14:13:17 +0000.450718][6c2c] SetAndroidMediaCodecObjects:
SetAndroidMediaCodecObjects:: jvm :0xb4000077dbc21380
[009:520] [2025-02-05 14:13:17 +0000.450751][6c2c] SetAndroidMediaCodecObjects:
SetAndroidMediaCodecObjects success g_jvm_:0xb4000077dbc21380 address:0x771b1b4760
[009:520] [2025-02-05 14:13:17 +0000.450776][6c2c] SetAndroidMediaCodecObjects:
SetAndroidMediaCodecObjects success g_jvm_encoder_:0xb4000077dbc21380
address:0x771b1b4760
[009:520] [2025-02-05 14:13:17 +0000.450812][6c2c] SetAndroidMediaCodecObjects
leave. expire time = 0 ms
[009:520] [2025-02-05 14:13:17 +0000.450856][6c2c] Set the android objects with
jvm:0xb4000077dbc21380 env:0x77cc41b080 context:0x77620d3288
[009:520] [2025-02-05 14:13:17 +0000.450882][6c2c] audio jni debug :manager
SetAndroidAudioDeviceObjects env:0x77cc41b080
[009:520] [2025-02-05 14:13:17 +0000.450920][6c2c] SystemUtil Init done
[009:520] [2025-02-05 14:13:17 +0000.451260][6c2c]
Java_com_xiaomi_recordmediaprocess_MediaEffectCamera_ConstructMediaEffectCameraJni:
[009:521] [2025-02-05 14:13:17 +0000.451405][6c2c] MediaFilterCamera
[009:521] [2025-02-05 14:13:17 +0000.451464][6c2c] RecordingSessionInternalSimple:
Create session internal:720 X 1280 fps:30
[009:521] [2025-02-05 14:13:17 +0000.451601][6c2c] createSessionInternal: create
session with video size:720 X 1280 fps:30 bitrate:31457280
[009:521] [2025-02-05 14:13:17 +0000.451656][6c2c] Recording session using default
bitrate support by app:31457280
[009:521] [2025-02-05 14:13:17 +0000.451752][749a] Error([Link]): Set the
pthread name failed with error:34 name:Thread 0x0x773f0ccdc0
[009:521] [2025-02-05 14:13:17 +0000.451819][749a] setAudioChannelCount_w:
RecordingSessionInternalSimple:set the audio channel count:2
[009:521] [2025-02-05 14:13:17 +0000.451932][6c2c] setAudioSampleRate:
RecordingSessionInternalSimple:set the audio bitrate:44100
[009:522] [2025-02-05 14:13:17 +0000.453027][6c2c] Error([Link]): Open the file
failed. error:2
[009:522] [2025-02-05 14:13:17 +0000.453105][6c2c]
Error(key_value_pair_store.cc:130): load the data failed from: voip_config.ini
[009:522] [2025-02-05 14:13:17 +0000.453131][6c2c] The device model: 2201117ti
usingSoftwareAEC value: 0
[009:524] [2025-02-05 14:13:17 +0000.455270][6c2c] Error([Link]): Open the file
failed. error:2
[009:525] [2025-02-05 14:13:17 +0000.455362][6c2c]
Error(key_value_pair_store.cc:130): load the data failed from:
/storage/emulated/0/voip-data/[Link]/voip_config.ini
[009:525] [2025-02-05 14:13:17 +0000.455405][6c2c] The device model: 2201117ti
usingHardwareAEC value: 0
[009:525] [2025-02-05 14:13:17 +0000.455442][6c2c] The machine device: 2201117ti
usingHardwareAEC value: 0
[009:525] [2025-02-05 14:13:17 +0000.455478][6c2c] Using Default AEC type: software
AEC
[009:526] [2025-02-05 14:13:17 +0000.456538][6c2c] The device model: 2201117ti enum
value: 0
[009:526] [2025-02-05 14:13:17 +0000.457016][6c2c] GetMachineModel is 2201117TI
[009:526] [2025-02-05 14:13:17 +0000.457071][6c2c] GetMachineInfo: 2201117TI
[009:526] [2025-02-05 14:13:17 +0000.457105][6c2c] Construct BeautifyReader
begin...
[009:526] [2025-02-05 14:13:17 +0000.457140][6c2c] dumpStickerRgba:0
dumpStickerYuv:0
[009:526] [2025-02-05 14:13:17 +0000.457175][6c2c] Construct BeautifyReader done.
[009:529] [2025-02-05 14:13:17 +0000.459610][6c2c] AppDeviceManagerStartCamera::The
result of start thread is: 1 micOn:0
[009:529] [2025-02-05 14:13:17 +0000.459641][749e] Error([Link]): Set the
pthread name failed with error:34 name:Thread 0x0x773f2b24a0
[009:529] [2025-02-05 14:13:17 +0000.459688][6c2c] AppDeviceManager telnet server
for statistics started......
[009:529] [2025-02-05 14:13:17 +0000.460102][6c2c] CpuOverloadDetect time:229903634
enter.
[009:529] [2025-02-05 14:13:17 +0000.460209][6c2c] CpuOverloadDetect leave. expire
time = 0 ms
[009:529] [2025-02-05 14:13:17 +0000.460234][749f] Error([Link]): Set the
pthread name failed with error:34 name:Thread 0x0x772c3e9780
[009:530] [2025-02-05 14:13:17 +0000.460784][6c2c] AppDeviceMana
GetOpenslVoiceMode before get setting: 1
[009:530] [2025-02-05 14:13:17 +0000.460823][6c2c] AppDeviceMana
GetOpenslVoiceMode after get setting: 1
[009:530] [2025-02-05 14:13:17 +0000.461072][6c2c] AudioManagerAndroid
getProperty:[Link].OUTPUT_SAMPLE_RATE
[009:531] [2025-02-05 14:13:17 +0000.461382][6c2c] AudioManagerAndroid
getProperty:[Link].OUTPUT_FRAMES_PER_BUFFER
[009:531] [2025-02-05 14:13:17 +0000.461645][6c2c] CreatePlatformSpecificObjects:
[009:531] [2025-02-05 14:13:17 +0000.461689][6c2c] audio device use opensle input
and opensl output
[009:531] [2025-02-05 14:13:17 +0000.461715][6c2c] Create OpenSLES output module
with java VM support.
[009:531] [2025-02-05 14:13:17 +0000.461867][6c2c] AudioManagerAndroid
getProperty:[Link].OUTPUT_SAMPLE_RATE
[009:531] [2025-02-05 14:13:17 +0000.462034][6c2c] AudioManagerAndroid
getProperty:[Link].OUTPUT_FRAMES_PER_BUFFER
[009:531] [2025-02-05 14:13:17 +0000.462232][6c2c] Create OpenSLES output module
with buffer num:1
[009:532] [2025-02-05 14:13:17 +0000.462392][6c2c] AudioManagerAndroid
getProperty:[Link].OUTPUT_SAMPLE_RATE
[009:532] [2025-02-05 14:13:17 +0000.462612][6c2c] AudioManagerAndroid
getProperty:[Link].OUTPUT_FRAMES_PER_BUFFER
[009:532] [2025-02-05 14:13:17 +0000.462843][6c2c] Create OpenSLES input module
with java VM support.
[009:532] [2025-02-05 14:13:17 +0000.462905][6c2c] Create OpenSLES input module
with buffer num:1
[009:532] [2025-02-05 14:13:17 +0000.462941][6c2c] Error([Link]): Init the
output and input for audio device template.
[009:532] [2025-02-05 14:13:17 +0000.462967][6c2c] Init the output device.
[009:532] [2025-02-05 14:13:17 +0000.462990][6c2c] Init the opensl input.
[009:532] [2025-02-05 14:13:17 +0000.463017][6c2c] AppDeviceManager get setting
samplerate: 0
[009:533] [2025-02-05 14:13:17 +0000.463417][6c2c] The device model: 2201117ti enum
value: 0
[009:533] [2025-02-05 14:13:17 +0000.464028][6c2c] The device model: 2201117ti enum
value: 0
[009:533] [2025-02-05 14:13:17 +0000.464091][6c2c] Set the sample rate to be:48000
[009:533] [2025-02-05 14:13:17 +0000.464115][6c2c] Enable the recording stereo:0
[009:533] [2025-02-05 14:13:17 +0000.464140][6c2c] Set the playout as stereo:1
[009:533] [2025-02-05 14:13:17 +0000.464186][6c2c] Init the microphone.
[009:534] [2025-02-05 14:13:17 +0000.464752][6c2c] Update the recording sample rate
to be: 48000
[009:534] [2025-02-05 14:13:17 +0000.464808][6c2c] Init the speaker.
[009:534] [2025-02-05 14:13:17 +0000.464846][6c2c] Low latency buffer size:144 low
sample rate:48000
[009:534] [2025-02-05 14:13:17 +0000.465187][6c2c] Using 1 x 10ms for an audio
frame.
[009:538] [2025-02-05 14:13:17 +0000.468862][6c2c] Error(splitting_filter.cc:26):
Splitting filter only support two or three bands now.
[009:538] [2025-02-05 14:13:17 +0000.468979][6c2c] Error(splitting_filter.cc:26):
Splitting filter only support two or three bands now.
[009:538] [2025-02-05 14:13:17 +0000.469035][6c2c] Error(splitting_filter.cc:26):
Splitting filter only support two or three bands now.
[009:543] [2025-02-05 14:13:17 +0000.473618][6c2c] The device model:2201117ti
[009:543] [2025-02-05 14:13:17 +0000.473707][6c2c] speaker output factor:100
defaultFactor: 100
[009:543] [2025-02-05 14:13:17 +0000.473732][6c2c] headset output factor:100
defaultFactor: 100
[009:543] [2025-02-05 14:13:17 +0000.474071][6c2c] AppDeviceManagerStart finished.
[009:543] [2025-02-05 14:13:17 +0000.474109][6c2c] AppDeviceManagerStartMic::mic
status is off
[009:543] [2025-02-05 14:13:17 +0000.474156][6c2c] AppDeviceManagerStartMic update
aec type: 2
[009:543] [2025-02-05 14:13:17 +0000.474188][6c2c] AppDeviceManagerStartMic update
voiceChangeMode: 4
[009:543] [2025-02-05 14:13:17 +0000.474209][6c2c]
AudioDeviceDataHandler::setVoiceChangeMode, mode : 4
[009:543] [2025-02-05 14:13:17 +0000.474237][6c2c]
AudioDeviceDataHandler::StartMicProcess
[009:544] [2025-02-05 14:13:17 +0000.474378][6c2c] Try to start webrtc recording
device.
[009:544] [2025-02-05 14:13:17 +0000.474413][6c2c] StartRecording. threadID:27692
[009:544] [2025-02-05 14:13:17 +0000.474406][74a0] Error([Link]): Set the
pthread name failed with error:34 name:AudioDeviceDataHandler gapProcessThread
[009:544] [2025-02-05 14:13:17 +0000.474461][6c2c] default mode: Set the recording
mode to voice communication to enable HW AEC .
[009:544] [2025-02-05 14:13:17 +0000.474486][6c2c] Set the recording mode before
getSetting: 4
[009:544] [2025-02-05 14:13:17 +0000.474520][6c2c] Set the recording mode after
getSetting: 1
[009:561] [2025-02-05 14:13:17 +0000.491810][6c2c] StartRecording finished.
[009:561] [2025-02-05 14:13:17 +0000.491875][6c2c] audio: start the audio mic
checker timer.
[009:561] [2025-02-05 14:13:17 +0000.492313][6c2c] machine model :redmi
[009:562] [2025-02-05 14:13:17 +0000.492359][6c2c] Support this machine
model :redmi
[009:562] [2025-02-05 14:13:17 +0000.492386][6c2c] global inited! current sdk
version: 07-20-936c45f
[009:896] [2025-02-05 14:13:17 +0000.826673][74a0] Run AGC when audioType = 0
[010:113] [2025-02-05 14:13:18 +0000.43790][6f4a]
Java_com_xiaomi_recordmediaprocess_OpenGlRender_SetCurrentGLContextJni:
[010:113] [2025-02-05 14:13:18 +0000.43931][749b] MediaFilterCamera, recording file
context:0x77c8228a80 input texture:16
[010:113] [2025-02-05 14:13:18 +0000.43985][749b] GLESContext:
[010:113] [2025-02-05 14:13:18 +0000.44032][749b] The result of eglGetDisplay is:
0x1
[010:114] [2025-02-05 14:13:18 +0000.45246][749b] The result of creation:
0x7724ea8080
[010:115] [2025-02-05 14:13:18 +0000.45489][749b] The result of
eglCreatePbufferSurface is: 0x7724ea8180
[010:115] [2025-02-05 14:13:18 +0000.46047][6f4a]
Java_com_xiaomi_recordmediaprocess_OpenGlRender_SetCurrentGLContextJni:
g_eglcontext: 0x77c8228a80 input_texture: 16
[010:396] [2025-02-05 14:13:18 +0000.326992][74a0] haveEnoughProcessedData
[Link]: 0
[011:898] [2025-02-05 14:13:19 +0000.828531][74a0] Run AGC when audioType = 0
[011:898] [2025-02-05 14:13:19 +0000.828754][74a0]
AudioDeviceDataHandler::MixAndSendOutFrame
[012:114] [2025-02-05 14:13:20 +0000.44967][74a0] haveEnoughProcessedData
[Link]: 10
[013:563] [2025-02-05 14:13:21 +0000.494091][7426]
monitorTime:4002totalDuration:3930
[013:828] [2025-02-05 14:13:21 +0000.759011][74a0] haveEnoughProcessedData
[Link]: 0
[013:892] [2025-02-05 14:13:21 +0000.822852][74a1] webrtc device:Handle the data
from samplesPerSec recording sample rate:48000 nSamples:480 nBytesPerSample:#
nChannels:#
[013:892] [2025-02-05 14:13:21 +0000.823071][74a1] _deviceSampleRate:48000
[013:896] [2025-02-05 14:13:21 +0000.826903][74a0] Run AGC when audioType = 0
[015:554] [2025-02-05 14:13:23 +0000.484327][74a0] haveEnoughProcessedData
[Link]: 0
[015:894] [2025-02-05 14:13:23 +0000.824574][74a0] Run AGC when audioType = 0
[015:894] [2025-02-05 14:13:23 +0000.824725][74a0]
AudioDeviceDataHandler::MixAndSendOutFrame
[016:191] [2025-02-05 14:13:24 +0000.121800][6c2c]
Java_com_xiaomi_recordmediaprocess_MediaEffectCamera_DestructMediaEffectCameraJni:
[016:191] [2025-02-05 14:13:24 +0000.122010][6c2c] ~MediaFilterCamera
time:229910296 enter.
[016:193] [2025-02-05 14:13:24 +0000.123401][6c2c] StopPullFrameAndWriteMp4
time:229910298 enter.
[016:194] [2025-02-05 14:13:24 +0000.124564][749a] stop recording
[016:194] [2025-02-05 14:13:24 +0000.124775][749a] we have stopped recording before
[016:194] [2025-02-05 14:13:24 +0000.125009][6c2c] StopPullFrameAndWriteMp4 leave.
expire time = 1 ms
[016:195] [2025-02-05 14:13:24 +0000.125878][6c2c] DestroyPipelineAndFilters
time:229910300 enter.
[016:195] [2025-02-05 14:13:24 +0000.125966][6c2c] DestroyPipelineAndFilters
leave. expire time = 0 ms
[016:195] [2025-02-05 14:13:24 +0000.125997][6c2c] AppDeviceManagerStopMic
[016:195] [2025-02-05 14:13:24 +0000.126060][6c2c] AppDeviceManagerStopMic::mic
status is on
[016:195] [2025-02-05 14:13:24 +0000.126084][6c2c] Try to stop webrtc device.
[016:195] [2025-02-05 14:13:24 +0000.126115][6c2c] Set record state to
[Link]
[016:230] [2025-02-05 14:13:24 +0000.161159][6c2c] Try to destory the
[Link]
[016:431] [2025-02-05 14:13:24 +0000.361438][6c2c] DestroyAudioRecorder:
[016:431] [2025-02-05 14:13:24 +0000.361654][6c2c] Cleanup the buffer queue in the
recorder.
[016:431] [2025-02-05 14:13:24 +0000.361688][6c2c] Destroy the recorder.
[016:438] [2025-02-05 14:13:24 +0000.368520][6c2c] StopRecording finished.
[016:438] [2025-02-05 14:13:24 +0000.368761][6c2c] The stop recording success.
[016:438] [2025-02-05 14:13:24 +0000.368800][6c2c]
AudioDeviceDataHandler::StopMicProcess
[016:439] [2025-02-05 14:13:24 +0000.370303][6c2c] AppDeviceManager stop.
[016:440] [2025-02-05 14:13:24 +0000.370411][6c2c] Rlease the webrtc device object.
[016:440] [2025-02-05 14:13:24 +0000.370797][6c2c] OpenSlesInput destruct.
[016:440] [2025-02-05 14:13:24 +0000.370887][6c2c] OpenSlesOutput destruct.
[016:441] [2025-02-05 14:13:24 +0000.372031][6c2c] EventDispatchServerScope
destruct
[016:441] [2025-02-05 14:13:24 +0000.372127][6c2c]
Warning([Link]): PhysicalSocketServer destruct
[016:441] [2025-02-05 14:13:24 +0000.372198][6c2c] ~AudioDeviceDataHandler
[016:442] [2025-02-05 14:13:24 +0000.372917][6c2c] AppDeviceManagerDestruct.
[016:442] [2025-02-05 14:13:24 +0000.373029][6c2c] ~AppDeviceManager:
[016:442] [2025-02-05 14:13:24 +0000.373099][6c2c] ~CpuOverloadDetect
time:229910547 enter.
[016:443] [2025-02-05 14:13:24 +0000.373569][6c2c] ~CpuOverloadDetect leave.
expire time = 1 ms
[016:446] [2025-02-05 14:13:24 +0000.376500][6c2c] Destruct BeautifyReader begin...
[016:446] [2025-02-05 14:13:24 +0000.376642][6c2c] Destruct BeautifyReader done.
[016:446] [2025-02-05 14:13:24 +0000.376687][6c2c] ~MediaFilterCamera leave.
expire time = 255 ms
[016:446] [2025-02-05 14:13:24 +0000.376885][6c2c] ~GLESContext:
[016:448] [2025-02-05 14:13:24 +0000.378546][6c2c] GLESContext destruct finish.
[016:448] [2025-02-05 14:13:24 +0000.378947][6c2c] ~RecordingSessionInternalSimple:
RecordingSessionInternalSimple::~RecordingSessionInternalSimple
[016:449] [2025-02-05 14:13:24 +0000.379358][6c2c] global uninited!
[016:449] [2025-02-05 14:13:24 +0000.379740][6c2c] clear AppID 50011
[016:449] [2025-02-05 14:13:24 +0000.379773][6c2c] UnRegister JVM for Xplatform
util
[016:449] [2025-02-05 14:13:24 +0000.379851][6c2c] Dispose::unregister webrtc video
engine
[016:449] [2025-02-05 14:13:24 +0000.379876][6c2c] Init the android object with
jvm:0x0 env:0x0 context:0x0
[016:449] [2025-02-05 14:13:24 +0000.379906][6c2c] SetAndroidMediaCodecObjects
time:229910554 enter.
[016:449] [2025-02-05 14:13:24 +0000.379931][6c2c] ClearAndroidMediaCodecObjects
time:229910554 enter.
[016:449] [2025-02-05 14:13:24 +0000.379960][6c2c] ClearAndroidMediaCodecObjects
leave. expire time = 0 ms
[016:449] [2025-02-05 14:13:24 +0000.379984][6c2c] SetAndroidMediaCodecObjects
leave. expire time = 0 ms
[016:449] [2025-02-05 14:13:24 +0000.380007][6c2c] SetAndroidMediaCodecObjects
time:229910554 enter.
[016:449] [2025-02-05 14:13:24 +0000.380031][6c2c] SetAndroidMediaCodecObjects:
SetAndroidMediaCodecObjects:: jvm :0x0
[016:449] [2025-02-05 14:13:24 +0000.380055][6c2c] ClearAndroidMediaCodecObjects
time:229910554 enter.
[016:449] [2025-02-05 14:13:24 +0000.380079][6c2c] ClearAndroidMediaCodecObjects
leave. expire time = 0 ms
[016:449] [2025-02-05 14:13:24 +0000.380102][6c2c] SetAndroidMediaCodecObjects:
SetAndroidMediaCodecObjects failed
[016:449] [2025-02-05 14:13:24 +0000.380150][6c2c] SetAndroidMediaCodecObjects
leave. expire time = 0 ms
[016:449] [2025-02-05 14:13:24 +0000.380174][6c2c] Dispose::unregister webrtc voice
engine
[016:449] [2025-02-05 14:13:24 +0000.380197][6c2c] Set the android objects with
jvm:0x0 env:0x0 context:0x0
[016:449] [2025-02-05 14:13:24 +0000.380222][6c2c] SystemUtil UnInit done
[021:489] [2025-02-05 14:13:29 +0000.419795][6c2c] Register JVM for xplatform util
[021:494] [2025-02-05 14:13:29 +0000.425061][6c2c] Log to
file:/storage/emulated/0/voip-data/[Link]/[Link] start time:2025-02-
05 14:13:29 +0000
[021:494] [2025-02-05 14:13:29 +0000.425170][6c2c] set AppID=50011 old AppID=-1
[021:494] [2025-02-05 14:13:29 +0000.425198][6c2c] Init the android object with
jvm:0xb4000077dbc21380 env:0x77cc41b080 context:0x77620d3288
[021:494] [2025-02-05 14:13:29 +0000.425227][6c2c] SetAndroidMediaCodecObjects
time:229915599 enter.
[021:494] [2025-02-05 14:13:29 +0000.425258][6c2c] SetAndroidMediaCodecObjects
leave. expire time = 0 ms
[021:494] [2025-02-05 14:13:29 +0000.425305][6c2c] SetAndroidMediaCodecObjects
time:229915599 enter.
[021:495] [2025-02-05 14:13:29 +0000.425528][6c2c] SetAndroidMediaCodecObjects:
SetAndroidMediaCodecObjects:: jvm :0xb4000077dbc21380
[021:495] [2025-02-05 14:13:29 +0000.425555][6c2c] SetAndroidMediaCodecObjects:
SetAndroidMediaCodecObjects success g_jvm_:0xb4000077dbc21380 address:0x771b1b4760
[021:495] [2025-02-05 14:13:29 +0000.425619][6c2c] SetAndroidMediaCodecObjects:
SetAndroidMediaCodecObjects success g_jvm_encoder_:0xb4000077dbc21380
address:0x771b1b4760
[021:495] [2025-02-05 14:13:29 +0000.425643][6c2c] SetAndroidMediaCodecObjects
leave. expire time = 1 ms
[021:495] [2025-02-05 14:13:29 +0000.425668][6c2c] Set the android objects with
jvm:0xb4000077dbc21380 env:0x77cc41b080 context:0x77620d3288
[021:495] [2025-02-05 14:13:29 +0000.425694][6c2c] audio jni debug :manager
SetAndroidAudioDeviceObjects env:0x77cc41b080
[021:495] [2025-02-05 14:13:29 +0000.425722][6c2c] SystemUtil Init done
[021:495] [2025-02-05 14:13:29 +0000.426042][6c2c]
Java_com_xiaomi_recordmediaprocess_MediaEffectCamera_ConstructMediaEffectCameraJni:
[021:495] [2025-02-05 14:13:29 +0000.426160][6c2c] MediaFilterCamera
[021:495] [2025-02-05 14:13:29 +0000.426212][6c2c] RecordingSessionInternalSimple:
Create session internal:720 X 1280 fps:30
[021:496] [2025-02-05 14:13:29 +0000.426360][6c2c] createSessionInternal: create
session with video size:720 X 1280 fps:30 bitrate:31457280
[021:496] [2025-02-05 14:13:29 +0000.426407][6c2c] Recording session using default
bitrate support by app:31457280
[021:496] [2025-02-05 14:13:29 +0000.426496][74f4] Error([Link]): Set the
pthread name failed with error:34 name:Thread 0x0x773f0ccdc0
[021:496] [2025-02-05 14:13:29 +0000.426562][74f4] setAudioChannelCount_w:
RecordingSessionInternalSimple:set the audio channel count:2
[021:496] [2025-02-05 14:13:29 +0000.426667][6c2c] setAudioSampleRate:
RecordingSessionInternalSimple:set the audio bitrate:44100
[021:500] [2025-02-05 14:13:29 +0000.431110][6c2c] Error([Link]): Open the file
failed. error:2
[021:500] [2025-02-05 14:13:29 +0000.431225][6c2c]
Error(key_value_pair_store.cc:130): load the data failed from: voip_config.ini
[021:500] [2025-02-05 14:13:29 +0000.431258][6c2c] The device model: 2201117ti
usingSoftwareAEC value: 0
[021:504] [2025-02-05 14:13:29 +0000.434882][6c2c] Error([Link]): Open the file
failed. error:2
[021:504] [2025-02-05 14:13:29 +0000.434986][6c2c]
Error(key_value_pair_store.cc:130): load the data failed from:
/storage/emulated/0/voip-data/[Link]/voip_config.ini
[021:504] [2025-02-05 14:13:29 +0000.435019][6c2c] The device model: 2201117ti
usingHardwareAEC value: 0
[021:504] [2025-02-05 14:13:29 +0000.435047][6c2c] The machine device: 2201117ti
usingHardwareAEC value: 0
[021:504] [2025-02-05 14:13:29 +0000.435071][6c2c] Using Default AEC type: software
AEC
[021:505] [2025-02-05 14:13:29 +0000.436117][6c2c] The device model: 2201117ti enum
value: 0
[021:506] [2025-02-05 14:13:29 +0000.436770][6c2c] GetMachineModel is 2201117TI
[021:506] [2025-02-05 14:13:29 +0000.436833][6c2c] GetMachineInfo: 2201117TI
[021:506] [2025-02-05 14:13:29 +0000.436858][6c2c] Construct BeautifyReader
begin...
[021:506] [2025-02-05 14:13:29 +0000.436882][6c2c] dumpStickerRgba:0
dumpStickerYuv:0
[021:506] [2025-02-05 14:13:29 +0000.436904][6c2c] Construct BeautifyReader done.
[021:509] [2025-02-05 14:13:29 +0000.439329][6c2c] AppDeviceManagerStartCamera::The
result of start thread is: 1 micOn:0
[021:509] [2025-02-05 14:13:29 +0000.439366][74f8] Error([Link]): Set the
pthread name failed with error:34 name:Thread 0x0x772c2c29a0
[021:509] [2025-02-05 14:13:29 +0000.439405][6c2c] AppDeviceManager telnet server
for statistics started......
[021:509] [2025-02-05 14:13:29 +0000.439812][6c2c] CpuOverloadDetect time:229915614
enter.
[021:509] [2025-02-05 14:13:29 +0000.439920][6c2c] CpuOverloadDetect leave. expire
time = 0 ms
[021:509] [2025-02-05 14:13:29 +0000.439945][74f9] Error([Link]): Set the
pthread name failed with error:34 name:Thread 0x0x772c3e4e00
[021:510] [2025-02-05 14:13:29 +0000.440477][6c2c] AppDeviceMana
GetOpenslVoiceMode before get setting: 1
[021:510] [2025-02-05 14:13:29 +0000.440513][6c2c] AppDeviceMana
GetOpenslVoiceMode after get setting: 1
[021:510] [2025-02-05 14:13:29 +0000.440727][6c2c] AudioManagerAndroid
getProperty:[Link].OUTPUT_SAMPLE_RATE
[021:510] [2025-02-05 14:13:29 +0000.441017][6c2c] AudioManagerAndroid
getProperty:[Link].OUTPUT_FRAMES_PER_BUFFER
[021:510] [2025-02-05 14:13:29 +0000.441261][6c2c] CreatePlatformSpecificObjects:
[021:511] [2025-02-05 14:13:29 +0000.441341][6c2c] audio device use opensle input
and opensl output
[021:511] [2025-02-05 14:13:29 +0000.441368][6c2c] Create OpenSLES output module
with java VM support.
[021:511] [2025-02-05 14:13:29 +0000.441530][6c2c] AudioManagerAndroid
getProperty:[Link].OUTPUT_SAMPLE_RATE
[021:511] [2025-02-05 14:13:29 +0000.441721][6c2c] AudioManagerAndroid
getProperty:[Link].OUTPUT_FRAMES_PER_BUFFER
[021:511] [2025-02-05 14:13:29 +0000.441917][6c2c] Create OpenSLES output module
with buffer num:1
[021:511] [2025-02-05 14:13:29 +0000.442078][6c2c] AudioManagerAndroid
getProperty:[Link].OUTPUT_SAMPLE_RATE
[021:511] [2025-02-05 14:13:29 +0000.442225][6c2c] AudioManagerAndroid
getProperty:[Link].OUTPUT_FRAMES_PER_BUFFER
[021:512] [2025-02-05 14:13:29 +0000.442421][6c2c] Create OpenSLES input module
with java VM support.
[021:512] [2025-02-05 14:13:29 +0000.442468][6c2c] Create OpenSLES input module
with buffer num:1
[021:512] [2025-02-05 14:13:29 +0000.442502][6c2c] Error([Link]): Init the
output and input for audio device template.
[021:512] [2025-02-05 14:13:29 +0000.442542][6c2c] Init the output device.
[021:512] [2025-02-05 14:13:29 +0000.442566][6c2c] Init the opensl input.
[021:512] [2025-02-05 14:13:29 +0000.442610][6c2c] AppDeviceManager get setting
samplerate: 0
[021:512] [2025-02-05 14:13:29 +0000.443094][6c2c] The device model: 2201117ti enum
value: 0
[021:513] [2025-02-05 14:13:29 +0000.443640][6c2c] The device model: 2201117ti enum
value: 0
[021:513] [2025-02-05 14:13:29 +0000.443699][6c2c] Set the sample rate to be:48000
[021:513] [2025-02-05 14:13:29 +0000.443726][6c2c] Enable the recording stereo:0
[021:513] [2025-02-05 14:13:29 +0000.443749][6c2c] Set the playout as stereo:1
[021:513] [2025-02-05 14:13:29 +0000.443789][6c2c] Init the microphone.
[021:513] [2025-02-05 14:13:29 +0000.444088][6c2c] Update the recording sample rate
to be: 48000
[021:513] [2025-02-05 14:13:29 +0000.444127][6c2c] Init the speaker.
[021:513] [2025-02-05 14:13:29 +0000.444157][6c2c] Low latency buffer size:144 low
sample rate:48000
[021:514] [2025-02-05 14:13:29 +0000.444437][6c2c] Using 1 x 10ms for an audio
frame.
[021:517] [2025-02-05 14:13:29 +0000.447974][6c2c] Error(splitting_filter.cc:26):
Splitting filter only support two or three bands now.
[021:517] [2025-02-05 14:13:29 +0000.448111][6c2c] Error(splitting_filter.cc:26):
Splitting filter only support two or three bands now.
[021:517] [2025-02-05 14:13:29 +0000.448158][6c2c] Error(splitting_filter.cc:26):
Splitting filter only support two or three bands now.
[021:522] [2025-02-05 14:13:29 +0000.452590][6c2c] The device model:2201117ti
[021:522] [2025-02-05 14:13:29 +0000.452688][6c2c] speaker output factor:100
defaultFactor: 100
[021:522] [2025-02-05 14:13:29 +0000.452714][6c2c] headset output factor:100
defaultFactor: 100
[021:522] [2025-02-05 14:13:29 +0000.453058][6c2c] AppDeviceManagerStart finished.
[021:522] [2025-02-05 14:13:29 +0000.453094][6c2c] AppDeviceManagerStartMic::mic
status is off
[021:522] [2025-02-05 14:13:29 +0000.453150][6c2c] AppDeviceManagerStartMic update
aec type: 2
[021:522] [2025-02-05 14:13:29 +0000.453182][6c2c] AppDeviceManagerStartMic update
voiceChangeMode: 4
[021:522] [2025-02-05 14:13:29 +0000.453217][6c2c]
AudioDeviceDataHandler::setVoiceChangeMode, mode : 4
[021:522] [2025-02-05 14:13:29 +0000.453250][6c2c]
AudioDeviceDataHandler::StartMicProcess
[021:523] [2025-02-05 14:13:29 +0000.453436][6c2c] Try to start webrtc recording
device.
[021:523] [2025-02-05 14:13:29 +0000.453480][6c2c] StartRecording. threadID:27692
[021:523] [2025-02-05 14:13:29 +0000.453464][74fa] Error([Link]): Set the
pthread name failed with error:34 name:AudioDeviceDataHandler gapProcessThread
[021:523] [2025-02-05 14:13:29 +0000.453536][6c2c] default mode: Set the recording
mode to voice communication to enable HW AEC .
[021:523] [2025-02-05 14:13:29 +0000.453573][6c2c] Set the recording mode before
getSetting: 4
[021:523] [2025-02-05 14:13:29 +0000.453598][6c2c] Set the recording mode after
getSetting: 1
[021:539] [2025-02-05 14:13:29 +0000.469820][6c2c] StartRecording finished.
[021:539] [2025-02-05 14:13:29 +0000.469887][6c2c] audio: start the audio mic
checker timer.
[021:540] [2025-02-05 14:13:29 +0000.470358][6c2c] machine model :redmi
[021:540] [2025-02-05 14:13:29 +0000.470414][6c2c] Support this machine
model :redmi
[021:540] [2025-02-05 14:13:29 +0000.470459][6c2c] global inited! current sdk
version: 07-20-936c45f
[022:090] [2025-02-05 14:13:30 +0000.21158][6f4a]
Java_com_xiaomi_recordmediaprocess_OpenGlRender_SetCurrentGLContextJni:
[022:091] [2025-02-05 14:13:30 +0000.21868][74f5] MediaFilterCamera, recording file
context:0x77c8228a80 input texture:18
[022:091] [2025-02-05 14:13:30 +0000.21944][74f5] GLESContext:
[022:091] [2025-02-05 14:13:30 +0000.21990][74f5] The result of eglGetDisplay is:
0x1
[022:092] [2025-02-05 14:13:30 +0000.23171][74f5] The result of creation:
0x7724ea8300
[022:093] [2025-02-05 14:13:30 +0000.23346][74f5] The result of
eglCreatePbufferSurface is: 0x7724ea8400
[022:093] [2025-02-05 14:13:30 +0000.23500][6f4a]
Java_com_xiaomi_recordmediaprocess_OpenGlRender_SetCurrentGLContextJni:
g_eglcontext: 0x77c8228a80 input_texture: 18
[022:441] [2025-02-05 14:13:30 +0000.372143][74fa] haveEnoughProcessedData
[Link]: 0
[023:312] [2025-02-05 14:13:31 +0000.242532][74fa] Run AGC when audioType = 0
[024:151] [2025-02-05 14:13:32 +0000.81847][74fa] haveEnoughProcessedData
[Link]: 0
[025:312] [2025-02-05 14:13:33 +0000.242804][74fa] Run AGC when audioType = 0
[025:312] [2025-02-05 14:13:33 +0000.242920][74fa]
AudioDeviceDataHandler::MixAndSendOutFrame
[025:544] [2025-02-05 14:13:33 +0000.474928][7426]
monitorTime:4005totalDuration:3930
[025:862] [2025-02-05 14:13:33 +0000.793090][74fa] haveEnoughProcessedData
[Link]: 10
[027:310] [2025-02-05 14:13:35 +0000.240735][74fa] Run AGC when audioType = 0
[027:577] [2025-02-05 14:13:35 +0000.507497][74fa] haveEnoughProcessedData
[Link]: 0
[029:289] [2025-02-05 14:13:37 +0000.219614][74fa] haveEnoughProcessedData
[Link]: 0
[029:309] [2025-02-05 14:13:37 +0000.239745][74fb] webrtc device:Handle the data
from samplesPerSec recording sample rate:48000 nSamples:480 nBytesPerSample:#
nChannels:#
[029:309] [2025-02-05 14:13:37 +0000.239925][74fb] _deviceSampleRate:48000
[029:310] [2025-02-05 14:13:37 +0000.240399][74fa] Run AGC when audioType = 0
[029:310] [2025-02-05 14:13:37 +0000.240512][74fa]
AudioDeviceDataHandler::MixAndSendOutFrame
[031:012] [2025-02-05 14:13:38 +0000.942991][74fa] haveEnoughProcessedData
[Link]: 0
[031:312] [2025-02-05 14:13:39 +0000.243286][74fa] Run AGC when audioType = 0
[032:726] [2025-02-05 14:13:40 +0000.656406][74fa] haveEnoughProcessedData
[Link]: 0
[033:313] [2025-02-05 14:13:41 +0000.243750][74fa] Run AGC when audioType = 0
[033:313] [2025-02-05 14:13:41 +0000.243915][74fa]
AudioDeviceDataHandler::MixAndSendOutFrame
[034:446] [2025-02-05 14:13:42 +0000.376673][74fa] haveEnoughProcessedData
[Link]: 0
[035:313] [2025-02-05 14:13:43 +0000.244218][74fa] Run AGC when audioType = 0
[036:171] [2025-02-05 14:13:44 +0000.102215][74fa] haveEnoughProcessedData
[Link]: 10
[036:976] [2025-02-05 14:13:44 +0000.907229][6c2c]
Java_com_xiaomi_recordmediaprocess_MediaEffectCamera_DestructMediaEffectCameraJni:
[036:977] [2025-02-05 14:13:44 +0000.907381][6c2c] ~MediaFilterCamera
time:229931082 enter.
[036:977] [2025-02-05 14:13:44 +0000.907435][6c2c] StopPullFrameAndWriteMp4
time:229931082 enter.
[036:977] [2025-02-05 14:13:44 +0000.907721][74f4] stop recording
[036:977] [2025-02-05 14:13:44 +0000.907770][74f4] we have stopped recording before
[036:977] [2025-02-05 14:13:44 +0000.907823][6c2c] StopPullFrameAndWriteMp4 leave.
expire time = 0 ms
[036:977] [2025-02-05 14:13:44 +0000.908204][6c2c] DestroyPipelineAndFilters
time:229931082 enter.
[036:977] [2025-02-05 14:13:44 +0000.908245][6c2c] DestroyPipelineAndFilters
leave. expire time = 0 ms
[036:977] [2025-02-05 14:13:44 +0000.908270][6c2c] AppDeviceManagerStopMic
[036:978] [2025-02-05 14:13:44 +0000.908316][6c2c] AppDeviceManagerStopMic::mic
status is on
[036:978] [2025-02-05 14:13:44 +0000.908347][6c2c] Try to stop webrtc device.
[036:978] [2025-02-05 14:13:44 +0000.908383][6c2c] Set record state to
[Link]
[037:020] [2025-02-05 14:13:44 +0000.950965][6c2c] Try to destory the
[Link]
[037:220] [2025-02-05 14:13:45 +0000.151266][6c2c] DestroyAudioRecorder:
[037:221] [2025-02-05 14:13:45 +0000.151746][6c2c] Cleanup the buffer queue in the
recorder.
[037:221] [2025-02-05 14:13:45 +0000.151838][6c2c] Destroy the recorder.
[037:227] [2025-02-05 14:13:45 +0000.157972][6c2c] StopRecording finished.
[037:227] [2025-02-05 14:13:45 +0000.158133][6c2c] The stop recording success.
[037:227] [2025-02-05 14:13:45 +0000.158171][6c2c]
AudioDeviceDataHandler::StopMicProcess
[037:232] [2025-02-05 14:13:45 +0000.163018][6c2c] AppDeviceManager stop.
[037:232] [2025-02-05 14:13:45 +0000.163181][6c2c] Rlease the webrtc device object.
[037:233] [2025-02-05 14:13:45 +0000.163551][6c2c] OpenSlesInput destruct.
[037:233] [2025-02-05 14:13:45 +0000.163690][6c2c] OpenSlesOutput destruct.
[037:234] [2025-02-05 14:13:45 +0000.164585][6c2c] EventDispatchServerScope
destruct
[037:234] [2025-02-05 14:13:45 +0000.164844][6c2c]
Warning([Link]): PhysicalSocketServer destruct
[037:234] [2025-02-05 14:13:45 +0000.165069][6c2c] ~AudioDeviceDataHandler
[037:236] [2025-02-05 14:13:45 +0000.166582][6c2c] AppDeviceManagerDestruct.
[037:236] [2025-02-05 14:13:45 +0000.166758][6c2c] ~AppDeviceManager:
[037:236] [2025-02-05 14:13:45 +0000.166906][6c2c] ~CpuOverloadDetect
time:229931341 enter.
[037:237] [2025-02-05 14:13:45 +0000.167707][6c2c] ~CpuOverloadDetect leave.
expire time = 1 ms
[037:240] [2025-02-05 14:13:45 +0000.171159][6c2c] Destruct BeautifyReader begin...
[037:240] [2025-02-05 14:13:45 +0000.171304][6c2c] Destruct BeautifyReader done.
[037:241] [2025-02-05 14:13:45 +0000.171357][6c2c] ~MediaFilterCamera leave.
expire time = 264 ms
[037:241] [2025-02-05 14:13:45 +0000.171576][6c2c] ~GLESContext:
[037:242] [2025-02-05 14:13:45 +0000.172626][6c2c] GLESContext destruct finish.
[037:242] [2025-02-05 14:13:45 +0000.172696][6c2c] ~RecordingSessionInternalSimple:
RecordingSessionInternalSimple::~RecordingSessionInternalSimple
[037:243] [2025-02-05 14:13:45 +0000.173681][6c2c] global uninited!
[037:243] [2025-02-05 14:13:45 +0000.174019][6c2c] clear AppID 50011
[037:243] [2025-02-05 14:13:45 +0000.174068][6c2c] UnRegister JVM for Xplatform
util
[037:243] [2025-02-05 14:13:45 +0000.174096][6c2c] Dispose::unregister webrtc video
engine
[037:243] [2025-02-05 14:13:45 +0000.174131][6c2c] Init the android object with
jvm:0x0 env:0x0 context:0x0
[037:243] [2025-02-05 14:13:45 +0000.174177][6c2c] SetAndroidMediaCodecObjects
time:229931348 enter.
[037:243] [2025-02-05 14:13:45 +0000.174250][6c2c] ClearAndroidMediaCodecObjects
time:229931348 enter.
[037:243] [2025-02-05 14:13:45 +0000.174289][6c2c] ClearAndroidMediaCodecObjects
leave. expire time = 0 ms
[037:244] [2025-02-05 14:13:45 +0000.174336][6c2c] SetAndroidMediaCodecObjects
leave. expire time = 1 ms
[037:244] [2025-02-05 14:13:45 +0000.174360][6c2c] SetAndroidMediaCodecObjects
time:229931349 enter.
[037:244] [2025-02-05 14:13:45 +0000.174396][6c2c] SetAndroidMediaCodecObjects:
SetAndroidMediaCodecObjects:: jvm :0x0
[037:244] [2025-02-05 14:13:45 +0000.174447][6c2c] ClearAndroidMediaCodecObjects
time:229931349 enter.
[037:244] [2025-02-05 14:13:45 +0000.174494][6c2c] ClearAndroidMediaCodecObjects
leave. expire time = 0 ms
[037:244] [2025-02-05 14:13:45 +0000.174517][6c2c] SetAndroidMediaCodecObjects:
SetAndroidMediaCodecObjects failed
[037:244] [2025-02-05 14:13:45 +0000.174567][6c2c] SetAndroidMediaCodecObjects
leave. expire time = 0 ms
[037:244] [2025-02-05 14:13:45 +0000.174592][6c2c] Dispose::unregister webrtc voice
engine
[037:244] [2025-02-05 14:13:45 +0000.174626][6c2c] Set the android objects with
jvm:0x0 env:0x0 context:0x0
[037:244] [2025-02-05 14:13:45 +0000.174670][6c2c] SystemUtil UnInit done
[038:247] [2025-02-05 14:13:46 +0000.177602][6c2c] Register JVM for xplatform util
[038:251] [2025-02-05 14:13:46 +0000.181749][6c2c] Log to
file:/storage/emulated/0/voip-data/[Link]/[Link] start time:2025-02-
05 14:13:46 +0000
[038:251] [2025-02-05 14:13:46 +0000.181833][6c2c] set AppID=50011 old AppID=-1
[038:251] [2025-02-05 14:13:46 +0000.181862][6c2c] Init the android object with
jvm:0xb4000077dbc21380 env:0x77cc41b080 context:0x77620d3288
[038:251] [2025-02-05 14:13:46 +0000.181891][6c2c] SetAndroidMediaCodecObjects
time:229932356 enter.
[038:251] [2025-02-05 14:13:46 +0000.181922][6c2c] SetAndroidMediaCodecObjects
leave. expire time = 0 ms
[038:251] [2025-02-05 14:13:46 +0000.181962][6c2c] SetAndroidMediaCodecObjects
time:229932356 enter.
[038:251] [2025-02-05 14:13:46 +0000.181985][6c2c] SetAndroidMediaCodecObjects:
SetAndroidMediaCodecObjects:: jvm :0xb4000077dbc21380
[038:251] [2025-02-05 14:13:46 +0000.182016][6c2c] SetAndroidMediaCodecObjects:
SetAndroidMediaCodecObjects success g_jvm_:0xb4000077dbc21380 address:0x771b1b4760
[038:251] [2025-02-05 14:13:46 +0000.182040][6c2c] SetAndroidMediaCodecObjects:
SetAndroidMediaCodecObjects success g_jvm_encoder_:0xb4000077dbc21380
address:0x771b1b4760
[038:251] [2025-02-05 14:13:46 +0000.182072][6c2c] SetAndroidMediaCodecObjects
leave. expire time = 0 ms
[038:251] [2025-02-05 14:13:46 +0000.182096][6c2c] Set the android objects with
jvm:0xb4000077dbc21380 env:0x77cc41b080 context:0x77620d3288
[038:251] [2025-02-05 14:13:46 +0000.182130][6c2c] audio jni debug :manager
SetAndroidAudioDeviceObjects env:0x77cc41b080
[038:251] [2025-02-05 14:13:46 +0000.182175][6c2c] SystemUtil Init done
[038:252] [2025-02-05 14:13:46 +0000.182427][6c2c]
Java_com_xiaomi_recordmediaprocess_MediaEffectCamera_ConstructMediaEffectCameraJni:
[038:252] [2025-02-05 14:13:46 +0000.182856][6c2c] MediaFilterCamera
[038:252] [2025-02-05 14:13:46 +0000.182908][6c2c] RecordingSessionInternalSimple:
Create session internal:720 X 1280 fps:30
[038:252] [2025-02-05 14:13:46 +0000.183033][6c2c] createSessionInternal: create
session with video size:720 X 1280 fps:30 bitrate:31457280
[038:252] [2025-02-05 14:13:46 +0000.183078][6c2c] Recording session using default
bitrate support by app:31457280
[038:252] [2025-02-05 14:13:46 +0000.183072][7648] Error([Link]): Set the
pthread name failed with error:34 name:Thread 0x0x773f0ccdc0
[038:253] [2025-02-05 14:13:46 +0000.183317][7648] setAudioChannelCount_w:
RecordingSessionInternalSimple:set the audio channel count:2
[038:253] [2025-02-05 14:13:46 +0000.183449][6c2c] setAudioSampleRate:
RecordingSessionInternalSimple:set the audio bitrate:44100
[038:253] [2025-02-05 14:13:46 +0000.184266][6c2c] Error([Link]): Open the file
failed. error:2
[038:254] [2025-02-05 14:13:46 +0000.184338][6c2c]
Error(key_value_pair_store.cc:130): load the data failed from: voip_config.ini
[038:254] [2025-02-05 14:13:46 +0000.184369][6c2c] The device model: 2201117ti
usingSoftwareAEC value: 0
[038:256] [2025-02-05 14:13:46 +0000.186760][6c2c] Error([Link]): Open the file
failed. error:2
[038:256] [2025-02-05 14:13:46 +0000.186843][6c2c]
Error(key_value_pair_store.cc:130): load the data failed from:
/storage/emulated/0/voip-data/[Link]/voip_config.ini
[038:256] [2025-02-05 14:13:46 +0000.186883][6c2c] The device model: 2201117ti
usingHardwareAEC value: 0
[038:256] [2025-02-05 14:13:46 +0000.186917][6c2c] The machine device: 2201117ti
usingHardwareAEC value: 0
[038:256] [2025-02-05 14:13:46 +0000.186940][6c2c] Using Default AEC type: software
AEC
[038:257] [2025-02-05 14:13:46 +0000.187974][6c2c] The device model: 2201117ti enum
value: 0
[038:258] [2025-02-05 14:13:46 +0000.188573][6c2c] GetMachineModel is 2201117TI
[038:258] [2025-02-05 14:13:46 +0000.188647][6c2c] GetMachineInfo: 2201117TI
[038:258] [2025-02-05 14:13:46 +0000.188680][6c2c] Construct BeautifyReader
begin...
[038:258] [2025-02-05 14:13:46 +0000.188716][6c2c] dumpStickerRgba:0
dumpStickerYuv:0
[038:258] [2025-02-05 14:13:46 +0000.188748][6c2c] Construct BeautifyReader done.
[038:260] [2025-02-05 14:13:46 +0000.191168][6c2c] AppDeviceManagerStartCamera::The
result of start thread is: 1 micOn:0
[038:260] [2025-02-05 14:13:46 +0000.191199][764d] Error([Link]): Set the
pthread name failed with error:34 name:Thread 0x0x773f2b47a0
[038:260] [2025-02-05 14:13:46 +0000.191241][6c2c] AppDeviceManager telnet server
for statistics started......
[038:261] [2025-02-05 14:13:46 +0000.191602][6c2c] CpuOverloadDetect time:229932366
enter.
[038:261] [2025-02-05 14:13:46 +0000.191694][6c2c] CpuOverloadDetect leave. expire
time = 0 ms
[038:261] [2025-02-05 14:13:46 +0000.191720][764e] Error([Link]): Set the
pthread name failed with error:34 name:Thread 0x0x7725502500
[038:261] [2025-02-05 14:13:46 +0000.192258][6c2c] AppDeviceMana
GetOpenslVoiceMode before get setting: 1
[038:261] [2025-02-05 14:13:46 +0000.192296][6c2c] AppDeviceMana
GetOpenslVoiceMode after get setting: 1
[038:262] [2025-02-05 14:13:46 +0000.192507][6c2c] AudioManagerAndroid
getProperty:[Link].OUTPUT_SAMPLE_RATE
[038:262] [2025-02-05 14:13:46 +0000.192731][6c2c] AudioManagerAndroid
getProperty:[Link].OUTPUT_FRAMES_PER_BUFFER
[038:262] [2025-02-05 14:13:46 +0000.192931][6c2c] CreatePlatformSpecificObjects:
[038:262] [2025-02-05 14:13:46 +0000.192969][6c2c] audio device use opensle input
and opensl output
[038:262] [2025-02-05 14:13:46 +0000.193008][6c2c] Create OpenSLES output module
with java VM support.
[038:262] [2025-02-05 14:13:46 +0000.193106][6c2c] AudioManagerAndroid
getProperty:[Link].OUTPUT_SAMPLE_RATE
[038:262] [2025-02-05 14:13:46 +0000.193234][6c2c] AudioManagerAndroid
getProperty:[Link].OUTPUT_FRAMES_PER_BUFFER
[038:263] [2025-02-05 14:13:46 +0000.193424][6c2c] Create OpenSLES output module
with buffer num:1
[038:263] [2025-02-05 14:13:46 +0000.193524][6c2c] AudioManagerAndroid
getProperty:[Link].OUTPUT_SAMPLE_RATE
[038:263] [2025-02-05 14:13:46 +0000.193647][6c2c] AudioManagerAndroid
getProperty:[Link].OUTPUT_FRAMES_PER_BUFFER
[038:263] [2025-02-05 14:13:46 +0000.193792][6c2c] Create OpenSLES input module
with java VM support.
[038:263] [2025-02-05 14:13:46 +0000.193832][6c2c] Create OpenSLES input module
with buffer num:1
[038:263] [2025-02-05 14:13:46 +0000.193876][6c2c] Error([Link]): Init the
output and input for audio device template.
[038:263] [2025-02-05 14:13:46 +0000.193910][6c2c] Init the output device.
[038:263] [2025-02-05 14:13:46 +0000.193933][6c2c] Init the opensl input.
[038:263] [2025-02-05 14:13:46 +0000.193965][6c2c] AppDeviceManager get setting
samplerate: 0
[038:264] [2025-02-05 14:13:46 +0000.194313][6c2c] The device model: 2201117ti enum
value: 0
[038:264] [2025-02-05 14:13:46 +0000.194842][6c2c] The device model: 2201117ti enum
value: 0
[038:264] [2025-02-05 14:13:46 +0000.194878][6c2c] Set the sample rate to be:48000
[038:264] [2025-02-05 14:13:46 +0000.194912][6c2c] Enable the recording stereo:0
[038:264] [2025-02-05 14:13:46 +0000.194934][6c2c] Set the playout as stereo:1
[038:264] [2025-02-05 14:13:46 +0000.194966][6c2c] Init the microphone.
[038:264] [2025-02-05 14:13:46 +0000.195241][6c2c] Update the recording sample rate
to be: 48000
[038:264] [2025-02-05 14:13:46 +0000.195276][6c2c] Init the speaker.
[038:264] [2025-02-05 14:13:46 +0000.195305][6c2c] Low latency buffer size:144 low
sample rate:48000
[038:265] [2025-02-05 14:13:46 +0000.195537][6c2c] Using 1 x 10ms for an audio
frame.
[038:268] [2025-02-05 14:13:46 +0000.198839][6c2c] Error(splitting_filter.cc:26):
Splitting filter only support two or three bands now.
[038:268] [2025-02-05 14:13:46 +0000.199003][6c2c] Error(splitting_filter.cc:26):
Splitting filter only support two or three bands now.
[038:268] [2025-02-05 14:13:46 +0000.199054][6c2c] Error(splitting_filter.cc:26):
Splitting filter only support two or three bands now.
[038:273] [2025-02-05 14:13:46 +0000.203526][6c2c] The device model:2201117ti
[038:273] [2025-02-05 14:13:46 +0000.203615][6c2c] speaker output factor:100
defaultFactor: 100
[038:273] [2025-02-05 14:13:46 +0000.203639][6c2c] headset output factor:100
defaultFactor: 100
[038:273] [2025-02-05 14:13:46 +0000.203968][6c2c] AppDeviceManagerStart finished.
[038:273] [2025-02-05 14:13:46 +0000.204004][6c2c] AppDeviceManagerStartMic::mic
status is off
[038:273] [2025-02-05 14:13:46 +0000.204064][6c2c] AppDeviceManagerStartMic update
aec type: 2
[038:273] [2025-02-05 14:13:46 +0000.204093][6c2c] AppDeviceManagerStartMic update
voiceChangeMode: 4
[038:273] [2025-02-05 14:13:46 +0000.204115][6c2c]
AudioDeviceDataHandler::setVoiceChangeMode, mode : 4
[038:273] [2025-02-05 14:13:46 +0000.204142][6c2c]
AudioDeviceDataHandler::StartMicProcess
[038:273] [2025-02-05 14:13:46 +0000.204272][6c2c] Try to start webrtc recording
device.
[038:273] [2025-02-05 14:13:46 +0000.204306][6c2c] StartRecording. threadID:27692
[038:273] [2025-02-05 14:13:46 +0000.204303][764f] Error([Link]): Set the
pthread name failed with error:34 name:AudioDeviceDataHandler gapProcessThread
[038:274] [2025-02-05 14:13:46 +0000.204364][6c2c] default mode: Set the recording
mode to voice communication to enable HW AEC .
[038:274] [2025-02-05 14:13:46 +0000.204396][6c2c] Set the recording mode before
getSetting: 4
[038:274] [2025-02-05 14:13:46 +0000.204435][6c2c] Set the recording mode after
getSetting: 1
[038:288] [2025-02-05 14:13:46 +0000.219150][6c2c] StartRecording finished.
[038:288] [2025-02-05 14:13:46 +0000.219226][6c2c] audio: start the audio mic
checker timer.
[038:289] [2025-02-05 14:13:46 +0000.219756][6c2c] machine model :redmi
[038:289] [2025-02-05 14:13:46 +0000.219796][6c2c] Support this machine
model :redmi
[038:289] [2025-02-05 14:13:46 +0000.219838][6c2c] global inited! current sdk
version: 07-20-936c45f
[038:689] [2025-02-05 14:13:46 +0000.619358][764f] Run AGC when audioType = 0
[038:689] [2025-02-05 14:13:46 +0000.619458][764f]
AudioDeviceDataHandler::MixAndSendOutFrame
[038:885] [2025-02-05 14:13:46 +0000.816145][6f4a]
Java_com_xiaomi_recordmediaprocess_OpenGlRender_SetCurrentGLContextJni:
[038:885] [2025-02-05 14:13:46 +0000.816307][764a] MediaFilterCamera, recording
file context:0x77c8228a80 input texture:23
[038:886] [2025-02-05 14:13:46 +0000.816365][764a] GLESContext:
[038:886] [2025-02-05 14:13:46 +0000.816408][764a] The result of eglGetDisplay is:
0x1
[038:887] [2025-02-05 14:13:46 +0000.817673][764a] The result of creation:
0x7724ea8680
[038:887] [2025-02-05 14:13:46 +0000.817803][764a] The result of
eglCreatePbufferSurface is: 0x7724ea8780
[038:887] [2025-02-05 14:13:46 +0000.817938][6f4a]
Java_com_xiaomi_recordmediaprocess_OpenGlRender_SetCurrentGLContextJni:
g_eglcontext: 0x77c8228a80 input_texture: 23
[039:037] [2025-02-05 14:13:46 +0000.967646][764f] haveEnoughProcessedData
[Link]: 10
[040:686] [2025-02-05 14:13:48 +0000.616566][7650] webrtc device:Handle the data
from samplesPerSec recording sample rate:48000 nSamples:480 nBytesPerSample:#
nChannels:#
[040:686] [2025-02-05 14:13:48 +0000.616745][7650] _deviceSampleRate:48000
[040:690] [2025-02-05 14:13:48 +0000.620996][764f] Run AGC when audioType = 0
[040:737] [2025-02-05 14:13:48 +0000.667751][764f] haveEnoughProcessedData
[Link]: 0
[042:292] [2025-02-05 14:13:50 +0000.222594][7426]
monitorTime:4004totalDuration:3940
[042:457] [2025-02-05 14:13:50 +0000.387978][764f] haveEnoughProcessedData
[Link]: 10
[042:687] [2025-02-05 14:13:50 +0000.617836][764f] Run AGC when audioType = 0
[042:687] [2025-02-05 14:13:50 +0000.618035][764f]
AudioDeviceDataHandler::MixAndSendOutFrame
[044:169] [2025-02-05 14:13:52 +0000.100266][764f] haveEnoughProcessedData
[Link]: 10
[044:692] [2025-02-05 14:13:52 +0000.622581][764f] Run AGC when audioType = 0
[045:893] [2025-02-05 14:13:53 +0000.823907][764f] haveEnoughProcessedData
[Link]: 0
[046:688] [2025-02-05 14:13:54 +0000.618713][764f] Run AGC when audioType = 0
[046:688] [2025-02-05 14:13:54 +0000.618878][764f]
AudioDeviceDataHandler::MixAndSendOutFrame
[047:609] [2025-02-05 14:13:55 +0000.540252][764f] haveEnoughProcessedData
[Link]: 10
[048:688] [2025-02-05 14:13:56 +0000.619044][764f] Run AGC when audioType = 0
[049:319] [2025-02-05 14:13:57 +0000.249499][764f] haveEnoughProcessedData
[Link]: 0
[050:688] [2025-02-05 14:13:58 +0000.618415][7650] webrtc device:Handle the data
from samplesPerSec recording sample rate:48000 nSamples:480 nBytesPerSample:#
nChannels:#
[050:688] [2025-02-05 14:13:58 +0000.618582][7650] _deviceSampleRate:48000
[050:688] [2025-02-05 14:13:58 +0000.619103][764f] Run AGC when audioType = 0
[050:688] [2025-02-05 14:13:58 +0000.619238][764f]
AudioDeviceDataHandler::MixAndSendOutFrame
[051:030] [2025-02-05 14:13:58 +0000.961031][764f] haveEnoughProcessedData
[Link]: 0
[052:691] [2025-02-05 14:14:00 +0000.621481][764f] Run AGC when audioType = 0
[052:749] [2025-02-05 14:14:00 +0000.679397][764f] haveEnoughProcessedData
[Link]: 0
[054:459] [2025-02-05 14:14:02 +0000.389739][764f] haveEnoughProcessedData
[Link]: 10
[054:691] [2025-02-05 14:14:02 +0000.622038][764f] Run AGC when audioType = 0
[054:691] [2025-02-05 14:14:02 +0000.622219][764f]
AudioDeviceDataHandler::MixAndSendOutFrame
[056:174] [2025-02-05 14:14:04 +0000.104902][764f] haveEnoughProcessedData
[Link]: 0
[056:689] [2025-02-05 14:14:04 +0000.619691][764f] Run AGC when audioType = 0
[057:870] [2025-02-05 14:14:05 +0000.800900][764f] haveEnoughProcessedData
[Link]: 0
[058:688] [2025-02-05 14:14:06 +0000.618615][764f] Run AGC when audioType = 0
[058:688] [2025-02-05 14:14:06 +0000.618875][764f]
AudioDeviceDataHandler::MixAndSendOutFrame
[059:578] [2025-02-05 14:14:07 +0000.509346][764f] haveEnoughProcessedData
[Link]: 0
[060:687] [2025-02-05 14:14:08 +0000.617845][7650] webrtc device:Handle the data
from samplesPerSec recording sample rate:48000 nSamples:480 nBytesPerSample:#
nChannels:#
[060:687] [2025-02-05 14:14:08 +0000.618000][7650] _deviceSampleRate:48000
[060:688] [2025-02-05 14:14:08 +0000.619060][764f] Run AGC when audioType = 0
[061:299] [2025-02-05 14:14:09 +0000.230294][764f] haveEnoughProcessedData
[Link]: 10
[062:689] [2025-02-05 14:14:10 +0000.619573][764f] Run AGC when audioType = 0
[062:689] [2025-02-05 14:14:10 +0000.619698][764f]
AudioDeviceDataHandler::MixAndSendOutFrame
[063:008] [2025-02-05 14:14:10 +0000.938826][764f] haveEnoughProcessedData
[Link]: 0
[064:687] [2025-02-05 14:14:12 +0000.618342][764f] Run AGC when audioType = 0
[064:729] [2025-02-05 14:14:12 +0000.660136][764f] haveEnoughProcessedData
[Link]: 0
[066:440] [2025-02-05 14:14:14 +0000.370405][764f] haveEnoughProcessedData
[Link]: 0
[066:689] [2025-02-05 14:14:14 +0000.619676][764f] Run AGC when audioType = 0
[066:689] [2025-02-05 14:14:14 +0000.619846][764f]
AudioDeviceDataHandler::MixAndSendOutFrame
[068:154] [2025-02-05 14:14:16 +0000.84644][764f] haveEnoughProcessedData
[Link]: 0
[068:691] [2025-02-05 14:14:16 +0000.622275][764f] Run AGC when audioType = 0
[069:860] [2025-02-05 14:14:17 +0000.790699][764f] haveEnoughProcessedData
[Link]: 0
[070:686] [2025-02-05 14:14:18 +0000.616484][7650] webrtc device:Handle the data
from samplesPerSec recording sample rate:48000 nSamples:480 nBytesPerSample:#
nChannels:#
[070:686] [2025-02-05 14:14:18 +0000.616667][7650] _deviceSampleRate:48000
[070:689] [2025-02-05 14:14:18 +0000.619361][764f] Run AGC when audioType = 0
[070:689] [2025-02-05 14:14:18 +0000.619494][764f]
AudioDeviceDataHandler::MixAndSendOutFrame
[071:569] [2025-02-05 14:14:19 +0000.499784][764f] haveEnoughProcessedData
[Link]: 0
[072:690] [2025-02-05 14:14:20 +0000.620551][764f] Run AGC when audioType = 0
[073:290] [2025-02-05 14:14:21 +0000.220373][764f] haveEnoughProcessedData
[Link]: 0
[074:689] [2025-02-05 14:14:22 +0000.620010][764f] Run AGC when audioType = 0
[074:689] [2025-02-05 14:14:22 +0000.620218][764f]
AudioDeviceDataHandler::MixAndSendOutFrame
[075:007] [2025-02-05 14:14:22 +0000.937670][764f] haveEnoughProcessedData
[Link]: 0
[076:686] [2025-02-05 14:14:24 +0000.616740][764f] Run AGC when audioType = 0
[076:706] [2025-02-05 14:14:24 +0000.637298][764f] haveEnoughProcessedData
[Link]: 10
[078:420] [2025-02-05 14:14:26 +0000.350468][764f] haveEnoughProcessedData
[Link]: 0
[078:690] [2025-02-05 14:14:26 +0000.621210][764f] Run AGC when audioType = 0
[078:691] [2025-02-05 14:14:26 +0000.621413][764f]
AudioDeviceDataHandler::MixAndSendOutFrame
[079:211] [2025-02-05 14:14:27 +0000.141626][6be6] SetOrientation:
MediaFilterCamera:: SetOrientation: 90
[079:211] [2025-02-05 14:14:27 +0000.141728][6be6]
Java_com_xiaomi_recordmediaprocess_MediaEffectCamera_SetOrientationJni: media
filter camera orientation: 90
[079:212] [2025-02-05 14:14:27 +0000.142804][6be6]
Java_com_xiaomi_recordmediaprocess_MediaEffectCamera_StartRecordingJni:
[079:212] [2025-02-05 14:14:27 +0000.143033][764a] operator() time:229973317
enter.
[079:212] [2025-02-05 14:14:27 +0000.143107][764a] MediaFilterCamera, recording
file context:0x77c8228a80 input texture:23
[079:214] [2025-02-05 14:14:27 +0000.144587][764a] Reset: volume estimator reset
frequency : 44100 history size(ms): -1
[079:214] [2025-02-05 14:14:27 +0000.144992][764a] Reset: volume estimator reset
frequency : 44100 history size(ms): -1
[079:214] [2025-02-05 14:14:27 +0000.145142][764a] Reset: volume estimator reset
frequency : 44100 history size(ms): -1
[079:215] [2025-02-05 14:14:27 +0000.145482][764a] DeviceInit:
[079:215] [2025-02-05 14:14:27 +0000.146066][764a] AudioManagerAndroid
getProperty:[Link].OUTPUT_SAMPLE_RATE
[079:216] [2025-02-05 14:14:27 +0000.146503][764a] AudioManagerAndroid
getProperty:[Link].OUTPUT_FRAMES_PER_BUFFER
[079:216] [2025-02-05 14:14:27 +0000.146872][764a] CreatePlatformSpecificObjects:
[079:216] [2025-02-05 14:14:27 +0000.146925][764a] audio device use null audio
input and opensl output
[079:216] [2025-02-05 14:14:27 +0000.146957][764a] Create OpenSLES output module
with java VM support.
[079:216] [2025-02-05 14:14:27 +0000.147143][764a] AudioManagerAndroid
getProperty:[Link].OUTPUT_SAMPLE_RATE
[079:217] [2025-02-05 14:14:27 +0000.147313][764a] AudioManagerAndroid
getProperty:[Link].OUTPUT_FRAMES_PER_BUFFER
[079:217] [2025-02-05 14:14:27 +0000.147513][764a] Create OpenSLES output module
with buffer num:2
[079:217] [2025-02-05 14:14:27 +0000.147570][764a] Error([Link]): Init the
output and input for audio device template.
[079:217] [2025-02-05 14:14:27 +0000.147617][764a] Init the output device.
[079:217] [2025-02-05 14:14:27 +0000.147647][764a] Set the playout as stereo:1
[079:217] [2025-02-05 14:14:27 +0000.147677][764a] Set the sample rate to be:44100
[079:217] [2025-02-05 14:14:27 +0000.147731][764a] Low latency buffer size:144 low
sample rate:48000
[079:217] [2025-02-05 14:14:27 +0000.147777][764a] DeviceInit: Done
[079:217] [2025-02-05 14:14:27 +0000.148147][772e] Error([Link]): Set the
pthread name failed with error:34 name:Thread 0x0x7725b34918
[079:217] [2025-02-05 14:14:27 +0000.148249][764a] construct OpenGLRenderProgram
0x77cc4c3798
[079:217] [2025-02-05 14:14:27 +0000.148261][7730] Error([Link]): Set the
pthread name failed with error:34 name:Thread 0x0x77c8168e00
[079:217] [2025-02-05 14:14:27 +0000.148302][764a] CropFilter::SetOrientation
orientation: 90
[079:218] [2025-02-05 14:14:27 +0000.148418][764a] filter: filter pipeline
construtc this: 0x7724eb2b80
[079:218] [2025-02-05 14:14:27 +0000.148455][764a] filter: filter pipeline2 update
pattern: 1
[079:218] [2025-02-05 14:14:27 +0000.148535][764a] CameraSource::source_id_:1
[079:218] [2025-02-05 14:14:27 +0000.148804][764a] SetPlayLoop: AudioSource
SetPlayLoop 0
[079:218] [2025-02-05 14:14:27 +0000.148909][764a] Start decoding file
/data/user/0/[Link]/no_backup/music/local/[Link], sync_mode: 0,
seek_pos: 0, delay: 0, this:0x7724dd1800
[079:218] [2025-02-05 14:14:27 +0000.148966][764a]
Warning(media_filter_camera.cc:621): seekPos:0
[079:218] [2025-02-05 14:14:27 +0000.149061][764a] BindInputFilter 0x7724ea9ec0
this 0x77cc4c39c0
[079:218] [2025-02-05 14:14:27 +0000.149121][764a] BindInputFilter 0x77cc4c39c0
this 0x7724eb2c20
[079:218] [2025-02-05 14:14:27 +0000.149173][764a] setParamentForFilters:
speed:1.000000
[079:218] [2025-02-05 14:14:27 +0000.149201][764a] SetParamForFilter time:229973323
enter.
[079:218] [2025-02-05 14:14:27 +0000.149229][764a] Error(crop_filter.cc:263):
SetParamForFilter: Not found modetype param, using default modetype citytravel!
[079:218] [2025-02-05 14:14:27 +0000.149260][764a] SetParamForFilter: Params video
index is: 0
[079:218] [2025-02-05 14:14:27 +0000.149286][764a] Error(crop_filter.cc:283):
SetParamForFilter: PhotoFilter params, donnot find index
[079:219] [2025-02-05 14:14:27 +0000.149356][764a] Error(crop_filter.cc:291):
SetParamForFilter: PhotoFilter params, donnot find intensity
[079:219] [2025-02-05 14:14:27 +0000.149388][764a] crop filter mode tpye:
citytravelvideo index:0
[079:222] [2025-02-05 14:14:27 +0000.153096][764a]
Warning(parse_template_json.cc:45): json parament no found the parament
[079:222] [2025-02-05 14:14:27 +0000.153178][764a]
Warning(parse_template_json.cc:45): json parament no found the parament
[079:222] [2025-02-05 14:14:27 +0000.153211][764a]
Warning(parse_template_json.cc:45): json parament no found the parament
[079:222] [2025-02-05 14:14:27 +0000.153241][764a]
Warning(parse_template_json.cc:45): json parament no found the parament
[079:222] [2025-02-05 14:14:27 +0000.153272][764a]
Warning(parse_template_json.cc:45): json parament no found the parament
[079:222] [2025-02-05 14:14:27 +0000.153304][764a]
Warning(parse_template_json.cc:45): json parament no found the parament
[079:223] [2025-02-05 14:14:27 +0000.153361][764a]
Warning(parse_template_json.cc:45): json parament no found the parament
[079:223] [2025-02-05 14:14:27 +0000.153392][764a]
Warning(parse_template_json.cc:81): json parament no found the parament
[079:223] [2025-02-05 14:14:27 +0000.153423][764a]
Warning(parse_template_json.cc:81): json parament no found the parament
[079:223] [2025-02-05 14:14:27 +0000.153453][764a]
Warning(parse_template_json.cc:67): json parament no found the parament
[079:223] [2025-02-05 14:14:27 +0000.153483][764a]
Warning(parse_template_json.cc:93): json parament no found the duration
[079:223] [2025-02-05 14:14:27 +0000.153521][764a] SetParamForFilter leave. expire
time = 5 ms
[079:223] [2025-02-05 14:14:27 +0000.153557][764a] Error(audio_source.cc:280):
SetParamForSource: AudioSource params, donnot find begintime
[079:223] [2025-02-05 14:14:27 +0000.154103][764a] OnOutputSizeChanged width 1280
height 720
[079:223] [2025-02-05 14:14:27 +0000.154183][764a] OpenGLFrameBuffer: width:1280
height:720
[079:223] [2025-02-05 14:14:27 +0000.154217][764a] OpenGLFrameBuffer: width:1280
height:720
[079:223] [2025-02-05 14:14:27 +0000.154245][764a] OpenGLFrameBuffer: width:1280
height:720
[079:223] [2025-02-05 14:14:27 +0000.154272][764a] OpenGLFrameBuffer: width:1280
height:720
[079:223] [2025-02-05 14:14:27 +0000.154299][764a] OpenGLFrameBuffer: width:1280
height:720
[079:224] [2025-02-05 14:14:27 +0000.154326][764a] OpenGLFrameBuffer: width:1280
height:720
[079:224] [2025-02-05 14:14:27 +0000.154352][764a] construct TrivalImageDrawer
0x77259aac80
[079:224] [2025-02-05 14:14:27 +0000.154383][764a] GPUImageProcessing construct:
frame resolution is: 1280 X 720 drawer 0x77259aac80 context 0x775c23c100
[079:224] [2025-02-05 14:14:27 +0000.154413][764a] setupGLES:
[079:224] [2025-02-05 14:14:27 +0000.154930][764a] OpenGLRenderProgram::Initialize.
[079:224] [2025-02-05 14:14:27 +0000.155032][764a] The version of the OpenGL:
OpenGL ES GLSL ES 3.20
[079:224] [2025-02-05 14:14:27 +0000.155064][764a] The extension of the OpenGL:
GL_OES_EGL_image GL_OES_EGL_image_external GL_OES_EGL_sync GL_OES_vertex_half_float
GL_OES_framebuffer_object GL_OES_rgb8_rgba8 GL_OES_compressed_ETC1_RGB8_texture
GL_AMD_compressed_ATC_texture GL_KHR_texture_compression_astc_ldr
GL_OES_texture_npot GL_EXT_texture_filter_anisotropic
GL_EXT_texture_format_BGRA8888 GL_EXT_read_format_bgra GL_OES_texture_3D
GL_EXT_color_buffer_float GL_EXT_color_buffer_half_float GL_QCOM_alpha_test
GL_OES_depth24 GL_OES_packed_depth_stencil GL_OES_depth_texture
GL_OES_depth_texture_cube_map GL_EXT_sRGB GL_OES_texture_float
GL_OES_texture_float_linear GL_OES_texture_half_float
GL_OES_texture_half_float_linear GL_EXT_texture_type_2_10_10_10_REV
GL_EXT_texture_sRGB_decode GL_EXT_texture_format_sRGB_override
GL_OES_element_index_uint GL_EXT_copy_image GL_EXT_geometry_shader
GL_EXT_tessellation_shader GL_OES_texture_stencil8 GL_EXT_shader_io_blocks
GL_OES_shader_image_atomic GL_OES_sample_variables GL_EXT_texture_border_clamp
GL_EXT_EGL_image_external_wrap_modes GL_EXT_multisampled_render_to_texture
GL_EXT_multisampled_render_to_texture2 GL_OES_shader_multisample_interpolation
GL_EXT_texture_cube_map_array GL_EXT_draw_buffers_indexed GL_EXT_gpu_shader5
GL_EXT_robustness GL_EXT_texture_buffer GL_EXT_shader_framebuffer_fetch
GL_ARM_shader_framebuffer_fetch_depth_stencil
GL_OES_texture_storage_multisample_2d_array GL_OES_sample_shading
GL_OES_get_program_binary GL_EXT_debug_label GL_KHR_blend_equation_advanced
GL_KHR_blend_equation_advanced_coherent GL_QCOM_tiled_rendering
GL_ANDROID_extension_pack_es31a GL_EXT_primitive_bounding_box
GL_OES_standard_derivatives GL_OES_vertex_array_object GL_EXT_disjoint_timer_query
GL_KHR_debug GL_EXT_YUV_target GL_EXT_sRGB_write_control GL_EXT_texture_norm16
GL_EXT_discard_framebuffer GL_OES_surfaceless_context GL_OVR_multiview
GL_OVR_multiview2 GL_EXT_texture_sRGB_R8 GL_KHR_no_error GL_EXT_debug_marker
GL_OES_EGL_image_external_essl3 GL_OVR_multiview_multisampled_render_to_texture
GL_EXT_buffer_storage GL_EXT_external_buffer GL_EXT_blit_framebuffer_params
GL_EXT_clip_cull_distance GL_EXT_protected_textures
GL_EXT_shader_non_constant_global_initializers GL_QCOM_texture_foveated
GL_QCOM_texture_foveated_subsampled_layout
GL_QCOM_shader_framebuffer_fetch_noncoherent GL_QCOM_shader_framebuffer_fetch_rate
GL_EXT_memory_object GL_EXT_memory_object_fd GL_EXT_EGL_image_array
GL_NV_shader_noperspective_interpolation GL_KHR_robust_buffer_access_behavior
GL_EXT_EGL_image_storage GL_EXT_blend_func_extended GL_EXT_clip_control
GL_OES_texture_view GL_EXT_fragment_invocation_density
GL_QCOM_validate_shader_binary GL_QCOM_YUV_texture_gather
[079:224] [2025-02-05 14:14:27 +0000.155157][764a] Init open gl render:
0x77cc4c3798
[079:224] [2025-02-05 14:14:27 +0000.155199][764a] Fragement shader path:
[079:224] [2025-02-05 14:14:27 +0000.155236][764a] Fragement shader path:
[079:224] [2025-02-05 14:14:27 +0000.155266][764a] create opengl program object.
[079:224] [2025-02-05 14:14:27 +0000.155294][764a] create shader: vertex
[079:227] [2025-02-05 14:14:27 +0000.157952][764a] create shader: fragment
[079:244] [2025-02-05 14:14:27 +0000.174646][7732] FFMpeg=> [aac @ 0x775c00ba00]
Current FFmpeg version git-2021-06-16-97cea6f
[079:254] [2025-02-05 14:14:27 +0000.185053][7732] Warning(ff_ffplay.cpp:68):
FFMpeg=> [aac @ 0x775c00ba00] Estimating duration from bitrate, this may be
inaccurate
[079:264] [2025-02-05 14:14:27 +0000.194845][764a] Have not extra filter filename!
[079:264] [2025-02-05 14:14:27 +0000.194944][764a] Error(crop_filter.cc:368): Init
the extra yuv texture failed.
[079:264] [2025-02-05 14:14:27 +0000.194969][764a] OpenGLRenderProgram::Initialize
success.
[079:264] [2025-02-05 14:14:27 +0000.195040][764a] Setup the OpenGL result:1
[079:265] [2025-02-05 14:14:27 +0000.195490][7648] start recording, file
path:/data/user/0/[Link]/no_backup/.milive//record_video_229973369.mp4
[079:265] [2025-02-05 14:14:27 +0000.195610][7648] MP4 session params: fps:30
width:1280 height:720 file
name:/data/user/0/[Link]/no_backup/.milive//record_video_229973369.mp4
fileFd: -1 audio_timescale:44100 video_timescale:90000
[079:265] [2025-02-05 14:14:27 +0000.195633][7737] Error([Link]): Set the
pthread name failed with error:34 name:Thread 0x0x773a110898
[079:265] [2025-02-05 14:14:27 +0000.195664][7648] MP4Recorder AddDisplayRotate:0
c:1 s:0 matrix[0]:256 matrix[1]:0 matrix[2]:0 matrix[3]:0 matrix[4]:256
matrix[8]:64
[079:265] [2025-02-05 14:14:27 +0000.195725][7648] MP4 recorder params: fps:30
width:1280 height:720 audio time scale:44100 video time scale:90000 file
name:/data/user/0/[Link]/no_backup/.milive//record_video_229973369.mp4
fileFD: -1
[079:265] [2025-02-05 14:14:27 +0000.196160][7648] MP4
file:/data/user/0/[Link]/no_backup/.milive//record_video_229973369.mp4
is opened successfully
[079:265] [2025-02-05 14:14:27 +0000.196188][7648] setupMediaProcessers:
[079:265] [2025-02-05 14:14:27 +0000.196210][7648]
RecordingSessionInternalSimple:setup media processers.
[079:265] [2025-02-05 14:14:27 +0000.196234][7648] construct AAC encoder
[079:266] [2025-02-05 14:14:27 +0000.196824][7648] H264Encoder creating:
superfast011818
[079:266] [2025-02-05 14:14:27 +0000.196858][7648] H264Encode::H264Encoder creating
with width:1280 height:720 m_fps:30 m_bitrate:31457280 useHWEncoder:0
[079:267] [2025-02-05 14:14:27 +0000.197541][7648] H264Encode::GetMachineModel is
2201117TI
[079:267] [2025-02-05 14:14:27 +0000.197589][7648] H264Encoder machine_mode
is:2201117TI
[079:267] [2025-02-05 14:14:27 +0000.197615][7648] H264Encode::machine size :9
machine_mode:2201117TI
[079:267] [2025-02-05 14:14:27 +0000.197639][7648] H264Encode::machine array
size :22 machine_mode:2201117TI
[079:267] [2025-02-05 14:14:27 +0000.197663][7648] H264Encode::current machine
is :2201117TI auto check hw codec decide to use hw codec
[079:267] [2025-02-05 14:14:27 +0000.197685][7648] setupCompressionSession:
[079:267] [2025-02-05 14:14:27 +0000.197706][7648] H264Encode::creating hareware
Encoder
[079:267] [2025-02-05 14:14:27 +0000.197728][7648] AndroidHwAvcEncoder
time:229973372 enter.
[079:267] [2025-02-05 14:14:27 +0000.197885][7648] AndroidHwAvcEncoder:
g_jvm_encoder_ :0xb4000077dbc21380 address:0x771b1b4760
[079:267] [2025-02-05 14:14:27 +0000.198026][7648] AndroidMediaCodecVideoEncoder
construct jni_init_jfields: 1, 1
[079:267] [2025-02-05 14:14:27 +0000.198061][7648] The video avc hw codec address
is 0x771f00c468
[079:267] [2025-02-05 14:14:27 +0000.198126][7648] AndroidHwAvcEncoder leave.
expire time = 0 ms
[079:267] [2025-02-05 14:14:27 +0000.198161][7648] RegisterEncodeCompleteCallback
time:229973372 enter.
[079:267] [2025-02-05 14:14:27 +0000.198228][7648] RegisterEncodeCompleteCallback
leave. expire time = 0 ms
[079:267] [2025-02-05 14:14:27 +0000.198258][7648] InitEncode time:229973372
enter.
[079:267] [2025-02-05 14:14:27 +0000.198308][7648] InitEncode:
MediaCodecVideoEncoder::Release _inited:1
[079:268] [2025-02-05 14:14:27 +0000.198344][7648] Create time:229973373 enter.
[079:268] [2025-02-05 14:14:27 +0000.198368][7648] H264Encoder encoderCreate
width:1280 height:720 fps:30 bitrate:31457280 usingVbrMode:1
[079:268] [2025-02-05 14:14:27 +0000.198411][7648]
AndroidMediaCodecVideoEncoder::initEncoder, codec: 0, width: 1280, height: 720,
framerate: 30, bitrate: 31457280, usingVbr: 1, VideoEncoder: 0x772c1e96c0
[079:286] [2025-02-05 14:14:27 +0000.216588][7648]
supported_type:image/[Link]
[079:286] [2025-02-05 14:14:27 +0000.216766][7648] supported_type:video/avc
[079:286] [2025-02-05 14:14:27 +0000.216807][7648] name:[Link]
mime:video/avc
[079:286] [2025-02-05 14:14:27 +0000.216867][7648] hwCodecPrefix :[Link].
[079:286] [2025-02-05 14:14:27 +0000.216949][7648] Found target codecer
[Link]
[079:286] [2025-02-05 14:14:27 +0000.216992][7648] mediacodec_createCodecByName
time:229973391 enter.
[079:286] [2025-02-05 14:14:27 +0000.217096][7648] WrapAndroidMediaCodec
time:229973391 enter.
[079:287] [2025-02-05 14:14:27 +0000.217424][7648] WrapAndroidMediaCodec leave.
expire time = 1 ms
[079:310] [2025-02-05 14:14:27 +0000.241295][7648] mediacodec_createCodecByName
leave. expire time = 25 ms
[079:311] [2025-02-05 14:14:27 +0000.241422][7648] WrapAndroidMediaFromat
time:229973416 enter.
[079:311] [2025-02-05 14:14:27 +0000.241519][7648] WrapAndroidMediaFromat leave.
expire time = 0 ms
[079:352] [2025-02-05 14:14:27 +0000.283029][7648] Destroy time:229973457 enter.
[079:352] [2025-02-05 14:14:27 +0000.283196][7648] WrapAndroidMediaFromat::
Destroy
[079:352] [2025-02-05 14:14:27 +0000.283243][7648] Destroy leave. expire time = 0
ms
[079:352] [2025-02-05 14:14:27 +0000.283291][7648] ~WrapAndroidMediaFromat
time:229973457 enter.
[079:353] [2025-02-05 14:14:27 +0000.283333][7648] ~WrapAndroidMediaFromat leave.
expire time = 1 ms
[079:353] [2025-02-05 14:14:27 +0000.283377][7648] Create leave. expire time = 85
ms
[079:353] [2025-02-05 14:14:27 +0000.283420][7648] isSemiPlanarSupport
time:229973458 enter.
[079:353] [2025-02-05 14:14:27 +0000.283458][7648] H264Encoder isSemiPlanarSupport
[079:353] [2025-02-05 14:14:27 +0000.283499][7648] isSemiPlanarSupport leave.
expire time = 0 ms
[079:353] [2025-02-05 14:14:27 +0000.283540][7648] creat hw H264Encoder success,
isSemiPlanar:1
[079:353] [2025-02-05 14:14:27 +0000.283679][7648] InitEncode leave. expire time =
86 ms
[079:353] [2025-02-05 14:14:27 +0000.283721][7648] H264Encode::created Encoder
[079:353] [2025-02-05 14:14:27 +0000.283757][7648] H264Encode:: H264 encoder
created.
[079:353] [2025-02-05 14:14:27 +0000.283792][7648] H264 encoder created.
[079:353] [2025-02-05 14:14:27 +0000.283827][7648]
RecordingSessionInternalSimple:created avc encoder avc: 0x77256fd9c0
[079:353] [2025-02-05 14:14:27 +0000.283876][7648] setOutput:
[079:353] [2025-02-05 14:14:27 +0000.283912][7648]
RecordingSessionInternalSimple:encoder set output to muxer!
[079:353] [2025-02-05 14:14:27 +0000.283947][7648] request a key frame
[079:353] [2025-02-05 14:14:27 +0000.283981][7648] H264Encode:: request a key frame
[079:353] [2025-02-05 14:14:27 +0000.284151][7648] setDisplayRotate :90
[079:353] [2025-02-05 14:14:27 +0000.284224][7648] MP4Recorder AddDisplayRotate:90
c:6.12323e-17 s:-1 matrix[0]:0 matrix[1]:256 matrix[2]:0 matrix[3]:65535
matrix[4]:0 matrix[8]:64
[079:354] [2025-02-05 14:14:27 +0000.284346][764a] Start:
[079:354] [2025-02-05 14:14:27 +0000.284579][772f] Reset: volume estimator reset
frequency : 44100 history size(ms): 5000
[079:354] [2025-02-05 14:14:27 +0000.284705][772f] Reset: history total size: 98
[079:354] [2025-02-05 14:14:27 +0000.284756][772f] DeviceStart:
audioDevice_:0x77cc4a2000
[079:354] [2025-02-05 14:14:27 +0000.284796][772f] DeviceStart: time profile
playout init before
[079:354] [2025-02-05 14:14:27 +0000.284868][772f] DeviceStart: time profile
playout init end
[079:354] [2025-02-05 14:14:27 +0000.284916][772f] OpenSlesOutput:Start playout
[079:356] [2025-02-05 14:14:27 +0000.286856][772f] Create the opensl output player.
streamtype before:0
[079:356] [2025-02-05 14:14:27 +0000.286954][772f] Create the opensl output player.
streamtype after:3
[079:365] [2025-02-05 14:14:27 +0000.295655][772f] Enqueue opensl buffer size:1764
[079:374] [2025-02-05 14:14:27 +0000.304468][772f] DeviceStart: time profile
playout all end
[079:374] [2025-02-05 14:14:27 +0000.304520][7755]
PlayerSimpleBufferQueueCallbackHandler function
[079:374] [2025-02-05 14:14:27 +0000.304589][772f] operator(): Audio playback
started.
[079:374] [2025-02-05 14:14:27 +0000.304656][7755] NeedMorePlayData No enough
buffers. nSamples: 441(1/100)
[079:374] [2025-02-05 14:14:27 +0000.304734][7755]
Warning(audio_device_generic.cc:206): No Audio Processing is done for output datas.
[079:374] [2025-02-05 14:14:27 +0000.304822][764a] operator() leave. expire time =
162 ms
[079:376] [2025-02-05 14:14:27 +0000.306375][7730] FilterPipeline2::OnAudioFrame
pts 20 last_audio_timestamp_ 20
[079:376] [2025-02-05 14:14:27 +0000.306472][7730]
MediaFilterCamera::OnReceiveAudioFrame timestamp: sample_rate_hz_:44100
num_channels_:2 samples_per_channel_:882
[079:376] [2025-02-05 14:14:27 +0000.306528][7730] OnAudioFrameReady frame->pts=-
9223372036854775808 (1/100)
[079:384] [2025-02-05 14:14:27 +0000.314833][772f] Create the audio converter 44100
Hz format:1 channels:2 old channels: 0 Hz: 0 format:-1
[079:384] [2025-02-05 14:14:27 +0000.315199][772f] The audio playback speed:100
(1/100)
[079:385] [2025-02-05 14:14:27 +0000.315564][772f] lipsync_debug: The current
played audio timestamp is:20(1/50)
[079:385] [2025-02-05 14:14:27 +0000.315612][772f] First audio frame rendering
[079:388] [2025-02-05 14:14:27 +0000.318735][772f] Create the audio converter 44100
Hz format:1 channels:2 old channels: 3 Hz: 44100 format:1
[079:389] [2025-02-05 14:14:27 +0000.319357][772f] Create the audio converter 44100
Hz format:1 channels:2 old channels: 3 Hz: 44100 format:1
[079:392] [2025-02-05 14:14:27 +0000.322830][772f] Create the audio converter 44100
Hz format:1 channels:2 old channels: 3 Hz: 44100 format:1
[079:394] [2025-02-05 14:14:27 +0000.324995][772f] Create the audio converter 44100
Hz format:1 channels:2 old channels: 3 Hz: 44100 format:1
[079:396] [2025-02-05 14:14:27 +0000.327234][772f] Create the audio converter 44100
Hz format:1 channels:2 old channels: 3 Hz: 44100 format:1
[079:397] [2025-02-05 14:14:27 +0000.327675][772f] Create the audio converter 44100
Hz format:1 channels:2 old channels: 3 Hz: 44100 format:1
[079:400] [2025-02-05 14:14:27 +0000.330726][772f] Create the audio converter 44100
Hz format:1 channels:2 old channels: 3 Hz: 44100 format:1
[079:400] [2025-02-05 14:14:27 +0000.331285][772f] Create the audio converter 44100
Hz format:1 channels:2 old channels: 3 Hz: 44100 format:1
[079:402] [2025-02-05 14:14:27 +0000.333157][772f] Create the audio converter 44100
Hz format:1 channels:2 old channels: 3 Hz: 44100 format:1
[079:404] [2025-02-05 14:14:27 +0000.334485][772f] Create the audio converter 44100
Hz format:1 channels:2 old channels: 3 Hz: 44100 format:1
[079:406] [2025-02-05 14:14:27 +0000.336518][772f] Create the audio converter 44100
Hz format:1 channels:2 old channels: 3 Hz: 44100 format:1
[079:407] [2025-02-05 14:14:27 +0000.337760][772f] Create the audio converter 44100
Hz format:1 channels:2 old channels: 3 Hz: 44100 format:1
[079:409] [2025-02-05 14:14:27 +0000.339566][772f] Create the audio converter 44100
Hz format:1 channels:2 old channels: 3 Hz: 44100 format:1
[079:409] [2025-02-05 14:14:27 +0000.340039][772f] Create the audio converter 44100
Hz format:1 channels:2 old channels: 3 Hz: 44100 format:1
[079:412] [2025-02-05 14:14:27 +0000.343110][772f] Create the audio converter 44100
Hz format:1 channels:2 old channels: 3 Hz: 44100 format:1
[079:413] [2025-02-05 14:14:27 +0000.343598][772f] Create the audio converter 44100
Hz format:1 channels:2 old channels: 3 Hz: 44100 format:1
[079:415] [2025-02-05 14:14:27 +0000.345685][772f] Create the audio converter 44100
Hz format:1 channels:2 old channels: 3 Hz: 44100 format:1
[079:416] [2025-02-05 14:14:27 +0000.346939][772f] Create the audio converter 44100
Hz format:1 channels:2 old channels: 3 Hz: 44100 format:1
[079:418] [2025-02-05 14:14:27 +0000.348944][772f] Create the audio converter 44100
Hz format:1 channels:2 old channels: 3 Hz: 44100 format:1
[079:419] [2025-02-05 14:14:27 +0000.349348][772f] Create the audio converter 44100
Hz format:1 channels:2 old channels: 3 Hz: 44100 format:1
[079:421] [2025-02-05 14:14:27 +0000.351883][772f] Create the audio converter 44100
Hz format:1 channels:2 old channels: 3 Hz: 44100 format:1
[079:421] [2025-02-05 14:14:27 +0000.352267][772f] Create the audio converter 44100
Hz format:1 channels:2 old channels: 3 Hz: 44100 format:1
[079:423] [2025-02-05 14:14:27 +0000.354252][772f] Create the audio converter 44100
Hz format:1 channels:2 old channels: 3 Hz: 44100 format:1
[079:425] [2025-02-05 14:14:27 +0000.355424][772f] Create the audio converter 44100
Hz format:1 channels:2 old channels: 3 Hz: 44100 format:1
[079:426] [2025-02-05 14:14:27 +0000.357183][772f] Create the audio converter 44100
Hz format:1 channels:2 old channels: 3 Hz: 44100 format:1
[079:427] [2025-02-05 14:14:27 +0000.357611][772f] Create the audio converter 44100
Hz format:1 channels:2 old channels: 3 Hz: 44100 format:1
[079:428] [2025-02-05 14:14:27 +0000.359004][7730] OnAudioFrameReady frame->pts=-
9223372036854775808 (1/100)
[079:432] [2025-02-05 14:14:27 +0000.362673][764a]
MediaFilterCamera::NeedProcessTexture
[079:432] [2025-02-05 14:14:27 +0000.362776][764a] begine recode to first frame
spend time:220
[079:432] [2025-02-05 14:14:27 +0000.362809][764a] CameraSource::PushExtraFrame
pkt_dts: 0, width: 1280, height: 720, stride(kYPlane): 0, stride(kUPlane): 0,
stride(KVPlane): 0, this:0x7724ea9d80
[079:432] [2025-02-05 14:14:27 +0000.362858][764a] blur_distance_:0
[079:432] [2025-02-05 14:14:27 +0000.362885][764a] blur_direction_angle_:-90
[079:432] [2025-02-05 14:14:27 +0000.362921][764a]
GPUImageProcessing::SetOrientation orientation: 90
[079:432] [2025-02-05 14:14:27 +0000.362968][764a] webrtc common_video
I420VideoFrame::CopyFrame (1/1000)
[079:432] [2025-02-05 14:14:27 +0000.363025][764a] GPUImageProcessing: process
video frame with resolution 1280 X 720
[079:432] [2025-02-05 14:14:27 +0000.363054][764a] GPUImageProcessing: input frame
width1280 X 720
[079:433] [2025-02-05 14:14:27 +0000.363728][764a] drawYUV420 render
OpenGLRenderProgram:0x77cc4c3798
[079:434] [2025-02-05 14:14:27 +0000.364641][764a] The next ready buffer:-1
m_nextAvaiablePixelBuffer:0
[079:434] [2025-02-05 14:14:27 +0000.364814][764a] CropFilter::OnVideoFrame
outputtexture :25
[079:434] [2025-02-05 14:14:27 +0000.364844][764a] The next ready buffer:-1
m_nextAvaiablePixelBuffer:0
[079:435] [2025-02-05 14:14:27 +0000.365834][764a] The read pixel from buffer take:
1 width:1280 height:720 frameType:0
[079:473] [2025-02-05 14:14:27 +0000.403918][764a] drawYUV420 render
OpenGLRenderProgram:0x77cc4c3798
[079:479] [2025-02-05 14:14:27 +0000.410031][764a] The convert RGB to YUV take 4
[079:480] [2025-02-05 14:14:27 +0000.410416][764a] FilterPipeline2::OnVideoFrame
pts 40 last_video_timestamp_ 40
[079:480] [2025-02-05 14:14:27 +0000.410507][764a]
MediaFilterCamera::OnReceiveVideoFrame output_video_timestamp_:0
[079:482] [2025-02-05 14:14:27 +0000.413112][7736]
MediaFilterCamera::WriteVideoFrametoMP4_w -> pushExtraYUVFrametimestamp:0
[079:482] [2025-02-05 14:14:27 +0000.413254][7736] RecordingSessionInternalSimple:
pushExtraYUVFrame. width:1280 height:720input pixel type:0 dataType:0 stride:1280
streamId:1 timestamp:0
[079:482] [2025-02-05 14:14:27 +0000.413290][7736] push video frame to H264
encoder. (100 frame for one log)
[079:483] [2025-02-05 14:14:27 +0000.413369][7736] push video frame to H264
encoder. (100 frame for one log) used width:1280 height:720
[079:483] [2025-02-05 14:14:27 +0000.413403][7736] H264Encode::push video frame to
H264 encoder, using hw H264:1 width:1280 height:720 pts:0(100 frame for one log)
[079:483] [2025-02-05 14:14:27 +0000.413429][7736] Push an pts:0 to dts queue.
[079:483] [2025-02-05 14:14:27 +0000.413475][7736] DTS queue for
Generator:0x773a3798b8 0
[079:483] [2025-02-05 14:14:27 +0000.413499][7736] The input pts:0 fps:30
[079:484] [2025-02-05 14:14:27 +0000.414770][7736]
AndroidMediaCodecVideoEncoder::encodeFrameInput force a key frame
[079:507] [2025-02-05 14:14:27 +0000.438015][764a] drawYUV420 render
OpenGLRenderProgram:0x77cc4c3798
[079:548] [2025-02-05 14:14:27 +0000.478597][7736] h264 add frame header cdr flag
[079:548] [2025-02-05 14:14:27 +0000.479301][7736] h264 add frame header cdr flag
[079:549] [2025-02-05 14:14:27 +0000.479529][7736] SendFrame
encodedImage._timeStamp:0encodedImage->_length:57007
[079:549] [2025-02-05 14:14:27 +0000.479601][7736] Received key frame:0
[079:549] [2025-02-05 14:14:27 +0000.479638][7736] last dts:0 currentPts:0
ppsOrSPS:0 queue length:3
[079:549] [2025-02-05 14:14:27 +0000.479679][7736] H264Encode::H264SWEncoder get
callback, length:57007 type:0 nalType:7length:18
[079:549] [2025-02-05 14:14:27 +0000.479708][7736] H264Encode:: get a sps pps
header!headerSize:31
[079:549] [2025-02-05 14:14:27 +0000.479749][7736] H264Encode::H264 encoder push
frame to next component(100 times for one log) with dts:0 pts:0
[079:549] [2025-02-05 14:14:27 +0000.480227][7737] get the H.264 SPS parameter
[079:550] [2025-02-05 14:14:27 +0000.480587][7737] add video track with id:1
[079:550] [2025-02-05 14:14:27 +0000.480981][7737] get the H.264 PPS parameter
[079:552] [2025-02-05 14:14:27 +0000.482461][7737] get the H.264 IDR frame
[079:552] [2025-02-05 14:14:27 +0000.482733][7737] resss:true
[079:552] [2025-02-05 14:14:27 +0000.482763][7737] video start ts:0
[079:552] [2025-02-05 14:14:27 +0000.482848][7737] the video frame has been written
into MP4 file
[079:555] [2025-02-05 14:14:27 +0000.485355][7730] OnAudioFrameReady frame->pts=-
9223372036854775808 (1/100)
[079:679] [2025-02-05 14:14:27 +0000.610322][7730] OnAudioFrameReady frame->pts=-
9223372036854775808 (1/100)
[079:809] [2025-02-05 14:14:27 +0000.739433][7730] OnAudioFrameReady frame->pts=-
9223372036854775808 (1/100)
[079:938] [2025-02-05 14:14:27 +0000.868336][7730] OnAudioFrameReady frame->pts=-
9223372036854775808 (1/100)
[079:939] [2025-02-05 14:14:27 +0000.869993][764a] The read pixel from buffer take:
0 width:1280 height:720 frameType:0
[079:975] [2025-02-05 14:14:27 +0000.906277][764a] The convert RGB to YUV take 3
[080:064] [2025-02-05 14:14:27 +0000.995215][7730] OnAudioFrameReady frame->pts=-
9223372036854775808 (1/100)
[080:127] [2025-02-05 14:14:28 +0000.58104][764f] haveEnoughProcessedData
[Link]: 10
[080:171] [2025-02-05 14:14:28 +0000.102098][7733] av_read_frame AVERROR_EOF
[080:172] [2025-02-05 14:14:28 +0000.102446][7733] OnReceiveEOF:
[080:172] [2025-02-05 14:14:28 +0000.102512][7733] OnDecoderFinished:
[080:196] [2025-02-05 14:14:28 +0000.126844][7730] OnAudioFrameReady frame->pts=-
9223372036854775808 (1/100)
[080:204] [2025-02-05 14:14:28 +0000.134847][7730] CleanUp time:229974309 enter.
[080:205] [2025-02-05 14:14:28 +0000.136298][7730] CleanUp leave. expire time = 2
ms
[080:206] [2025-02-05 14:14:28 +0000.136672][7730] PullAudioFrame: PullFrame audio
finished.
[080:206] [2025-02-05 14:14:28 +0000.136738][7730]
Warning(media_filter_camera.cc:550): media pull audio frame EOF, so need stop
Timer!
[080:310] [2025-02-05 14:14:28 +0000.240908][7736] DTS queue for
Generator:0x773a3798b8 794 828
[080:339] [2025-02-05 14:14:28 +0000.269497][7755]
Warning(audio_device_generic.cc:206): No Audio Processing is done for output datas.
[080:424] [2025-02-05 14:14:28 +0000.354360][764a] The read pixel from buffer take:
0 width:1280 height:720 frameType:0
[080:463] [2025-02-05 14:14:28 +0000.393770][764a] The convert RGB to YUV take 4
[080:465] [2025-02-05 14:14:28 +0000.395554][772f] The audio playback speed:100
(1/100)
[080:465] [2025-02-05 14:14:28 +0000.396060][772f] lipsync_debug: The current
played audio timestamp is:2150(1/50)
[080:468] [2025-02-05 14:14:28 +0000.398864][772f] Create the audio converter 44100
Hz format:1 channels:2 old channels: 3 Hz: 44100 format:1
[080:469] [2025-02-05 14:14:28 +0000.399604][772f] Create the audio converter 44100
Hz format:1 channels:2 old channels: 3 Hz: 44100 format:1
[080:472] [2025-02-05 14:14:28 +0000.402956][772f] Create the audio converter 44100
Hz format:1 channels:2 old channels: 3 Hz: 44100 format:1
[080:474] [2025-02-05 14:14:28 +0000.405102][772f] Create the audio converter 44100
Hz format:1 channels:2 old channels: 3 Hz: 44100 format:1
[080:477] [2025-02-05 14:14:28 +0000.407865][772f] Create the audio converter 44100
Hz format:1 channels:2 old channels: 3 Hz: 44100 format:1
[080:479] [2025-02-05 14:14:28 +0000.409465][772f] Create the audio converter 44100
Hz format:1 channels:2 old channels: 3 Hz: 44100 format:1
[080:481] [2025-02-05 14:14:28 +0000.411792][772f] Create the audio converter 44100
Hz format:1 channels:2 old channels: 3 Hz: 44100 format:1
[080:481] [2025-02-05 14:14:28 +0000.412202][772f] Create the audio converter 44100
Hz format:1 channels:2 old channels: 3 Hz: 44100 format:1
[080:485] [2025-02-05 14:14:28 +0000.415877][772f] Create the audio converter 44100
Hz format:1 channels:2 old channels: 3 Hz: 44100 format:1
[080:486] [2025-02-05 14:14:28 +0000.416346][772f] Create the audio converter 44100
Hz format:1 channels:2 old channels: 3 Hz: 44100 format:1
[080:488] [2025-02-05 14:14:28 +0000.419011][772f] Create the audio converter 44100
Hz format:1 channels:2 old channels: 3 Hz: 44100 format:1
[080:490] [2025-02-05 14:14:28 +0000.420593][772f] Create the audio converter 44100
Hz format:1 channels:2 old channels: 3 Hz: 44100 format:1
[080:492] [2025-02-05 14:14:28 +0000.423051][772f] Create the audio converter 44100
Hz format:1 channels:2 old channels: 3 Hz: 44100 format:1
[080:493] [2025-02-05 14:14:28 +0000.423507][772f] Create the audio converter 44100
Hz format:1 channels:2 old channels: 3 Hz: 44100 format:1
[080:496] [2025-02-05 14:14:28 +0000.426488][772f] Create the audio converter 44100
Hz format:1 channels:2 old channels: 3 Hz: 44100 format:1
[080:496] [2025-02-05 14:14:28 +0000.427242][772f] Create the audio converter 44100
Hz format:1 channels:2 old channels: 3 Hz: 44100 format:1
[080:498] [2025-02-05 14:14:28 +0000.429277][772f] Create the audio converter 44100
Hz format:1 channels:2 old channels: 3 Hz: 44100 format:1
[080:500] [2025-02-05 14:14:28 +0000.430520][772f] Create the audio converter 44100
Hz format:1 channels:2 old channels: 3 Hz: 44100 format:1
[080:502] [2025-02-05 14:14:28 +0000.432411][772f] Create the audio converter 44100
Hz format:1 channels:2 old channels: 3 Hz: 44100 format:1
[080:502] [2025-02-05 14:14:28 +0000.433072][772f] Create the audio converter 44100
Hz format:1 channels:2 old channels: 3 Hz: 44100 format:1
[080:505] [2025-02-05 14:14:28 +0000.436189][772f] Create the audio converter 44100
Hz format:1 channels:2 old channels: 3 Hz: 44100 format:1
[080:506] [2025-02-05 14:14:28 +0000.436761][772f] Create the audio converter 44100
Hz format:1 channels:2 old channels: 3 Hz: 44100 format:1
[080:508] [2025-02-05 14:14:28 +0000.438744][772f] Create the audio converter 44100
Hz format:1 channels:2 old channels: 3 Hz: 44100 format:1
[080:509] [2025-02-05 14:14:28 +0000.439898][772f] Create the audio converter 44100
Hz format:1 channels:2 old channels: 3 Hz: 44100 format:1
[080:511] [2025-02-05 14:14:28 +0000.441952][772f] Create the audio converter 44100
Hz format:1 channels:2 old channels: 3 Hz: 44100 format:1
[080:512] [2025-02-05 14:14:28 +0000.443302][772f] Create the audio converter 44100
Hz format:1 channels:2 old channels: 3 Hz: 44100 format:1
[080:513] [2025-02-05 14:14:28 +0000.443984][772f] The audio playback speed:100
(1/100)
[080:514] [2025-02-05 14:14:28 +0000.444950][772f] lipsync_debug: The current
played audio timestamp is:4280(1/50)
[080:514] [2025-02-05 14:14:28 +0000.445133][772f] Create the audio converter 44100
Hz format:1 channels:2 old channels: 3 Hz: 44100 format:1
[080:515] [2025-02-05 14:14:28 +0000.445616][772f] Create the audio converter 44100
Hz format:1 channels:2 old channels: 3 Hz: 44100 format:1
[080:517] [2025-02-05 14:14:28 +0000.448258][772f] Create the audio converter 44100
Hz format:1 channels:2 old channels: 3 Hz: 44100 format:1
[080:518] [2025-02-05 14:14:28 +0000.448564][772f] Create the audio converter 44100
Hz format:1 channels:2 old channels: 3 Hz: 44100 format:1
[080:520] [2025-02-05 14:14:28 +0000.450327][772f] Create the audio converter 44100
Hz format:1 channels:2 old channels: 3 Hz: 44100 format:1
[080:521] [2025-02-05 14:14:28 +0000.451479][772f] Create the audio converter 44100
Hz format:1 channels:2 old channels: 3 Hz: 44100 format:1
[080:523] [2025-02-05 14:14:28 +0000.453386][772f] Create the audio converter 44100
Hz format:1 channels:2 old channels: 3 Hz: 44100 format:1
[080:523] [2025-02-05 14:14:28 +0000.453704][772f] Create the audio converter 44100
Hz format:1 channels:2 old channels: 3 Hz: 44100 format:1
[080:525] [2025-02-05 14:14:28 +0000.456223][772f] Create the audio converter 44100
Hz format:1 channels:2 old channels: 3 Hz: 44100 format:1
[080:526] [2025-02-05 14:14:28 +0000.456645][772f] Create the audio converter 44100
Hz format:1 channels:2 old channels: 3 Hz: 44100 format:1
[080:528] [2025-02-05 14:14:28 +0000.458756][772f] Create the audio converter 44100
Hz format:1 channels:2 old channels: 3 Hz: 44100 format:1
[080:529] [2025-02-05 14:14:28 +0000.460197][772f] Create the audio converter 44100
Hz format:1 channels:2 old channels: 3 Hz: 44100 format:1
[080:532] [2025-02-05 14:14:28 +0000.462348][772f] Create the audio converter 44100
Hz format:1 channels:2 old channels: 3 Hz: 44100 format:1
[080:532] [2025-02-05 14:14:28 +0000.462737][772f] Create the audio converter 44100
Hz format:1 channels:2 old channels: 3 Hz: 44100 format:1
[080:535] [2025-02-05 14:14:28 +0000.465566][772f] Create the audio converter 44100
Hz format:1 channels:2 old channels: 3 Hz: 44100 format:1
[080:535] [2025-02-05 14:14:28 +0000.466150][772f] Create the audio converter 44100
Hz format:1 channels:2 old channels: 3 Hz: 44100 format:1
[080:537] [2025-02-05 14:14:28 +0000.468105][772f] Create the audio converter 44100
Hz format:1 channels:2 old channels: 3 Hz: 44100 format:1
[080:539] [2025-02-05 14:14:28 +0000.469455][772f] Create the audio converter 44100
Hz format:1 channels:2 old channels: 3 Hz: 44100 format:1
[080:541] [2025-02-05 14:14:28 +0000.471465][772f] Create the audio converter 44100
Hz format:1 channels:2 old channels: 3 Hz: 44100 format:1
[080:542] [2025-02-05 14:14:28 +0000.472597][772f] Create the audio converter 44100
Hz format:1 channels:2 old channels: 3 Hz: 44100 format:1
[080:544] [2025-02-05 14:14:28 +0000.474394][772f] Create the audio converter 44100
Hz format:1 channels:2 old channels: 3 Hz: 44100 format:1
[080:544] [2025-02-05 14:14:28 +0000.474703][772f] Create the audio converter 44100
Hz format:1 channels:2 old channels: 3 Hz: 44100 format:1
[080:547] [2025-02-05 14:14:28 +0000.477347][772f] Create the audio converter 44100
Hz format:1 channels:2 old channels: 3 Hz: 44100 format:1
[080:547] [2025-02-05 14:14:28 +0000.477658][772f] Create the audio converter 44100
Hz format:1 channels:2 old channels: 3 Hz: 44100 format:1
[080:549] [2025-02-05 14:14:28 +0000.479357][772f] Create the audio converter 44100
Hz format:1 channels:2 old channels: 3 Hz: 44100 format:1
[080:550] [2025-02-05 14:14:28 +0000.480445][772f] Create the audio converter 44100
Hz format:1 channels:2 old channels: 3 Hz: 44100 format:1
[080:552] [2025-02-05 14:14:28 +0000.482333][772f] Create the audio converter 44100
Hz format:1 channels:2 old channels: 3 Hz: 44100 format:1
[080:552] [2025-02-05 14:14:28 +0000.482445][772f] The audio playback speed:100
(1/100)
[080:552] [2025-02-05 14:14:28 +0000.482681][772f] lipsync_debug: The current
played audio timestamp is:6420(1/50)
[080:552] [2025-02-05 14:14:28 +0000.482717][772f] Create the audio converter 44100
Hz format:1 channels:2 old channels: 3 Hz: 44100 format:1
[080:688] [2025-02-05 14:14:28 +0000.618550][7650] webrtc device:Handle the data
from samplesPerSec recording sample rate:48000 nSamples:480 nBytesPerSample:#
nChannels:#
[080:688] [2025-02-05 14:14:28 +0000.618808][7650] _deviceSampleRate:48000
[080:690] [2025-02-05 14:14:28 +0000.621214][764f] Run AGC when audioType = 0
[080:798] [2025-02-05 14:14:28 +0000.728883][7736] Push an pts:1319 to dts queue.
[080:872] [2025-02-05 14:14:28 +0000.803208][7736] last dts:1282 currentPts:1319
ppsOrSPS:0 queue length:3
[080:927] [2025-02-05 14:14:28 +0000.857899][764a] The read pixel from buffer take:
0 width:1280 height:720 frameType:0
[080:972] [2025-02-05 14:14:28 +0000.903219][764a] The convert RGB to YUV take 3
[081:146] [2025-02-05 14:14:29 +0000.76837][7736] DTS queue for
Generator:0x773a3798b8 1623 1661
[081:376] [2025-02-05 14:14:29 +0000.306763][7755]
Warning(audio_device_generic.cc:206): No Audio Processing is done for output datas.
[081:424] [2025-02-05 14:14:29 +0000.354908][764a] The read pixel from buffer take:
0 width:1280 height:720 frameType:0
[081:463] [2025-02-05 14:14:29 +0000.393553][764a] The convert RGB to YUV take 4
[081:491] [2025-02-05 14:14:29 +0000.421535][764a] webrtc common_video plane
old ..... (1/1000) new: 1001 delete: 980 diff: 21
[081:532] [2025-02-05 14:14:29 +0000.463273][7736] h264 add frame header cdr flag
[081:533] [2025-02-05 14:14:29 +0000.464263][7736] Received key frame:1987
[081:567] [2025-02-05 14:14:29 +0000.498033][7737] get the H.264 IDR frame
[081:828] [2025-02-05 14:14:29 +0000.758806][764f] haveEnoughProcessedData
[Link]: 0
[081:926] [2025-02-05 14:14:29 +0000.856538][764a] The read pixel from buffer take:
0 width:1280 height:720 frameType:0
[081:965] [2025-02-05 14:14:29 +0000.895340][764a] The convert RGB to YUV take 3
[081:965] [2025-02-05 14:14:29 +0000.896274][7736] DTS queue for
Generator:0x773a3798b8 2416 2453 2488
[082:131] [2025-02-05 14:14:30 +0000.61713][7736] Push an pts:2653 to dts queue.
[082:202] [2025-02-05 14:14:30 +0000.132563][7736] last dts:2620 currentPts:2653
ppsOrSPS:0 queue length:3
[082:341] [2025-02-05 14:14:30 +0000.272107][7755]
Warning(audio_device_generic.cc:206): No Audio Processing is done for output datas.
[082:430] [2025-02-05 14:14:30 +0000.361057][764a] The read pixel from buffer take:
0 width:1280 height:720 frameType:0
[082:469] [2025-02-05 14:14:30 +0000.400298][764a] The convert RGB to YUV take 3
[082:557] [2025-02-05 14:14:30 +0000.487442][772f] Create the audio converter 44100
Hz format:1 channels:2 old channels: 3 Hz: 44100 format:1
[082:557] [2025-02-05 14:14:30 +0000.488110][772f] Create the audio converter 44100
Hz format:1 channels:2 old channels: 3 Hz: 44100 format:1
[082:561] [2025-02-05 14:14:30 +0000.491544][772f] Create the audio converter 44100
Hz format:1 channels:2 old channels: 3 Hz: 44100 format:1
[082:563] [2025-02-05 14:14:30 +0000.493849][772f] Create the audio converter 44100
Hz format:1 channels:2 old channels: 3 Hz: 44100 format:1
[082:566] [2025-02-05 14:14:30 +0000.497236][772f] Create the audio converter 44100
Hz format:1 channels:2 old channels: 3 Hz: 44100 format:1
[082:567] [2025-02-05 14:14:30 +0000.497886][772f] Create the audio converter 44100
Hz format:1 channels:2 old channels: 3 Hz: 44100 format:1
[082:572] [2025-02-05 14:14:30 +0000.502934][772f] Create the audio converter 44100
Hz format:1 channels:2 old channels: 3 Hz: 44100 format:1
[082:573] [2025-02-05 14:14:30 +0000.503638][772f] Create the audio converter 44100
Hz format:1 channels:2 old channels: 3 Hz: 44100 format:1
[082:576] [2025-02-05 14:14:30 +0000.506582][772f] Create the audio converter 44100
Hz format:1 channels:2 old channels: 3 Hz: 44100 format:1
[082:577] [2025-02-05 14:14:30 +0000.508290][772f] Create the audio converter 44100
Hz format:1 channels:2 old channels: 3 Hz: 44100 format:1
[082:580] [2025-02-05 14:14:30 +0000.511047][772f] Create the audio converter 44100
Hz format:1 channels:2 old channels: 3 Hz: 44100 format:1
[082:582] [2025-02-05 14:14:30 +0000.512792][772f] Create the audio converter 44100
Hz format:1 channels:2 old channels: 3 Hz: 44100 format:1
[082:584] [2025-02-05 14:14:30 +0000.515152][772f] Create the audio converter 44100
Hz format:1 channels:2 old channels: 3 Hz: 44100 format:1
[082:585] [2025-02-05 14:14:30 +0000.515576][772f] Create the audio converter 44100
Hz format:1 channels:2 old channels: 3 Hz: 44100 format:1
[082:588] [2025-02-05 14:14:30 +0000.519195][772f] Create the audio converter 44100
Hz format:1 channels:2 old channels: 3 Hz: 44100 format:1
[082:589] [2025-02-05 14:14:30 +0000.519609][772f] Create the audio converter 44100
Hz format:1 channels:2 old channels: 3 Hz: 44100 format:1
[082:591] [2025-02-05 14:14:30 +0000.522050][772f] Create the audio converter 44100
Hz format:1 channels:2 old channels: 3 Hz: 44100 format:1
[082:593] [2025-02-05 14:14:30 +0000.523699][772f] Create the audio converter 44100
Hz format:1 channels:2 old channels: 3 Hz: 44100 format:1
[082:596] [2025-02-05 14:14:30 +0000.526434][772f] Create the audio converter 44100
Hz format:1 channels:2 old channels: 3 Hz: 44100 format:1
[082:596] [2025-02-05 14:14:30 +0000.527341][772f] Create the audio converter 44100
Hz format:1 channels:2 old channels: 3 Hz: 44100 format:1
[082:600] [2025-02-05 14:14:30 +0000.530501][772f] Create the audio converter 44100
Hz format:1 channels:2 old channels: 3 Hz: 44100 format:1
[082:600] [2025-02-05 14:14:30 +0000.531233][772f] Create the audio converter 44100
Hz format:1 channels:2 old channels: 3 Hz: 44100 format:1
[082:603] [2025-02-05 14:14:30 +0000.533654][772f] Create the audio converter 44100
Hz format:1 channels:2 old channels: 3 Hz: 44100 format:1
[082:604] [2025-02-05 14:14:30 +0000.535026][772f] Create the audio converter 44100
Hz format:1 channels:2 old channels: 3 Hz: 44100 format:1
[082:606] [2025-02-05 14:14:30 +0000.537176][772f] Create the audio converter 44100
Hz format:1 channels:2 old channels: 3 Hz: 44100 format:1
[082:607] [2025-02-05 14:14:30 +0000.537817][772f] Create the audio converter 44100
Hz format:1 channels:2 old channels: 3 Hz: 44100 format:1
[082:686] [2025-02-05 14:14:30 +0000.617192][764f] Run AGC when audioType = 0
[082:687] [2025-02-05 14:14:30 +0000.617355][764f]
AudioDeviceDataHandler::MixAndSendOutFrame
[082:725] [2025-02-05 14:14:30 +0000.655369][764a] drawYUV420 render
OpenGLRenderProgram:0x77cc4c3798
[082:794] [2025-02-05 14:14:30 +0000.724613][764a] GPUImageProcessing: process
video frame with resolution 1280 X 720
[082:794] [2025-02-05 14:14:30 +0000.724724][764a] GPUImageProcessing: input frame
width1280 X 720
[082:794] [2025-02-05 14:14:30 +0000.725204][764a] The next ready buffer:0
m_nextAvaiablePixelBuffer:1
[082:794] [2025-02-05 14:14:30 +0000.725295][764a] The next ready buffer:0
m_nextAvaiablePixelBuffer:1
[082:801] [2025-02-05 14:14:30 +0000.731875][7736]
MediaFilterCamera::WriteVideoFrametoMP4_w -> pushExtraYUVFrametimestamp:3322
[082:801] [2025-02-05 14:14:30 +0000.732086][7736] DTS queue for
Generator:0x773a3798b8 3252 3289 3322
[082:837] [2025-02-05 14:14:30 +0000.767425][7736] RecordingSessionInternalSimple:
pushExtraYUVFrame. width:1280 height:720input pixel type:0 dataType:0 stride:1280
streamId:1 timestamp:3359
[082:837] [2025-02-05 14:14:30 +0000.767614][7736] push video frame to H264
encoder. (100 frame for one log)
[082:837] [2025-02-05 14:14:30 +0000.767688][7736] push video frame to H264
encoder. (100 frame for one log) used width:1280 height:720
[082:837] [2025-02-05 14:14:30 +0000.767752][7736] H264Encode::push video frame to
H264 encoder, using hw H264:1 width:1280 height:720 pts:3359(100 frame for one
log)
[082:837] [2025-02-05 14:14:30 +0000.767821][7736] The input pts:3359 fps:30
[082:840] [2025-02-05 14:14:30 +0000.770907][7736] H264Encode::H264 encoder push
frame to next component(100 times for one log) with dts:3289 pts:3289
[082:873] [2025-02-05 14:14:30 +0000.803436][7736] SendFrame
encodedImage._timeStamp:3322encodedImage->_length:142944
[082:905] [2025-02-05 14:14:30 +0000.835345][7736] H264Encode::H264SWEncoder get
callback, length:156880 type:1 nalType:1length:156876
[082:927] [2025-02-05 14:14:30 +0000.857804][764a] The read pixel from buffer take:
0 width:1280 height:720 frameType:0
[082:965] [2025-02-05 14:14:30 +0000.895905][764a] The convert RGB to YUV take 4
[083:374] [2025-02-05 14:14:31 +0000.305133][7755]
Warning(audio_device_generic.cc:206): No Audio Processing is done for output datas.
[083:441] [2025-02-05 14:14:31 +0000.371503][764a] The read pixel from buffer take:
0 width:1280 height:720 frameType:0
[083:481] [2025-02-05 14:14:31 +0000.411520][764a] The convert RGB to YUV take 7
[083:482] [2025-02-05 14:14:31 +0000.413253][7736] Push an pts:4001 to dts queue.
[083:530] [2025-02-05 14:14:31 +0000.461296][764f] haveEnoughProcessedData
[Link]: 0
[083:549] [2025-02-05 14:14:31 +0000.480232][7736] h264 add frame header cdr flag
[083:550] [2025-02-05 14:14:31 +0000.480876][7736] Received key frame:4001
[083:550] [2025-02-05 14:14:31 +0000.481021][7736] last dts:3967 currentPts:4001
ppsOrSPS:0 queue length:3
[083:578] [2025-02-05 14:14:31 +0000.508568][764a] webrtc common_video plane
old ..... (1/1000) new: 2001 delete: 1984 diff: 17
[083:586] [2025-02-05 14:14:31 +0000.516494][7737] get the H.264 IDR frame
[083:612] [2025-02-05 14:14:31 +0000.542515][7736] DTS queue for
Generator:0x773a3798b8 4101 4131
[083:936] [2025-02-05 14:14:31 +0000.866339][764a] The read pixel from buffer take:
1 width:1280 height:720 frameType:0
[083:972] [2025-02-05 14:14:31 +0000.902611][764a] The convert RGB to YUV take 4
[084:348] [2025-02-05 14:14:32 +0000.279045][7755]
Warning(audio_device_generic.cc:206): No Audio Processing is done for output datas.
[084:436] [2025-02-05 14:14:32 +0000.367221][764a] The read pixel from buffer take:
0 width:1280 height:720 frameType:0
[084:445] [2025-02-05 14:14:32 +0000.375981][7736] DTS queue for
Generator:0x773a3798b8 4926 4964
[084:464] [2025-02-05 14:14:32 +0000.395118][764a] The convert RGB to YUV take 4
[084:608] [2025-02-05 14:14:32 +0000.539299][772f] The audio playback speed:100
(1/100)
[084:609] [2025-02-05 14:14:32 +0000.539746][772f] lipsync_debug: The current
played audio timestamp is:8550(1/50)
[084:612] [2025-02-05 14:14:32 +0000.542970][772f] Create the audio converter 44100
Hz format:1 channels:2 old channels: 3 Hz: 44100 format:1
[084:613] [2025-02-05 14:14:32 +0000.543714][772f] Create the audio converter 44100
Hz format:1 channels:2 old channels: 3 Hz: 44100 format:1
[084:616] [2025-02-05 14:14:32 +0000.546948][772f] Create the audio converter 44100
Hz format:1 channels:2 old channels: 3 Hz: 44100 format:1
[084:618] [2025-02-05 14:14:32 +0000.548545][772f] Create the audio converter 44100
Hz format:1 channels:2 old channels: 3 Hz: 44100 format:1
[084:620] [2025-02-05 14:14:32 +0000.551153][772f] Create the audio converter 44100
Hz format:1 channels:2 old channels: 3 Hz: 44100 format:1
[084:622] [2025-02-05 14:14:32 +0000.552628][772f] Create the audio converter 44100
Hz format:1 channels:2 old channels: 3 Hz: 44100 format:1
[084:624] [2025-02-05 14:14:32 +0000.554988][772f] Create the audio converter 44100
Hz format:1 channels:2 old channels: 3 Hz: 44100 format:1
[084:625] [2025-02-05 14:14:32 +0000.555466][772f] Create the audio converter 44100
Hz format:1 channels:2 old channels: 3 Hz: 44100 format:1
[084:628] [2025-02-05 14:14:32 +0000.559052][772f] Create the audio converter 44100
Hz format:1 channels:2 old channels: 3 Hz: 44100 format:1
[084:629] [2025-02-05 14:14:32 +0000.559475][772f] Create the audio converter 44100
Hz format:1 channels:2 old channels: 3 Hz: 44100 format:1
[084:631] [2025-02-05 14:14:32 +0000.561925][772f] Create the audio converter 44100
Hz format:1 channels:2 old channels: 3 Hz: 44100 format:1
[084:633] [2025-02-05 14:14:32 +0000.563716][772f] Create the audio converter 44100
Hz format:1 channels:2 old channels: 3 Hz: 44100 format:1
[084:635] [2025-02-05 14:14:32 +0000.566060][772f] Create the audio converter 44100
Hz format:1 channels:2 old channels: 3 Hz: 44100 format:1
[084:636] [2025-02-05 14:14:32 +0000.566724][772f] Create the audio converter 44100
Hz format:1 channels:2 old channels: 3 Hz: 44100 format:1
[084:639] [2025-02-05 14:14:32 +0000.569829][772f] Create the audio converter 44100
Hz format:1 channels:2 old channels: 3 Hz: 44100 format:1
[084:640] [2025-02-05 14:14:32 +0000.570457][772f] Create the audio converter 44100
Hz format:1 channels:2 old channels: 3 Hz: 44100 format:1
[084:642] [2025-02-05 14:14:32 +0000.572564][772f] Create the audio converter 44100
Hz format:1 channels:2 old channels: 3 Hz: 44100 format:1
[084:643] [2025-02-05 14:14:32 +0000.573884][772f] Create the audio converter 44100
Hz format:1 channels:2 old channels: 3 Hz: 44100 format:1
[084:645] [2025-02-05 14:14:32 +0000.575858][772f] Create the audio converter 44100
Hz format:1 channels:2 old channels: 3 Hz: 44100 format:1
[084:646] [2025-02-05 14:14:32 +0000.576621][772f] Create the audio converter 44100
Hz format:1 channels:2 old channels: 3 Hz: 44100 format:1
[084:649] [2025-02-05 14:14:32 +0000.580145][772f] Create the audio converter 44100
Hz format:1 channels:2 old channels: 3 Hz: 44100 format:1
[084:650] [2025-02-05 14:14:32 +0000.580844][772f] Create the audio converter 44100
Hz format:1 channels:2 old channels: 3 Hz: 44100 format:1
[084:652] [2025-02-05 14:14:32 +0000.582882][772f] Create the audio converter 44100
Hz format:1 channels:2 old channels: 3 Hz: 44100 format:1
[084:653] [2025-02-05 14:14:32 +0000.584277][772f] Create the audio converter 44100
Hz format:1 channels:2 old channels: 3 Hz: 44100 format:1
[084:656] [2025-02-05 14:14:32 +0000.586493][772f] Create the audio converter 44100
Hz format:1 channels:2 old channels: 3 Hz: 44100 format:1
[084:690] [2025-02-05 14:14:32 +0000.620689][764f] Run AGC when audioType = 0
[084:804] [2025-02-05 14:14:32 +0000.734833][7736] Push an pts:5326 to dts queue.
[084:883] [2025-02-05 14:14:32 +0000.813720][7736] last dts:5289 currentPts:5326
ppsOrSPS:0 queue length:3
[084:936] [2025-02-05 14:14:32 +0000.867107][764a] The read pixel from buffer take:
0 width:1280 height:720 frameType:0
[084:975] [2025-02-05 14:14:32 +0000.906208][764a] The convert RGB to YUV take 4
[085:249] [2025-02-05 14:14:33 +0000.179594][764f] haveEnoughProcessedData
[Link]: 10
[085:279] [2025-02-05 14:14:33 +0000.210285][7736] DTS queue for
Generator:0x773a3798b8 5759 5795
[085:375] [2025-02-05 14:14:33 +0000.306247][7755]
Warning(audio_device_generic.cc:206): No Audio Processing is done for output datas.
[085:425] [2025-02-05 14:14:33 +0000.356129][764a] The read pixel from buffer take:
0 width:1280 height:720 frameType:0
[085:470] [2025-02-05 14:14:33 +0000.400923][764a] The convert RGB to YUV take 5
[085:548] [2025-02-05 14:14:33 +0000.479072][7736] h264 add frame header cdr flag
[085:549] [2025-02-05 14:14:33 +0000.479873][7736] Received key frame:5993
[085:552] [2025-02-05 14:14:33 +0000.483024][7737] get the H.264 IDR frame
[085:658] [2025-02-05 14:14:33 +0000.588852][764a] webrtc common_video plane
old ..... (1/1000) new: 3001 delete: 2980 diff: 21
[085:933] [2025-02-05 14:14:33 +0000.864186][764a] The read pixel from buffer take:
0 width:1280 height:720 frameType:0
[085:973] [2025-02-05 14:14:33 +0000.903773][764a] The convert RGB to YUV take 4
[086:071] [2025-02-05 14:14:34 +0000.1795][764a] drawYUV420 render
OpenGLRenderProgram:0x77cc4c3798
[086:107] [2025-02-05 14:14:34 +0000.37862][7736] DTS queue for
Generator:0x773a3798b8 6560 6598 6626
[086:140] [2025-02-05 14:14:34 +0000.71079][7736]
MediaFilterCamera::WriteVideoFrametoMP4_w -> pushExtraYUVFrametimestamp:6659
[086:140] [2025-02-05 14:14:34 +0000.71253][7736] Push an pts:6659 to dts queue.
[086:159] [2025-02-05 14:14:34 +0000.90203][764a] GPUImageProcessing: process video
frame with resolution 1280 X 720
[086:160] [2025-02-05 14:14:34 +0000.90317][764a] GPUImageProcessing: input frame
width1280 X 720
[086:160] [2025-02-05 14:14:34 +0000.90619][764a] The next ready buffer:1
m_nextAvaiablePixelBuffer:0
[086:160] [2025-02-05 14:14:34 +0000.90680][764a] The next ready buffer:1
m_nextAvaiablePixelBuffer:0
[086:204] [2025-02-05 14:14:34 +0000.135206][7736] RecordingSessionInternalSimple:
pushExtraYUVFrame. width:1280 height:720input pixel type:0 dataType:0 stride:1280
streamId:1 timestamp:6726
[086:205] [2025-02-05 14:14:34 +0000.135470][7736] push video frame to H264
encoder. (100 frame for one log)
[086:205] [2025-02-05 14:14:34 +0000.135576][7736] push video frame to H264
encoder. (100 frame for one log) used width:1280 height:720
[086:205] [2025-02-05 14:14:34 +0000.135626][7736] H264Encode::push video frame to
H264 encoder, using hw H264:1 width:1280 height:720 pts:6726(100 frame for one
log)
[086:205] [2025-02-05 14:14:34 +0000.135692][7736] The input pts:6726 fps:30
[086:209] [2025-02-05 14:14:34 +0000.140343][7736] SendFrame
encodedImage._timeStamp:6659encodedImage->_length:126016
[086:210] [2025-02-05 14:14:34 +0000.140621][7736] last dts:6626 currentPts:6659
ppsOrSPS:0 queue length:3
[086:210] [2025-02-05 14:14:34 +0000.140685][7736] H264Encode::H264 encoder push
frame to next component(100 times for one log) with dts:6659 pts:6659
[086:268] [2025-02-05 14:14:34 +0000.199148][7736] H264Encode::H264SWEncoder get
callback, length:158928 type:1 nalType:1length:158924
[086:352] [2025-02-05 14:14:34 +0000.282932][7755]
Warning(audio_device_generic.cc:206): No Audio Processing is done for output datas.
[086:429] [2025-02-05 14:14:34 +0000.359630][764a] The read pixel from buffer take:
0 width:1280 height:720 frameType:0
[086:474] [2025-02-05 14:14:34 +0000.404445][764a] The convert RGB to YUV take 5
[086:658] [2025-02-05 14:14:34 +0000.588740][772f] Create the audio converter 44100
Hz format:1 channels:2 old channels: 3 Hz: 44100 format:1
[086:659] [2025-02-05 14:14:34 +0000.589552][772f] The audio playback speed:100
(1/100)
[086:660] [2025-02-05 14:14:34 +0000.590637][772f] lipsync_debug: The current
played audio timestamp is:10680(1/50)
[086:660] [2025-02-05 14:14:34 +0000.590846][772f] Create the audio converter 44100
Hz format:1 channels:2 old channels: 3 Hz: 44100 format:1
[086:660] [2025-02-05 14:14:34 +0000.591187][772f] Create the audio converter 44100
Hz format:1 channels:2 old channels: 3 Hz: 44100 format:1
[086:663] [2025-02-05 14:14:34 +0000.594116][772f] Create the audio converter 44100
Hz format:1 channels:2 old channels: 3 Hz: 44100 format:1
[086:664] [2025-02-05 14:14:34 +0000.594507][772f] Create the audio converter 44100
Hz format:1 channels:2 old channels: 3 Hz: 44100 format:1
[086:666] [2025-02-05 14:14:34 +0000.596525][772f] Create the audio converter 44100
Hz format:1 channels:2 old channels: 3 Hz: 44100 format:1
[086:666] [2025-02-05 14:14:34 +0000.597010][772f] Create the audio converter 44100
Hz format:1 channels:2 old channels: 3 Hz: 44100 format:1
[086:669] [2025-02-05 14:14:34 +0000.600056][772f] Create the audio converter 44100
Hz format:1 channels:2 old channels: 3 Hz: 44100 format:1
[086:670] [2025-02-05 14:14:34 +0000.600498][772f] Create the audio converter 44100
Hz format:1 channels:2 old channels: 3 Hz: 44100 format:1
[086:673] [2025-02-05 14:14:34 +0000.603484][772f] Create the audio converter 44100
Hz format:1 channels:2 old channels: 3 Hz: 44100 format:1
[086:673] [2025-02-05 14:14:34 +0000.604258][772f] Create the audio converter 44100
Hz format:1 channels:2 old channels: 3 Hz: 44100 format:1
[086:676] [2025-02-05 14:14:34 +0000.606615][772f] Create the audio converter 44100
Hz format:1 channels:2 old channels: 3 Hz: 44100 format:1
[086:677] [2025-02-05 14:14:34 +0000.608101][772f] Create the audio converter 44100
Hz format:1 channels:2 old channels: 3 Hz: 44100 format:1
[086:680] [2025-02-05 14:14:34 +0000.610508][772f] Create the audio converter 44100
Hz format:1 channels:2 old channels: 3 Hz: 44100 format:1
[086:680] [2025-02-05 14:14:34 +0000.611096][772f] Create the audio converter 44100
Hz format:1 channels:2 old channels: 3 Hz: 44100 format:1
[086:684] [2025-02-05 14:14:34 +0000.614508][772f] Create the audio converter 44100
Hz format:1 channels:2 old channels: 3 Hz: 44100 format:1
[086:684] [2025-02-05 14:14:34 +0000.614999][772f] Create the audio converter 44100
Hz format:1 channels:2 old channels: 3 Hz: 44100 format:1
[086:686] [2025-02-05 14:14:34 +0000.617022][772f] Create the audio converter 44100
Hz format:1 channels:2 old channels: 3 Hz: 44100 format:1
[086:688] [2025-02-05 14:14:34 +0000.618479][772f] Create the audio converter 44100
Hz format:1 channels:2 old channels: 3 Hz: 44100 format:1
[086:690] [2025-02-05 14:14:34 +0000.621019][772f] Create the audio converter 44100
Hz format:1 channels:2 old channels: 3 Hz: 44100 format:1
[086:691] [2025-02-05 14:14:34 +0000.621686][772f] Create the audio converter 44100
Hz format:1 channels:2 old channels: 3 Hz: 44100 format:1
[086:692] [2025-02-05 14:14:34 +0000.622686][764f] Run AGC when audioType = 0
[086:692] [2025-02-05 14:14:34 +0000.622797][764f]
AudioDeviceDataHandler::MixAndSendOutFrame
[086:694] [2025-02-05 14:14:34 +0000.624383][772f] Create the audio converter 44100
Hz format:1 channels:2 old channels: 3 Hz: 44100 format:1
[086:694] [2025-02-05 14:14:34 +0000.624773][772f] Create the audio converter 44100
Hz format:1 channels:2 old channels: 3 Hz: 44100 format:1
[086:697] [2025-02-05 14:14:34 +0000.627736][772f] Create the audio converter 44100
Hz format:1 channels:2 old channels: 3 Hz: 44100 format:1
[086:697] [2025-02-05 14:14:34 +0000.628192][772f] Create the audio converter 44100
Hz format:1 channels:2 old channels: 3 Hz: 44100 format:1
[086:928] [2025-02-05 14:14:34 +0000.859260][764a] The read pixel from buffer take:
0 width:1280 height:720 frameType:0
[086:935] [2025-02-05 14:14:34 +0000.865789][7736] DTS queue for
Generator:0x773a3798b8 7387 7421 7455
[086:966] [2025-02-05 14:14:34 +0000.896658][764a] The convert RGB to YUV take 4
[086:971] [2025-02-05 14:14:34 +0000.901530][764f] haveEnoughProcessedData
[Link]: 10
[087:376] [2025-02-05 14:14:35 +0000.306537][7755]
Warning(audio_device_generic.cc:206): No Audio Processing is done for output datas.
[087:423] [2025-02-05 14:14:35 +0000.353627][764a] The read pixel from buffer take:
0 width:1280 height:720 frameType:0
[087:467] [2025-02-05 14:14:35 +0000.398332][764a] The convert RGB to YUV take 4
[087:470] [2025-02-05 14:14:35 +0000.400539][7736] Push an pts:7990 to dts queue.
[087:536] [2025-02-05 14:14:35 +0000.466577][7736] h264 add frame header cdr flag
[087:537] [2025-02-05 14:14:35 +0000.467349][7736] Received key frame:7990
[087:537] [2025-02-05 14:14:35 +0000.467423][7736] last dts:7950 currentPts:7990
ppsOrSPS:0 queue length:3
[087:570] [2025-02-05 14:14:35 +0000.500646][7737] get the H.264 IDR frame
[087:736] [2025-02-05 14:14:35 +0000.666744][764a] webrtc common_video plane
old ..... (1/1000) new: 4001 delete: 3984 diff: 17
[087:745] [2025-02-05 14:14:35 +0000.675946][7736] DTS queue for
Generator:0x773a3798b8 8224 8258
[087:924] [2025-02-05 14:14:35 +0000.855232][764a] The read pixel from buffer take:
0 width:1280 height:720 frameType:0
[087:960] [2025-02-05 14:14:35 +0000.890421][764a] The convert RGB to YUV take 4
[088:335] [2025-02-05 14:14:36 +0000.265979][7755]
Warning(audio_device_generic.cc:206): No Audio Processing is done for output datas.
[088:433] [2025-02-05 14:14:36 +0000.363359][764a] The read pixel from buffer take:
1 width:1280 height:720 frameType:0
[088:468] [2025-02-05 14:14:36 +0000.399009][764a] The convert RGB to YUV take 4
[088:583] [2025-02-05 14:14:36 +0000.513969][7736] DTS queue for
Generator:0x773a3798b8 9061 9097
[088:688] [2025-02-05 14:14:36 +0000.618892][764f] Run AGC when audioType = 0
[088:688] [2025-02-05 14:14:36 +0000.619052][764f] haveEnoughProcessedData
[Link]: 0
[088:700] [2025-02-05 14:14:36 +0000.631191][772f] Create the audio converter 44100
Hz format:1 channels:2 old channels: 3 Hz: 44100 format:1
[088:701] [2025-02-05 14:14:36 +0000.632192][772f] Create the audio converter 44100
Hz format:1 channels:2 old channels: 3 Hz: 44100 format:1
[088:707] [2025-02-05 14:14:36 +0000.637760][772f] Create the audio converter 44100
Hz format:1 channels:2 old channels: 3 Hz: 44100 format:1
[088:707] [2025-02-05 14:14:36 +0000.638282][772f] The audio playback speed:100
(1/100)
[088:708] [2025-02-05 14:14:36 +0000.638740][772f] lipsync_debug: The current
played audio timestamp is:12820(1/50)
[088:708] [2025-02-05 14:14:36 +0000.638823][772f] Create the audio converter 44100
Hz format:1 channels:2 old channels: 3 Hz: 44100 format:1
[088:712] [2025-02-05 14:14:36 +0000.643262][772f] Create the audio converter 44100
Hz format:1 channels:2 old channels: 3 Hz: 44100 format:1
[088:713] [2025-02-05 14:14:36 +0000.644215][772f] Create the audio converter 44100
Hz format:1 channels:2 old channels: 3 Hz: 44100 format:1
[088:716] [2025-02-05 14:14:36 +0000.646827][772f] Create the audio converter 44100
Hz format:1 channels:2 old channels: 3 Hz: 44100 format:1
[088:717] [2025-02-05 14:14:36 +0000.648164][772f] Create the audio converter 44100
Hz format:1 channels:2 old channels: 3 Hz: 44100 format:1
[088:719] [2025-02-05 14:14:36 +0000.650291][772f] Create the audio converter 44100
Hz format:1 channels:2 old channels: 3 Hz: 44100 format:1
[088:720] [2025-02-05 14:14:36 +0000.650816][772f] Create the audio converter 44100
Hz format:1 channels:2 old channels: 3 Hz: 44100 format:1
[088:724] [2025-02-05 14:14:36 +0000.654484][772f] Create the audio converter 44100
Hz format:1 channels:2 old channels: 3 Hz: 44100 format:1
[088:724] [2025-02-05 14:14:36 +0000.654966][772f] Create the audio converter 44100
Hz format:1 channels:2 old channels: 3 Hz: 44100 format:1
[088:726] [2025-02-05 14:14:36 +0000.656925][772f] Create the audio converter 44100
Hz format:1 channels:2 old channels: 3 Hz: 44100 format:1
[088:727] [2025-02-05 14:14:36 +0000.658270][772f] Create the audio converter 44100
Hz format:1 channels:2 old channels: 3 Hz: 44100 format:1
[088:730] [2025-02-05 14:14:36 +0000.660378][772f] Create the audio converter 44100
Hz format:1 channels:2 old channels: 3 Hz: 44100 format:1
[088:731] [2025-02-05 14:14:36 +0000.661563][772f] Create the audio converter 44100
Hz format:1 channels:2 old channels: 3 Hz: 44100 format:1
[088:734] [2025-02-05 14:14:36 +0000.664695][772f] Create the audio converter 44100
Hz format:1 channels:2 old channels: 3 Hz: 44100 format:1
[088:735] [2025-02-05 14:14:36 +0000.665473][772f] Create the audio converter 44100
Hz format:1 channels:2 old channels: 3 Hz: 44100 format:1
[088:738] [2025-02-05 14:14:36 +0000.668568][772f] Create the audio converter 44100
Hz format:1 channels:2 old channels: 3 Hz: 44100 format:1
[088:739] [2025-02-05 14:14:36 +0000.669514][772f] Create the audio converter 44100
Hz format:1 channels:2 old channels: 3 Hz: 44100 format:1
[088:741] [2025-02-05 14:14:36 +0000.671494][772f] Create the audio converter 44100
Hz format:1 channels:2 old channels: 3 Hz: 44100 format:1
[088:741] [2025-02-05 14:14:36 +0000.672154][772f] Create the audio converter 44100
Hz format:1 channels:2 old channels: 3 Hz: 44100 format:1
[088:744] [2025-02-05 14:14:36 +0000.675078][772f] Create the audio converter 44100
Hz format:1 channels:2 old channels: 3 Hz: 44100 format:1
[088:745] [2025-02-05 14:14:36 +0000.675506][772f] Create the audio converter 44100
Hz format:1 channels:2 old channels: 3 Hz: 44100 format:1
[088:747] [2025-02-05 14:14:36 +0000.678155][772f] Create the audio converter 44100
Hz format:1 channels:2 old channels: 3 Hz: 44100 format:1
[088:748] [2025-02-05 14:14:36 +0000.678581][772f] Create the audio converter 44100
Hz format:1 channels:2 old channels: 3 Hz: 44100 format:1
[088:800] [2025-02-05 14:14:36 +0000.730986][7736] Push an pts:9321 to dts queue.
[088:868] [2025-02-05 14:14:36 +0000.799312][7736] last dts:9292 currentPts:9321
ppsOrSPS:0 queue length:3
[088:924] [2025-02-05 14:14:36 +0000.854993][764a] The read pixel from buffer take:
0 width:1280 height:720 frameType:0
[088:966] [2025-02-05 14:14:36 +0000.897074][764a] The convert RGB to YUV take 5
[089:377] [2025-02-05 14:14:37 +0000.307882][7755]
Warning(audio_device_generic.cc:206): No Audio Processing is done for output datas.
[089:395] [2025-02-05 14:14:37 +0000.326228][764a] drawYUV420 render
OpenGLRenderProgram:0x77cc4c3798
[089:410] [2025-02-05 14:14:37 +0000.340509][7736] DTS queue for
Generator:0x773a3798b8 9896 9923
[089:432] [2025-02-05 14:14:37 +0000.362556][764a] The read pixel from buffer take:
0 width:1280 height:720 frameType:0
[089:469] [2025-02-05 14:14:37 +0000.400126][764a] The convert RGB to YUV take 4
[089:471] [2025-02-05 14:14:37 +0000.402306][7736]
MediaFilterCamera::WriteVideoFrametoMP4_w -> pushExtraYUVFrametimestamp:9992
[089:538] [2025-02-05 14:14:37 +0000.469121][764a] GPUImageProcessing: process
video frame with resolution 1280 X 720
[089:538] [2025-02-05 14:14:37 +0000.469275][764a] GPUImageProcessing: input frame
width1280 X 720
[089:539] [2025-02-05 14:14:37 +0000.469939][764a] The next ready buffer:0
m_nextAvaiablePixelBuffer:1
[089:539] [2025-02-05 14:14:37 +0000.470045][764a] The next ready buffer:0
m_nextAvaiablePixelBuffer:1
[089:550] [2025-02-05 14:14:37 +0000.481100][7736] h264 add frame header cdr flag
[089:551] [2025-02-05 14:14:37 +0000.482259][7736] SendFrame
encodedImage._timeStamp:9992encodedImage->_length:193264
[089:552] [2025-02-05 14:14:37 +0000.482633][7736] Received key frame:9992
[089:585] [2025-02-05 14:14:37 +0000.516187][7736] RecordingSessionInternalSimple:
pushExtraYUVFrame. width:1280 height:720input pixel type:0 dataType:0 stride:1280
streamId:1 timestamp:10106
[089:586] [2025-02-05 14:14:37 +0000.516340][7736] push video frame to H264
encoder. (100 frame for one log)
[089:586] [2025-02-05 14:14:37 +0000.516385][7736] push video frame to H264
encoder. (100 frame for one log) used width:1280 height:720
[089:586] [2025-02-05 14:14:37 +0000.516428][7736] H264Encode::push video frame to
H264 encoder, using hw H264:1 width:1280 height:720 pts:10106(100 frame for one
log)
[089:586] [2025-02-05 14:14:37 +0000.516498][7736] The input pts:10106 fps:30
[089:590] [2025-02-05 14:14:37 +0000.520836][7736] H264Encode::H264 encoder push
frame to next component(100 times for one log) with dts:10032 pts:10032
[089:592] [2025-02-05 14:14:37 +0000.522502][7737] get the H.264 IDR frame
[089:661] [2025-02-05 14:14:37 +0000.591613][7736] H264Encode::H264SWEncoder get
callback, length:161040 type:1 nalType:1length:161036
[089:835] [2025-02-05 14:14:37 +0000.766083][764a] webrtc common_video plane
old ..... (1/1000) new: 5001 delete: 4984 diff: 17
[089:936] [2025-02-05 14:14:37 +0000.866854][764a] The read pixel from buffer take:
0 width:1280 height:720 frameType:0
[089:976] [2025-02-05 14:14:37 +0000.906989][764a] The convert RGB to YUV take 4
[090:137] [2025-02-05 14:14:38 +0000.67626][7736] Push an pts:10659 to dts queue.
[090:207] [2025-02-05 14:14:38 +0000.137629][7736] last dts:10628 currentPts:10659
ppsOrSPS:0 queue length:3
[090:241] [2025-02-05 14:14:38 +0000.171968][7736] DTS queue for
Generator:0x773a3798b8 10693 10727 10762
[090:378] [2025-02-05 14:14:38 +0000.308359][7755]
Warning(audio_device_generic.cc:206): No Audio Processing is done for output datas.
[090:412] [2025-02-05 14:14:38 +0000.343311][764f] haveEnoughProcessedData
[Link]: 10
[090:435] [2025-02-05 14:14:38 +0000.366045][764a] The read pixel from buffer take:
0 width:1280 height:720 frameType:0
[090:471] [2025-02-05 14:14:38 +0000.402164][764a] The convert RGB to YUV take 4
[090:566] [2025-02-05 14:14:38 +0000.496700][764a] webrtc common_video
I420VideoFrame::CopyFrame (1/1000)
[090:687] [2025-02-05 14:14:38 +0000.617664][7650] webrtc device:Handle the data
from samplesPerSec recording sample rate:48000 nSamples:480 nBytesPerSample:#
nChannels:#
[090:687] [2025-02-05 14:14:38 +0000.617861][7650] _deviceSampleRate:48000
[090:689] [2025-02-05 14:14:38 +0000.620055][764f] Run AGC when audioType = 0
[090:689] [2025-02-05 14:14:38 +0000.620230][764f]
AudioDeviceDataHandler::MixAndSendOutFrame
[090:751] [2025-02-05 14:14:38 +0000.681448][772f] Create the audio converter 44100
Hz format:1 channels:2 old channels: 3 Hz: 44100 format:1
[090:752] [2025-02-05 14:14:38 +0000.682953][772f] Create the audio converter 44100
Hz format:1 channels:2 old channels: 3 Hz: 44100 format:1
[090:754] [2025-02-05 14:14:38 +0000.684798][772f] Create the audio converter 44100
Hz format:1 channels:2 old channels: 3 Hz: 44100 format:1
[090:755] [2025-02-05 14:14:38 +0000.685392][772f] Create the audio converter 44100
Hz format:1 channels:2 old channels: 3 Hz: 44100 format:1
[090:756] [2025-02-05 14:14:38 +0000.686598][772f] The audio playback speed:100
(1/100)
[090:756] [2025-02-05 14:14:38 +0000.686855][772f] lipsync_debug: The current
played audio timestamp is:14950(1/50)
[090:758] [2025-02-05 14:14:38 +0000.688459][772f] Create the audio converter 44100
Hz format:1 channels:2 old channels: 3 Hz: 44100 format:1
[090:930] [2025-02-05 14:14:38 +0000.860814][764a] The read pixel from buffer take:
0 width:1280 height:720 frameType:0
[090:964] [2025-02-05 14:14:38 +0000.894415][764a] The convert RGB to YUV take 5
[091:074] [2025-02-05 14:14:39 +0000.4553][7736] DTS queue for
Generator:0x773a3798b8 11530 11562 11595
[091:336] [2025-02-05 14:14:39 +0000.266685][7755]
Warning(audio_device_generic.cc:206): No Audio Processing is done for output datas.
[091:433] [2025-02-05 14:14:39 +0000.363405][764a] The read pixel from buffer take:
0 width:1280 height:720 frameType:0
[091:469] [2025-02-05 14:14:39 +0000.400035][764a] The convert RGB to YUV take 4
[091:472] [2025-02-05 14:14:39 +0000.402869][7736] Push an pts:11992 to dts queue.
[091:548] [2025-02-05 14:14:39 +0000.478438][7736] h264 add frame header cdr flag
[091:549] [2025-02-05 14:14:39 +0000.479487][7736] Received key frame:11992
[091:549] [2025-02-05 14:14:39 +0000.479712][7736] last dts:11960 currentPts:11992
ppsOrSPS:0 queue length:3
[091:576] [2025-02-05 14:14:39 +0000.506566][7737] get the H.264 IDR frame
[091:878] [2025-02-05 14:14:39 +0000.809170][7736] DTS queue for
Generator:0x773a3798b8 12360 12395
[091:904] [2025-02-05 14:14:39 +0000.834534][764a] webrtc common_video plane
old ..... (1/1000) new: 6001 delete: 5984 diff: 17
[091:937] [2025-02-05 14:14:39 +0000.867641][764a] The read pixel from buffer take:
0 width:1280 height:720 frameType:0
[091:968] [2025-02-05 14:14:39 +0000.899176][764a] The convert RGB to YUV take 5
[092:128] [2025-02-05 14:14:40 +0000.58543][764f] haveEnoughProcessedData
[Link]: 10
[092:337] [2025-02-05 14:14:40 +0000.268231][7755]
Warning(audio_device_generic.cc:206): No Audio Processing is done for output datas.
[092:436] [2025-02-05 14:14:40 +0000.366827][764a] The read pixel from buffer take:
0 width:1280 height:720 frameType:0
[092:477] [2025-02-05 14:14:40 +0000.408285][764a] The convert RGB to YUV take 4
[092:692] [2025-02-05 14:14:40 +0000.622569][764f] Run AGC when audioType = 0
[092:712] [2025-02-05 14:14:40 +0000.642633][7736] DTS queue for
Generator:0x773a3798b8 13194 13230
[092:738] [2025-02-05 14:14:40 +0000.668571][764a] drawYUV420 render
OpenGLRenderProgram:0x77cc4c3798
[092:800] [2025-02-05 14:14:40 +0000.731136][7736]
MediaFilterCamera::WriteVideoFrametoMP4_w -> pushExtraYUVFrametimestamp:13321
[092:801] [2025-02-05 14:14:40 +0000.731334][7736] Push an pts:13321 to dts queue.
[092:882] [2025-02-05 14:14:40 +0000.812781][7736] SendFrame
encodedImage._timeStamp:13321encodedImage->_length:137520
[092:882] [2025-02-05 14:14:40 +0000.813105][7736] last dts:13290 currentPts:13321
ppsOrSPS:0 queue length:3
[092:897] [2025-02-05 14:14:40 +0000.827358][764a] GPUImageProcessing: process
video frame with resolution 1280 X 720
[092:897] [2025-02-05 14:14:40 +0000.827485][764a] GPUImageProcessing: input frame
width1280 X 720
[092:897] [2025-02-05 14:14:40 +0000.827939][764a] The next ready buffer:1
m_nextAvaiablePixelBuffer:0
[092:897] [2025-02-05 14:14:40 +0000.828012][764a] The next ready buffer:1
m_nextAvaiablePixelBuffer:0
[092:932] [2025-02-05 14:14:40 +0000.863207][764a] The read pixel from buffer take:
0 width:1280 height:720 frameType:0
[092:940] [2025-02-05 14:14:40 +0000.871116][7736] RecordingSessionInternalSimple:
pushExtraYUVFrame. width:1280 height:720input pixel type:0 dataType:0 stride:1280
streamId:1 timestamp:13460
[092:940] [2025-02-05 14:14:40 +0000.871271][7736] push video frame to H264
encoder. (100 frame for one log)
[092:941] [2025-02-05 14:14:40 +0000.871326][7736] push video frame to H264
encoder. (100 frame for one log) used width:1280 height:720
[092:941] [2025-02-05 14:14:40 +0000.871361][7736] H264Encode::push video frame to
H264 encoder, using hw H264:1 width:1280 height:720 pts:13460(100 frame for one
log)
[092:941] [2025-02-05 14:14:40 +0000.871407][7736] The input pts:13460 fps:30
[092:944] [2025-02-05 14:14:40 +0000.874487][7736] H264Encode::H264 encoder push
frame to next component(100 times for one log) with dts:13398 pts:13398
[092:972] [2025-02-05 14:14:40 +0000.903323][764a] The convert RGB to YUV take 4
[093:012] [2025-02-05 14:14:40 +0000.942911][7736] H264Encode::H264SWEncoder get
callback, length:113616 type:1 nalType:1length:113612
[093:356] [2025-02-05 14:14:41 +0000.286658][7755]
Warning(audio_device_generic.cc:206): No Audio Processing is done for output datas.
[093:428] [2025-02-05 14:14:41 +0000.358580][764a] The read pixel from buffer take:
0 width:1280 height:720 frameType:0
[093:467] [2025-02-05 14:14:41 +0000.397749][764a] The convert RGB to YUV take 4
[093:541] [2025-02-05 14:14:41 +0000.471684][7736] h264 add frame header cdr flag
[093:542] [2025-02-05 14:14:41 +0000.472792][7736] Received key frame:13990
[093:542] [2025-02-05 14:14:41 +0000.472909][7736] DTS queue for
Generator:0x773a3798b8 13990 14022 14058
[093:572] [2025-02-05 14:14:41 +0000.502457][7737] get the H.264 IDR frame
[093:845] [2025-02-05 14:14:41 +0000.776215][764f] haveEnoughProcessedData
[Link]: 0
[093:928] [2025-02-05 14:14:41 +0000.858431][764a] The read pixel from buffer take:
0 width:1280 height:720 frameType:0
[093:964] [2025-02-05 14:14:41 +0000.894402][764a] The convert RGB to YUV take 4
[093:994] [2025-02-05 14:14:41 +0000.924878][764a] webrtc common_video plane
old ..... (1/1000) new: 7001 delete: 6984 diff: 17
[094:135] [2025-02-05 14:14:42 +0000.65723][7736] Push an pts:14654 to dts queue.
[094:204] [2025-02-05 14:14:42 +0000.134519][7736] last dts:14620 currentPts:14654
ppsOrSPS:0 queue length:3
[094:337] [2025-02-05 14:14:42 +0000.267422][7755]
Warning(audio_device_generic.cc:206): No Audio Processing is done for output datas.
[094:368] [2025-02-05 14:14:42 +0000.298678][7736] DTS queue for
Generator:0x773a3798b8 14819 14855 14888
[094:426] [2025-02-05 14:14:42 +0000.357171][764a] The read pixel from buffer take:
0 width:1280 height:720 frameType:0
[094:469] [2025-02-05 14:14:42 +0000.399634][764a] The convert RGB to YUV take 5
[094:665] [2025-02-05 14:14:42 +0000.595659][772f] Warning(audio_playback.cc:748):
operator(): Audio playback paused.
[094:665] [2025-02-05 14:14:42 +0000.595948][764a] OnNeedStopRecording:
[094:674] [2025-02-05 14:14:42 +0000.604634][6be6]
Java_com_xiaomi_recordmediaprocess_MediaEffectCamera_StopRecordingJni:
[094:675] [2025-02-05 14:14:42 +0000.605740][6be6] Stop:
[094:676] [2025-02-05 14:14:42 +0000.606389][772f] DeviceStop:
audioDevice_:0x77cc4a2000
[094:676] [2025-02-05 14:14:42 +0000.606468][772f] OpenSlesOutput:Stop playout
[094:678] [2025-02-05 14:14:42 +0000.608772][772f] DeviceStop: Done
[094:678] [2025-02-05 14:14:42 +0000.609099][772f] Warning(audio_playback.cc:730):
operator(): Audio playback stopped.
[094:679] [2025-02-05 14:14:42 +0000.609540][764a] operator(): Stop
[094:679] [2025-02-05 14:14:42 +0000.609606][764a] StopPullFrameAndWriteMp4
time:229988784 enter.
[094:679] [2025-02-05 14:14:42 +0000.609645][764a] Stop:
[094:679] [2025-02-05 14:14:42 +0000.609708][772f] Warning(audio_playback.cc:715):
operator(): Audio playback not started. Operation cancelled.
[094:679] [2025-02-05 14:14:42 +0000.610132][7736]
MediaFilterCamera::WriteVideoFrametoMP4_wwrite mp4 video sum frames:456
[094:681] [2025-02-05 14:14:42 +0000.611772][7648] stop recording
[094:681] [2025-02-05 14:14:42 +0000.611821][7648]
RecordingSessionInternalSimple:destroy media processers
[094:681] [2025-02-05 14:14:42 +0000.611848][7648] H264Encode::H264Encoder flush
frames, m_useHWEncoder:1
[094:681] [2025-02-05 14:14:42 +0000.611872][7648] H264Encode::flushing hareware
Encoder
[094:681] [2025-02-05 14:14:42 +0000.612042][7648] Flush time:229988786 enter.
[094:681] [2025-02-05 14:14:42 +0000.612085][7648] H264Encoder encoder flush
[094:681] [2025-02-05 14:14:42 +0000.612110][7648] flush output queue
[094:686] [2025-02-05 14:14:42 +0000.617072][764f] Run AGC when audioType = 0
[094:686] [2025-02-05 14:14:42 +0000.617206][764f]
AudioDeviceDataHandler::MixAndSendOutFrame
[095:004] [2025-02-05 14:14:42 +0000.934888][7648] Flush leave. expire time = 323
ms
[095:004] [2025-02-05 14:14:42 +0000.935328][7648] ~H264EncodeWrap:
[095:005] [2025-02-05 14:14:42 +0000.935479][7648] ~H264Encode:
[095:005] [2025-02-05 14:14:42 +0000.935550][7648] teardownCompressionSession:
H264Encode::destroying Encoder
[095:005] [2025-02-05 14:14:42 +0000.935613][7648] Release time:229989110 enter.
[095:005] [2025-02-05 14:14:42 +0000.936095][7648] Release:
MediaCodecVideoEncoder::Release _inited:1
[095:005] [2025-02-05 14:14:42 +0000.936258][7648] Destroy time:229989110 enter.
[095:006] [2025-02-05 14:14:42 +0000.936333][7648] H264Encoder encoderDestroy
[095:006] [2025-02-05 14:14:42 +0000.936398][7648]
AndroidMediaCodecVideoEncoder::release env: 0x771eeca780
[095:006] [2025-02-05 14:14:42 +0000.936452][7648]
AndroidMediaCodecVideoEncoder::Destroy
[095:043] [2025-02-05 14:14:42 +0000.974056][7648] Destroy leave. expire time = 38
ms
[095:044] [2025-02-05 14:14:42 +0000.974695][7648] Release leave. expire time = 39
ms
[095:044] [2025-02-05 14:14:42 +0000.974878][7648] ~AndroidHwAvcEncoder
time:229989149 enter.
[095:044] [2025-02-05 14:14:42 +0000.975200][7648] Release time:229989149 enter.
[095:045] [2025-02-05 14:14:42 +0000.975319][7648] Release:
MediaCodecVideoEncoder:: has been released before, just return
[095:045] [2025-02-05 14:14:42 +0000.975381][7648] Release leave. expire time = 1
ms
[095:045] [2025-02-05 14:14:42 +0000.975478][7648] ~AndroidMediaCodecVideoEncoder
[095:045] [2025-02-05 14:14:42 +0000.975532][7648] ~WrapAndroidMediaCodec
time:229989150 enter.
[095:045] [2025-02-05 14:14:42 +0000.975580][7648] ~WrapAndroidMediaCodec leave.
expire time = 0 ms
[095:045] [2025-02-05 14:14:42 +0000.975639][7648] video hevc hw codec
destructor:0x771f00c468
[095:045] [2025-02-05 14:14:42 +0000.975802][7648] ~AndroidHwAvcEncoder leave.
expire time = 1 ms
[095:045] [2025-02-05 14:14:42 +0000.975917][7648] teardownCompressionSession:
H264Encode::destroyed Encoder
[095:045] [2025-02-05 14:14:42 +0000.975984][7648]
RecordingSessionInternalSimple:destroy aac encoder output!
[095:045] [2025-02-05 14:14:42 +0000.976027][7648] AACSWEncode destructor
[095:070] [2025-02-05 14:14:43 +0000.773][7737] MP4 close file successfully
[095:070] [2025-02-05 14:14:43 +0000.1023][7737] Recording session Internal: notify
recording ok
[095:070] [2025-02-05 14:14:43 +0000.1104][7737] onRecordingOk: Recording Ok
averagefps 0,
/data/user/0/[Link]/no_backup/.milive//record_video_229973369.mp4,
output_video_timestamp_:15188 last_video_pts_:15150
[095:070] [2025-02-05 14:14:43 +0000.1185][7737] OnRecordFinish:
[095:073] [2025-02-05 14:14:43 +0000.4069][7737] onRecordingOk: net seek
pos:15053record video duration:15183record audio duration:0
[095:075] [2025-02-05 14:14:43 +0000.5713][764a] StopPullFrameAndWriteMp4 leave.
expire time = 396 ms
[095:075] [2025-02-05 14:14:43 +0000.6259][764a] DestroyPipelineAndFilters
time:229989180 enter.
[095:076] [2025-02-05 14:14:43 +0000.6665][764a] CleanUp time:229989181 enter.
[095:077] [2025-02-05 14:14:43 +0000.7832][764a] CleanUp leave. expire time = 1 ms
[095:077] [2025-02-05 14:14:43 +0000.8065][764a] UnbindInputFilter 0x7724ea9ec0
this 0x77cc4c39c0
[095:077] [2025-02-05 14:14:43 +0000.8161][764a] UnbindInputFilter 0x77cc4c39c0
this 0x7724eb2c20
[095:079] [2025-02-05 14:14:43 +0000.9542][764a] filter: filter pipeline destroy
this: 0x7724eb2b80
[095:080] [2025-02-05 14:14:43 +0000.10705][764a] ClearVideoOfSources: recodring
total frames:0
[095:080] [2025-02-05 14:14:43 +0000.10772][764a] ClearVideoOfSources:
[095:080] [2025-02-05 14:14:43 +0000.10823][764a] GPUImageProcessing destruct.
[095:080] [2025-02-05 14:14:43 +0000.10908][764a] destroy TrivalImageDrawer
0x77259aac80
[095:080] [2025-02-05 14:14:43 +0000.10964][764a] The shader has been initialize,
clean up them.
[095:080] [2025-02-05 14:14:43 +0000.11043][764a] ~OpenGLFrameBuffer:
[095:080] [2025-02-05 14:14:43 +0000.11206][764a] ~OpenGLFrameBuffer:
[095:081] [2025-02-05 14:14:43 +0000.11337][764a] ~OpenGLFrameBuffer:
[095:081] [2025-02-05 14:14:43 +0000.11478][764a] ~OpenGLFrameBuffer:
[095:082] [2025-02-05 14:14:43 +0000.12490][764a] ~OpenGLFrameBuffer:
[095:082] [2025-02-05 14:14:43 +0000.12627][764a] ~OpenGLFrameBuffer:
[095:082] [2025-02-05 14:14:43 +0000.12898][764a] GPUImageProcessing destruct
finish.
[095:082] [2025-02-05 14:14:43 +0000.12963][764a] GPURGBAFrame destruct.
[095:082] [2025-02-05 14:14:43 +0000.13043][764a] destroy OpenGLRenderProgram
0x77cc4c3798
[095:082] [2025-02-05 14:14:43 +0000.13106][764a] ~CameraSource time:229989187
enter.
[095:082] [2025-02-05 14:14:43 +0000.13144][764a] ~CameraSource leave. expire time
= 0 ms
[095:082] [2025-02-05 14:14:43 +0000.13187][764a] CleanUp time:229989187 enter.
[095:083] [2025-02-05 14:14:43 +0000.13599][764a] CleanUp leave. expire time = 1
ms
[095:084] [2025-02-05 14:14:43 +0000.14989][764a] DestroyPipelineAndFilters leave.
expire time = 9 ms
[095:102] [2025-02-05 14:14:43 +0000.32406][6be6]
Java_com_xiaomi_recordmediaprocess_MediaEffectGraph_ConstructMediaEffectGraphJni:
[095:103] [2025-02-05 14:14:43 +0000.33450][6be6] machine model :redmi
[095:103] [2025-02-05 14:14:43 +0000.33519][6be6] Support this machine model :redmi
[095:103] [2025-02-05 14:14:43 +0000.33571][6be6] global inited! current sdk
version: 07-20-936c45f
[095:103] [2025-02-05 14:14:43 +0000.33962][6be6] filter: filter pipeline construtc
this: 0x772c7ea780
[095:103] [2025-02-05 14:14:43 +0000.34054][6be6] MediaFilterGraph:
MediaFilterGraph construct
[095:103] [2025-02-05 14:14:43 +0000.34108][6be6] GLESContext:
[095:103] [2025-02-05 14:14:43 +0000.34185][6be6] The result of eglGetDisplay is:
0x1
[095:105] [2025-02-05 14:14:43 +0000.36217][6be6] The result of creation:
0x771e8d0d80
[095:106] [2025-02-05 14:14:43 +0000.36371][6be6] The result of
eglCreatePbufferSurface is: 0x7712979600
[095:107] [2025-02-05 14:14:43 +0000.37533][6be6] The source 0
path:/data/user/0/[Link]/no_backup/.milive//record_video_229973369.mp4
[095:107] [2025-02-05 14:14:43 +0000.37624][6be6] The source 0 speed:1
[095:107] [2025-02-05 14:14:43 +0000.37689][6be6] AddVideoSource: add video source:
/data/user/0/[Link]/no_backup/.milive//record_video_229973369.mp4,
delay: 0
[095:107] [2025-02-05 14:14:43 +0000.37755][6be6] CreateDecoderByVideoSource
time:229989212 enter.
[095:107] [2025-02-05 14:14:43 +0000.38087][6be6] running_decoder_count:0max
count:2
[095:107] [2025-02-05 14:14:43 +0000.38147][6be6] Start decoding file
/data/user/0/[Link]/no_backup/.milive//record_video_229973369.mp4,
sync_mode: 1, seek_pos: 0, delay: 0, this:0x771e83d800
[095:109] [2025-02-05 14:14:43 +0000.39460][779a] FFMpeg=> [mov,mp4,m4a,3gp,3g2,mj2
@ 0x77cc5d9200] Current FFmpeg version git-2021-06-16-97cea6f
[095:200] [2025-02-05 14:14:43 +0000.131089][779a] OnStreamInfoFound: video
duration_: 15183
[095:202] [2025-02-05 14:14:43 +0000.132395][779b] NO get frame from decoder
[095:202] [2025-02-05 14:14:43 +0000.132417][6be6] start decoder
[095:202] [2025-02-05 14:14:43 +0000.132556][6be6] CreateDecoderByVideoSource
leave. expire time = 95 ms
[095:202] [2025-02-05 14:14:43 +0000.132608][6be6] BindInputFilter 0x773a1223a0
this 0x771e86fe18
[095:202] [2025-02-05 14:14:43 +0000.132641][6be6] BindInputFilter 0x771e86fe18
this 0x771e86fed8
[095:202] [2025-02-05 14:14:43 +0000.132685][6be6] BindInputFilter 0x773a1223a0
this 0x772c779298
[095:202] [2025-02-05 14:14:43 +0000.132732][6be6] BindInputFilter 0x772c779298
this 0x772c779358
[095:202] [2025-02-05 14:14:43 +0000.132763][6be6] AddVideoSource: source filter
list is empty, add first:
/data/user/0/[Link]/no_backup/.milive//record_video_229973369.mp4
[095:202] [2025-02-05 14:14:43 +0000.132802][6be6] BindInputFilter 0x771e86fed8
this 0x772c779598
[095:202] [2025-02-05 14:14:43 +0000.132844][6be6] BindInputFilter 0x772c779598
this 0x772c7ea820
[095:202] [2025-02-05 14:14:43 +0000.132884][6be6] BindInputFilter 0x772c779358
this 0x772c779d18
[095:202] [2025-02-05 14:14:43 +0000.132921][6be6] AddVideoSource: END add video
source:
/data/user/0/[Link]/no_backup/.milive//record_video_229973369.mp4
[095:202] [2025-02-05 14:14:43 +0000.133102][779b] NO get frame from decoder
[095:203] [2025-02-05 14:14:43 +0000.133720][6be6]
Java_com_xiaomi_recordmediaprocess_MediaEffectGraph_SetAudioMuteJni: #
[095:204] [2025-02-05 14:14:43 +0000.134501][6be6]
Java_com_xiaomi_recordmediaprocess_MediaEffectGraph_AddAudioTrackJni:
[095:204] [2025-02-05 14:14:43 +0000.134599][779b] NO get frame from decoder
[095:204] [2025-02-05 14:14:43 +0000.134661][6be6] AddAudioTrack: add audio source
for background: /data/user/0/[Link]/no_backup/music/local/[Link] and
play loop is: 0
[095:204] [2025-02-05 14:14:43 +0000.135033][6be6] SetPlayLoop: AudioSource
SetPlayLoop 0
[095:204] [2025-02-05 14:14:43 +0000.135085][6be6] AudioMixerFilter time:229989309
enter.
[095:205] [2025-02-05 14:14:43 +0000.135334][6be6] AudioMixerFilter leave. expire
time = 1 ms
[095:205] [2025-02-05 14:14:43 +0000.135398][6be6] BindInputFilter 0x772c77a558
this 0x77c8358d38
[095:205] [2025-02-05 14:14:43 +0000.135436][6be6] BindInputFilter 0x77c835b050
this 0x77c8358d38
[095:205] [2025-02-05 14:14:43 +0000.135481][6be6] BindInputFilter 0x772c779d18
this 0x772c77a558
[095:205] [2025-02-05 14:14:43 +0000.135502][6be6] AddAudioTrack: add audio source
for background:1
[095:206] [2025-02-05 14:14:43 +0000.136337][779b] NO get frame from decoder
[095:206] [2025-02-05 14:14:43 +0000.136676][6be6]
Java_com_xiaomi_recordmediaprocess_EffectMediaPlayer_ConstructMediaPlayerJni:
[095:206] [2025-02-05 14:14:43 +0000.137161][6be6] machine model :redmi
[095:206] [2025-02-05 14:14:43 +0000.137190][6be6] Support this machine
model :redmi
[095:206] [2025-02-05 14:14:43 +0000.137212][6be6] global inited! current sdk
version: 07-20-936c45f
[095:206] [2025-02-05 14:14:43 +0000.137299][6be6] GetPipeline:
-----------------------------------------
[095:207] [2025-02-05 14:14:43 +0000.137365][6be6] GetPipeline: source:
0x773a122180
[095:207] [2025-02-05 14:14:43 +0000.137389][6be6] GetPipeline: filter: NULLFilter
[095:207] [2025-02-05 14:14:43 +0000.137411][6be6] GetPipeline: filter: NULLFilter
[095:207] [2025-02-05 14:14:43 +0000.137433][6be6] GetPipeline: filter: NULLFilter
[095:207] [2025-02-05 14:14:43 +0000.137454][6be6] GetPipeline: audio filter:
AuidoNULLFilter
[095:207] [2025-02-05 14:14:43 +0000.137475][6be6] GetPipeline: audio filter:
AuidoNULLFilter
[095:207] [2025-02-05 14:14:43 +0000.137527][6be6] GetPipeline: audio filter:
AudioNUllFilter
[095:207] [2025-02-05 14:14:43 +0000.137548][6be6] GetPipeline:
------------------------------------------
[095:207] [2025-02-05 14:14:43 +0000.137573][6be6] filter: filter pipeline2 update
pattern: 0
[095:208] [2025-02-05 14:14:43 +0000.138701][6be6] Reset: volume estimator reset
frequency : 44100 history size(ms): -1
[095:208] [2025-02-05 14:14:43 +0000.139054][6be6] Reset: volume estimator reset
frequency : 44100 history size(ms): -1
[095:208] [2025-02-05 14:14:43 +0000.139183][6be6] Reset: volume estimator reset
frequency : 44100 history size(ms): -1
[095:209] [2025-02-05 14:14:43 +0000.139398][6be6] DeviceInit:
[095:209] [2025-02-05 14:14:43 +0000.139712][6be6] AudioManagerAndroid
getProperty:[Link].OUTPUT_SAMPLE_RATE
[095:209] [2025-02-05 14:14:43 +0000.140053][6be6] AudioManagerAndroid
getProperty:[Link].OUTPUT_FRAMES_PER_BUFFER
[095:210] [2025-02-05 14:14:43 +0000.140371][6be6] CreatePlatformSpecificObjects:
[095:210] [2025-02-05 14:14:43 +0000.140440][6be6] audio device use null audio
input and opensl output
[095:210] [2025-02-05 14:14:43 +0000.140485][6be6] Create OpenSLES output module
with java VM support.
[095:210] [2025-02-05 14:14:43 +0000.140715][6be6] AudioManagerAndroid
getProperty:[Link].OUTPUT_SAMPLE_RATE
[095:210] [2025-02-05 14:14:43 +0000.141060][6be6] AudioManagerAndroid
getProperty:[Link].OUTPUT_FRAMES_PER_BUFFER
[095:211] [2025-02-05 14:14:43 +0000.141445][6be6] Create OpenSLES output module
with buffer num:2
[095:211] [2025-02-05 14:14:43 +0000.141452][779b] NO get frame from decoder
[095:211] [2025-02-05 14:14:43 +0000.141534][6be6] Error([Link]): Init the
output and input for audio device template.
[095:211] [2025-02-05 14:14:43 +0000.141564][6be6] Init the output device.
[095:211] [2025-02-05 14:14:43 +0000.141591][6be6] Set the playout as stereo:1
[095:211] [2025-02-05 14:14:43 +0000.141618][6be6] Set the sample rate to be:44100
[095:211] [2025-02-05 14:14:43 +0000.141673][6be6] Low latency buffer size:144 low
sample rate:48000
[095:211] [2025-02-05 14:14:43 +0000.141719][6be6] DeviceInit: Done
[095:211] [2025-02-05 14:14:43 +0000.141984][6be6] UpdateRate: lipsync_debug:
Update framerate from 0 to 15
[095:212] [2025-02-05 14:14:43 +0000.142923][6be6]
Java_com_xiaomi_recordmediaprocess_EffectMediaPlayer_SetPlayerNotifyJni:
[095:212] [2025-02-05 14:14:43 +0000.143023][6be6]
MediaFilterPlayer::SetPlayerNotify 0x7713208920
[095:213] [2025-02-05 14:14:43 +0000.143662][6be6]
Error(media_filter_player.cc:392): SetPlayLoop: SetPlayLoop error for
media_filter_graph_ GetCurrentSource null
[095:213] [2025-02-05 14:14:43 +0000.143776][6be6]
Java_com_xiaomi_recordmediaprocess_EffectMediaPlayer_SetPlayLoopJni:
EffectMediaPlayer SetPlayLoop #
[095:214] [2025-02-05 14:14:43 +0000.144397][779b] NO get frame from decoder
[095:214] [2025-02-05 14:14:43 +0000.144528][77ae] Error([Link]): Set the
pthread name failed with error:34 name:Thread 0x0x7713197218
[095:218] [2025-02-05 14:14:43 +0000.148687][779b] NO get frame from decoder
[095:220] [2025-02-05 14:14:43 +0000.150383][779b] NO get frame from decoder
[095:221] [2025-02-05 14:14:43 +0000.151887][6be6]
Java_com_xiaomi_recordmediaprocess_EffectMediaPlayer_SetGravityJni: gravity: 1
width: 1080, height: 1920
[095:222] [2025-02-05 14:14:43 +0000.153362][6be6] SetGraphLoop: SetGraphLoop 1
[095:223] [2025-02-05 14:14:43 +0000.153514][6be6]
Java_com_xiaomi_recordmediaprocess_EffectMediaPlayer_SetGraphLoopJni:
EffectMediaPlayer SetGraphLoop 1
[095:223] [2025-02-05 14:14:43 +0000.154322][6be6]
Java_com_xiaomi_recordmediaprocess_EffectMediaPlayer_EnableUserAdjustRotatePlayJni:
[095:226] [2025-02-05 14:14:43 +0000.156751][6be6]
Java_com_xiaomi_recordmediaprocess_EffectMediaPlayer_SetViewSurfaceJni:
[095:228] [2025-02-05 14:14:43 +0000.158394][6be6]
Java_com_xiaomi_recordmediaprocess_EffectMediaPlayer_StartPreViewJni:
[095:228] [2025-02-05 14:14:43 +0000.158739][77b0] Start:
[095:228] [2025-02-05 14:14:43 +0000.158884][77af] operator(): video render
started.
[095:228] [2025-02-05 14:14:43 +0000.158941][77af] DriveRender working... (1/200)
[095:228] [2025-02-05 14:14:43 +0000.158965][77af] Warning(video_render.cc:390): No
picture to display (1/50)
[095:229] [2025-02-05 14:14:43 +0000.159954][77b0] Start:
[095:229] [2025-02-05 14:14:43 +0000.160155][77b0] Reset: volume estimator reset
frequency : 44100 history size(ms): 5000
[095:229] [2025-02-05 14:14:43 +0000.160210][77b0] Reset: history total size: 98
[095:229] [2025-02-05 14:14:43 +0000.160238][77b0] DeviceStart:
audioDevice_:0x772c549000
[095:229] [2025-02-05 14:14:43 +0000.160262][77b0] DeviceStart: time profile
playout init before
[095:229] [2025-02-05 14:14:43 +0000.160287][77b0] DeviceStart: time profile
playout init end
[095:229] [2025-02-05 14:14:43 +0000.160307][77b0] OpenSlesOutput:Start playout
[095:231] [2025-02-05 14:14:43 +0000.161903][77b0] Create the opensl output player.
streamtype before:0
[095:231] [2025-02-05 14:14:43 +0000.161975][77b0] Create the opensl output player.
streamtype after:3
[095:246] [2025-02-05 14:14:43 +0000.177165][77b0] Enqueue opensl buffer size:1764
[095:262] [2025-02-05 14:14:43 +0000.193160][77b0] DeviceStart: time profile
playout all end
[095:262] [2025-02-05 14:14:43 +0000.193282][77b0] operator(): Audio playback
started.
[095:263] [2025-02-05 14:14:43 +0000.193392][77b0] operator(): Started now!
[095:263] [2025-02-05 14:14:43 +0000.193446][77b2] Error(video_source.cc:430): wait
decoder a frame: 0
[095:265] [2025-02-05 14:14:43 +0000.196173][77b2] (1/100)OnReceiveVideoFrame,
key_frame: 1, pkt_pts: 900pts ms:10000
[095:263] [2025-02-05 14:14:43 +0000.193404][77b1] Pull audio failed.(wait video!)
[095:267] [2025-02-05 14:14:43 +0000.197503][77b1]
Warning(media_filter_player.cc:409): media pull audio frame failed:4
[095:267] [2025-02-05 14:14:43 +0000.197653][77b1] Error(video_source.cc:301):
VideoSource not start to decode audio
[095:268] [2025-02-05 14:14:43 +0000.198742][77b1] Start decoding file
/data/user/0/[Link]/no_backup/music/local/[Link], sync_mode: 0,
seek_pos: 0, delay: 0, this:0x773a107400
[095:272] [2025-02-05 14:14:43 +0000.202508][77ac] FFMpeg=> [aac @ 0x76d2821a00]
Current FFmpeg version git-2021-06-16-97cea6f
[095:273] [2025-02-05 14:14:43 +0000.203817][77ac] Warning(ff_ffplay.cpp:68):
FFMpeg=> [aac @ 0x76d2821a00] Estimating duration from bitrate, this may be
inaccurate
[095:276] [2025-02-05 14:14:43 +0000.206489][77b1] (1/100)OnReceiveAudioFrame,
key_frame: 1, pkt_pts: 0
[095:276] [2025-02-05 14:14:43 +0000.206679][77b1] OnAudioFrameReady frame->pts=-
9223372036854775808 (1/100)
[095:276] [2025-02-05 14:14:43 +0000.206832][77b0] Create the audio converter 44100
Hz format:1 channels:2 old channels: 0 Hz: 0 format:-1
[095:276] [2025-02-05 14:14:43 +0000.207078][77b0] First audio frame rendering
[095:277] [2025-02-05 14:14:43 +0000.207631][77b2] OnVideoFrameReady(1/200)
[095:278] [2025-02-05 14:14:43 +0000.208534][77b1] audio frame wait video
frame.last_video_timestamp:10 last_audio_timestamp:116
[095:278] [2025-02-05 14:14:43 +0000.208576][77af] operator() frame->pts-
9223372036854775808 queue_ size: 1 (1/200)
[095:279] [2025-02-05 14:14:43 +0000.209830][77af] lipsync_debug:displaying video
ts:900 The current displayed video timestamp is:229989384
[095:280] [2025-02-05 14:14:43 +0000.210384][77b1]
Warning(media_filter_player.cc:409): media pull audio frame failed:4
[095:280] [2025-02-05 14:14:43 +0000.210514][77b1] audio frame wait video
frame.last_video_timestamp:10 last_audio_timestamp:116
[095:281] [2025-02-05 14:14:43 +0000.212309][77b1]
Warning(media_filter_player.cc:409): media pull audio frame failed:4
[095:282] [2025-02-05 14:14:43 +0000.212392][77b1] audio frame wait video
frame.last_video_timestamp:34 last_audio_timestamp:139
[095:283] [2025-02-05 14:14:43 +0000.213895][77b1]
Warning(media_filter_player.cc:409): media pull audio frame failed:4
[095:283] [2025-02-05 14:14:43 +0000.213966][77b1] audio frame wait video
frame.last_video_timestamp:34 last_audio_timestamp:139
[095:285] [2025-02-05 14:14:43 +0000.215423][77b1]
Warning(media_filter_player.cc:409): media pull audio frame failed:4
[095:285] [2025-02-05 14:14:43 +0000.215483][77b1] audio frame wait video
frame.last_video_timestamp:34 last_audio_timestamp:139
[095:286] [2025-02-05 14:14:43 +0000.216723][77b0] Create the audio converter 44100
Hz format:1 channels:2 old channels: 3 Hz: 44100 format:1
[095:286] [2025-02-05 14:14:43 +0000.216957][77b0] Create the audio converter 44100
Hz format:1 channels:2 old channels: 3 Hz: 44100 format:1
[095:286] [2025-02-05 14:14:43 +0000.217091][77b0] Create the audio converter 44100
Hz format:1 channels:2 old channels: 3 Hz: 44100 format:1
[095:315] [2025-02-05 14:14:43 +0000.245370][77af] lipsync_debug: render a video
frame
[095:315] [2025-02-05 14:14:43 +0000.245495][77af] lipsync_debug: First video frame
rendering.
[095:326] [2025-02-05 14:14:43 +0000.257186][77af]
lipsync_debug:lipsync_threadhold: lipsync_delta:0 tsDelta:24 timeDelta:47 last
video ts:900 frame->pts:3060 pkt_dts:-9223372036854775808 pkt_pts:-
9223372036854775808
[095:327] [2025-02-05 14:14:43 +0000.257386][77af] lipsync_debug: tsDelta -
timeDelta = -23
[095:327] [2025-02-05 14:14:43 +0000.257414][77af] lipsync_debug:result remaining
time:0
[095:327] [2025-02-05 14:14:43 +0000.257438][77af] dynamic updated lipsync delay:0
[095:334] [2025-02-05 14:14:43 +0000.264894][77af] lipsync_debug:remaining time:10
tsDelta - timeDelta:3
[095:334] [2025-02-05 14:14:43 +0000.265114][77af] lipsync_debug:result remaining
time:3
[095:366] [2025-02-05 14:14:43 +0000.296673][77b0] Create the audio converter 44100
Hz format:1 channels:2 old channels: 3 Hz: 44100 format:1
[095:366] [2025-02-05 14:14:43 +0000.297081][77b0] Create the audio converter 44100
Hz format:1 channels:2 old channels: 3 Hz: 44100 format:1
[095:366] [2025-02-05 14:14:43 +0000.297231][77b0] Create the audio converter 44100
Hz format:1 channels:2 old channels: 3 Hz: 44100 format:1
[095:449] [2025-02-05 14:14:43 +0000.379859][77b2] video frame wait audio frame:
last_video_timestamp:499 last_audio_timestamp:371
[095:449] [2025-02-05 14:14:43 +0000.379997][77b2]
Warning(media_filter_player.cc:442): media pull video error, PullFrameStatus is 4
[095:462] [2025-02-05 14:14:43 +0000.392908][77b0] Create the audio converter 44100
Hz format:1 channels:2 old channels: 3 Hz: 44100 format:1
[095:462] [2025-02-05 14:14:43 +0000.393290][77b0] Create the audio converter 44100
Hz format:1 channels:2 old channels: 3 Hz: 44100 format:1
[095:463] [2025-02-05 14:14:43 +0000.393492][77b0] Create the audio converter 44100
Hz format:1 channels:2 old channels: 3 Hz: 44100 format:1
[095:463] [2025-02-05 14:14:43 +0000.393610][77b0] Create the audio converter 44100
Hz format:1 channels:2 old channels: 3 Hz: 44100 format:1
[095:463] [2025-02-05 14:14:43 +0000.393700][77b0] Create the audio converter 44100
Hz format:1 channels:2 old channels: 3 Hz: 44100 format:1
[095:463] [2025-02-05 14:14:43 +0000.393797][77b0] Create the audio converter 44100
Hz format:1 channels:2 old channels: 3 Hz: 44100 format:1
[095:463] [2025-02-05 14:14:43 +0000.393908][77b0] Create the audio converter 44100
Hz format:1 channels:2 old channels: 3 Hz: 44100 format:1
[095:569] [2025-02-05 14:14:43 +0000.499412][764f] haveEnoughProcessedData
[Link]: 10
[095:598] [2025-02-05 14:14:43 +0000.529281][77b0] Create the audio converter 44100
Hz format:1 channels:2 old channels: 3 Hz: 44100 format:1
[095:698] [2025-02-05 14:14:43 +0000.628329][77b1] Error(video_source.cc:301):
VideoSource not start to decode audio
[095:704] [2025-02-05 14:14:43 +0000.634758][77b0] Create the audio converter 44100
Hz format:1 channels:2 old channels: 3 Hz: 44100 format:1
[095:704] [2025-02-05 14:14:43 +0000.635251][77b0] Create the audio converter 44100
Hz format:1 channels:2 old channels: 3 Hz: 44100 format:1
[095:705] [2025-02-05 14:14:43 +0000.635435][77b0] Create the audio converter 44100
Hz format:1 channels:2 old channels: 3 Hz: 44100 format:1
[095:705] [2025-02-05 14:14:43 +0000.635572][77b0] Create the audio converter 44100
Hz format:1 channels:2 old channels: 3 Hz: 44100 format:1
[095:821] [2025-02-05 14:14:43 +0000.751381][77b0] Create the audio converter 44100
Hz format:1 channels:2 old channels: 3 Hz: 44100 format:1
[095:821] [2025-02-05 14:14:43 +0000.751659][77b0] Create the audio converter 44100
Hz format:1 channels:2 old channels: 3 Hz: 44100 format:1
[095:855] [2025-02-05 14:14:43 +0000.785720][77b3]
Warning(audio_device_generic.cc:206): No Audio Processing is done for output datas.
[095:931] [2025-02-05 14:14:43 +0000.862015][77b0] Create the audio converter 44100
Hz format:1 channels:2 old channels: 3 Hz: 44100 format:1
[095:932] [2025-02-05 14:14:43 +0000.862403][77b0] Create the audio converter 44100
Hz format:1 channels:2 old channels: 3 Hz: 44100 format:1
[095:932] [2025-02-05 14:14:43 +0000.862509][77b0] Create the audio converter 44100
Hz format:1 channels:2 old channels: 3 Hz: 44100 format:1
[095:945] [2025-02-05 14:14:43 +0000.875909][77af] lipsync_debug:displaying video
ts:60750 The current displayed video timestamp is:229990050
[096:052] [2025-02-05 14:14:43 +0000.983234][77b0] Create the audio converter 44100
Hz format:1 channels:2 old channels: 3 Hz: 44100 format:1
[096:053] [2025-02-05 14:14:43 +0000.983421][77b0] Create the audio converter 44100
Hz format:1 channels:2 old channels: 3 Hz: 44100 format:1
[096:053] [2025-02-05 14:14:43 +0000.983566][77b0] Create the audio converter 44100
Hz format:1 channels:2 old channels: 3 Hz: 44100 format:1
[096:148] [2025-02-05 14:14:44 +0000.79140][77b0] Create the audio converter 44100
Hz format:1 channels:2 old channels: 3 Hz: 44100 format:1
[096:149] [2025-02-05 14:14:44 +0000.79380][77b0] Create the audio converter 44100
Hz format:1 channels:2 old channels: 3 Hz: 44100 format:1
[096:149] [2025-02-05 14:14:44 +0000.79458][77b0] Create the audio converter 44100
Hz format:1 channels:2 old channels: 3 Hz: 44100 format:1
[096:149] [2025-02-05 14:14:44 +0000.79550][77b0] Create the audio converter 44100
Hz format:1 channels:2 old channels: 3 Hz: 44100 format:1
[096:261] [2025-02-05 14:14:44 +0000.191530][77b2] Error(video_source.cc:430): wait
decoder a frame: 0
[096:263] [2025-02-05 14:14:44 +0000.193786][77b0] do work DoLipsync!
[096:263] [2025-02-05 14:14:44 +0000.193942][77b0] total delay:66 videoTsMS:987
audioTsMS:921 diff:66
[096:263] [2025-02-05 14:14:44 +0000.193993][77b0] Set the lipsync delay:66
[096:264] [2025-02-05 14:14:44 +0000.195319][77b0] Create the audio converter 44100
Hz format:1 channels:2 old channels: 3 Hz: 44100 format:1
[096:265] [2025-02-05 14:14:44 +0000.195549][77b0] Create the audio converter 44100
Hz format:1 channels:2 old channels: 3 Hz: 44100 format:1
[096:265] [2025-02-05 14:14:44 +0000.195644][77b0] Create the audio converter 44100
Hz format:1 channels:2 old channels: 3 Hz: 44100 format:1
[096:265] [2025-02-05 14:14:44 +0000.195793][77b0] Create the audio converter 44100
Hz format:1 channels:2 old channels: 3 Hz: 44100 format:1
[096:380] [2025-02-05 14:14:44 +0000.310785][77b0] Create the audio converter 44100
Hz format:1 channels:2 old channels: 3 Hz: 44100 format:1
[096:380] [2025-02-05 14:14:44 +0000.311198][77b0] Create the audio converter 44100
Hz format:1 channels:2 old channels: 3 Hz: 44100 format:1
[096:418] [2025-02-05 14:14:44 +0000.348824][77b1] Error(video_source.cc:301):
VideoSource not start to decode audio
[096:490] [2025-02-05 14:14:44 +0000.420714][77b0] Create the audio converter 44100
Hz format:1 channels:2 old channels: 3 Hz: 44100 format:1
[096:490] [2025-02-05 14:14:44 +0000.421035][77b0] Create the audio converter 44100
Hz format:1 channels:2 old channels: 3 Hz: 44100 format:1
[096:605] [2025-02-05 14:14:44 +0000.535641][77b0] Create the audio converter 44100
Hz format:1 channels:2 old channels: 3 Hz: 44100 format:1
[096:605] [2025-02-05 14:14:44 +0000.536001][77b0] Create the audio converter 44100
Hz format:1 channels:2 old channels: 3 Hz: 44100 format:1
[096:605] [2025-02-05 14:14:44 +0000.536192][77b0] Create the audio converter 44100
Hz format:1 channels:2 old channels: 3 Hz: 44100 format:1
[096:606] [2025-02-05 14:14:44 +0000.536366][77b0] Create the audio converter 44100
Hz format:1 channels:2 old channels: 3 Hz: 44100 format:1
[096:606] [2025-02-05 14:14:44 +0000.536463][77b0] Create the audio converter 44100
Hz format:1 channels:2 old channels: 3 Hz: 44100 format:1
[096:655] [2025-02-05 14:14:44 +0000.585586][77af] lipsync_debug:displaying video
ts:118710 The current displayed video timestamp is:229990760
[096:688] [2025-02-05 14:14:44 +0000.618727][764f] Run AGC when audioType = 0
[096:726] [2025-02-05 14:14:44 +0000.656915][77b0] Create the audio converter 44100
Hz format:1 channels:2 old channels: 3 Hz: 44100 format:1
[096:818] [2025-02-05 14:14:44 +0000.748916][77b3]
Warning(audio_device_generic.cc:206): No Audio Processing is done for output datas.
[096:826] [2025-02-05 14:14:44 +0000.756636][77b0] Create the audio converter 44100
Hz format:1 channels:2 old channels: 3 Hz: 44100 format:1
[096:826] [2025-02-05 14:14:44 +0000.757006][77b0] Create the audio converter 44100
Hz format:1 channels:2 old channels: 3 Hz: 44100 format:1
[096:826] [2025-02-05 14:14:44 +0000.757142][77b0] Create the audio converter 44100
Hz format:1 channels:2 old channels: 3 Hz: 44100 format:1
[096:827] [2025-02-05 14:14:44 +0000.757358][77b0] Create the audio converter 44100
Hz format:1 channels:2 old channels: 3 Hz: 44100 format:1
[096:827] [2025-02-05 14:14:44 +0000.757498][77b0] Create the audio converter 44100
Hz format:1 channels:2 old channels: 3 Hz: 44100 format:1
[096:827] [2025-02-05 14:14:44 +0000.757668][77b0] Create the audio converter 44100
Hz format:1 channels:2 old channels: 3 Hz: 44100 format:1
[096:827] [2025-02-05 14:14:44 +0000.757796][77b0] Create the audio converter 44100
Hz format:1 channels:2 old channels: 3 Hz: 44100 format:1
[096:893] [2025-02-05 14:14:44 +0000.824288][77af] DriveRender working... (1/200)
[096:934] [2025-02-05 14:14:44 +0000.865022][77af]
lipsync_debug:lipsync_threadhold: lipsync_delta:0 tsDelta:38 timeDelta:38 last
video ts:140220 frame->pts:143640 pkt_dts:-9223372036854775808 pkt_pts:-
9223372036854775808
[096:934] [2025-02-05 14:14:44 +0000.865167][77af] lipsync_debug: tsDelta -
timeDelta = 0
[096:967] [2025-02-05 14:14:44 +0000.897836][77b0] Create the audio converter 44100
Hz format:1 channels:2 old channels: 3 Hz: 44100 format:1
[097:077] [2025-02-05 14:14:45 +0000.7618][77b0] Create the audio converter 44100
Hz format:1 channels:2 old channels: 3 Hz: 44100 format:1
[097:077] [2025-02-05 14:14:45 +0000.7969][77b0] Create the audio converter 44100
Hz format:1 channels:2 old channels: 3 Hz: 44100 format:1
[097:077] [2025-02-05 14:14:45 +0000.8066][77b0] Create the audio converter 44100
Hz format:1 channels:2 old channels: 3 Hz: 44100 format:1
[097:077] [2025-02-05 14:14:45 +0000.8172][77b0] Create the audio converter 44100
Hz format:1 channels:2 old channels: 3 Hz: 44100 format:1
[097:135] [2025-02-05 14:14:45 +0000.65559][77b1] Error(video_source.cc:301):
VideoSource not start to decode audio
[097:197] [2025-02-05 14:14:45 +0000.128024][77b0] Create the audio converter 44100
Hz format:1 channels:2 old channels: 3 Hz: 44100 format:1
[097:198] [2025-02-05 14:14:45 +0000.128413][77b0] Create the audio converter 44100
Hz format:1 channels:2 old channels: 3 Hz: 44100 format:1
[097:268] [2025-02-05 14:14:45 +0000.198779][764f] haveEnoughProcessedData
[Link]: 0
[097:313] [2025-02-05 14:14:45 +0000.244164][77b0] Create the audio converter 44100
Hz format:1 channels:2 old channels: 3 Hz: 44100 format:1
[097:314] [2025-02-05 14:14:45 +0000.244509][77b0] Create the audio converter 44100
Hz format:1 channels:2 old channels: 3 Hz: 44100 format:1
[097:314] [2025-02-05 14:14:45 +0000.244602][77b0] The audio playback speed:100
(1/100)
[097:314] [2025-02-05 14:14:45 +0000.244649][77b0] lipsync_debug: The current
played audio timestamp is:2182(1/50)
[097:314] [2025-02-05 14:14:45 +0000.244705][77b0] Create the audio converter 44100
Hz format:1 channels:2 old channels: 3 Hz: 44100 format:1
[097:314] [2025-02-05 14:14:45 +0000.244862][77b0] Create the audio converter 44100
Hz format:1 channels:2 old channels: 3 Hz: 44100 format:1
[097:314] [2025-02-05 14:14:45 +0000.244974][77b0] Create the audio converter 44100
Hz format:1 channels:2 old channels: 3 Hz: 44100 format:1
[097:359] [2025-02-05 14:14:45 +0000.289406][77af] lipsync_debug:displaying video
ts:178830 The current displayed video timestamp is:229991464
[097:375] [2025-02-05 14:14:45 +0000.306245][77b1] (1/100)OnReceiveAudioFrame,
key_frame: 1, pkt_pts: 2321
[097:376] [2025-02-05 14:14:45 +0000.306361][77b1] OnAudioFrameReady frame->pts=-
9223372036854775808 (1/100)
[097:415] [2025-02-05 14:14:45 +0000.345561][77af] lipsync_debug:remaining time:10
tsDelta - timeDelta:9
[097:415] [2025-02-05 14:14:45 +0000.345778][77af] lipsync_debug:result remaining
time:9
[097:434] [2025-02-05 14:14:45 +0000.364846][77b0] Create the audio converter 44100
Hz format:1 channels:2 old channels: 3 Hz: 44100 format:1
[097:534] [2025-02-05 14:14:45 +0000.464821][77b0] Create the audio converter 44100
Hz format:1 channels:2 old channels: 3 Hz: 44100 format:1
[097:534] [2025-02-05 14:14:45 +0000.465136][77b0] Create the audio converter 44100
Hz format:1 channels:2 old channels: 3 Hz: 44100 format:1
[097:534] [2025-02-05 14:14:45 +0000.465255][77b0] Create the audio converter 44100
Hz format:1 channels:2 old channels: 3 Hz: 44100 format:1
[097:535] [2025-02-05 14:14:45 +0000.465446][77b0] Create the audio converter 44100
Hz format:1 channels:2 old channels: 3 Hz: 44100 format:1
[097:625] [2025-02-05 14:14:45 +0000.556136][77b2] Error(video_source.cc:430): wait
decoder a frame: 0
[097:632] [2025-02-05 14:14:45 +0000.563026][77b2] webrtc common_video plane
old ..... (1/1000) new: 8001 delete: 7992 diff: 9
[097:655] [2025-02-05 14:14:45 +0000.585909][77b0] Create the audio converter 44100
Hz format:1 channels:2 old channels: 3 Hz: 44100 format:1
[097:655] [2025-02-05 14:14:45 +0000.586280][77b0] Create the audio converter 44100
Hz format:1 channels:2 old channels: 3 Hz: 44100 format:1
[097:656] [2025-02-05 14:14:45 +0000.586421][77b0] Create the audio converter 44100
Hz format:1 channels:2 old channels: 3 Hz: 44100 format:1
[097:656] [2025-02-05 14:14:45 +0000.586566][77b0] Create the audio converter 44100
Hz format:1 channels:2 old channels: 3 Hz: 44100 format:1
[097:776] [2025-02-05 14:14:45 +0000.706792][77b0] Create the audio converter 44100
Hz format:1 channels:2 old channels: 3 Hz: 44100 format:1
[097:776] [2025-02-05 14:14:45 +0000.707029][77b0] Create the audio converter 44100
Hz format:1 channels:2 old channels: 3 Hz: 44100 format:1
[097:860] [2025-02-05 14:14:45 +0000.790637][77b3]
Warning(audio_device_generic.cc:206): No Audio Processing is done for output datas.
[097:860] [2025-02-05 14:14:45 +0000.791075][77b1] Error(video_source.cc:301):
VideoSource not start to decode audio
[097:881] [2025-02-05 14:14:45 +0000.811614][77b0] Create the audio converter 44100
Hz format:1 channels:2 old channels: 3 Hz: 44100 format:1
[097:881] [2025-02-05 14:14:45 +0000.811866][77b0] Create the audio converter 44100
Hz format:1 channels:2 old channels: 3 Hz: 44100 format:1
[097:881] [2025-02-05 14:14:45 +0000.811979][77b0] Create the audio converter 44100
Hz format:1 channels:2 old channels: 3 Hz: 44100 format:1
[097:881] [2025-02-05 14:14:45 +0000.812089][77b0] Create the audio converter 44100
Hz format:1 channels:2 old channels: 3 Hz: 44100 format:1
[097:881] [2025-02-05 14:14:45 +0000.812160][77b0] Create the audio converter 44100
Hz format:1 channels:2 old channels: 3 Hz: 44100 format:1
[098:011] [2025-02-05 14:14:45 +0000.941444][77b0] Create the audio converter 44100
Hz format:1 channels:2 old channels: 3 Hz: 44100 format:1
[098:025] [2025-02-05 14:14:45 +0000.956087][77af] lipsync_debug:displaying video
ts:238770 The current displayed video timestamp is:229992130
[098:111] [2025-02-05 14:14:46 +0000.41519][77b0] Create the audio converter 44100
Hz format:1 channels:2 old channels: 3 Hz: 44100 format:1
[098:111] [2025-02-05 14:14:46 +0000.41979][77b0] Create the audio converter 44100
Hz format:1 channels:2 old channels: 3 Hz: 44100 format:1
[098:111] [2025-02-05 14:14:46 +0000.42098][77b0] Create the audio converter 44100
Hz format:1 channels:2 old channels: 3 Hz: 44100 format:1
[098:111] [2025-02-05 14:14:46 +0000.42219][77b0] Create the audio converter 44100
Hz format:1 channels:2 old channels: 3 Hz: 44100 format:1
[098:111] [2025-02-05 14:14:46 +0000.42297][77b0] Create the audio converter 44100
Hz format:1 channels:2 old channels: 3 Hz: 44100 format:1
[098:112] [2025-02-05 14:14:46 +0000.42402][77b0] Create the audio converter 44100
Hz format:1 channels:2 old channels: 3 Hz: 44100 format:1
[098:112] [2025-02-05 14:14:46 +0000.42482][77b0] Create the audio converter 44100
Hz format:1 channels:2 old channels: 3 Hz: 44100 format:1
[098:126] [2025-02-05 14:14:46 +0000.57266][6be6]
Java_com_xiaomi_recordmediaprocess_EffectMediaPlayer_StopPreViewJni:
[098:130] [2025-02-05 14:14:46 +0000.60835][77b0] Stop:
[098:130] [2025-02-05 14:14:46 +0000.61160][77af] operator(): Video Render stopped.
[098:130] [2025-02-05 14:14:46 +0000.61274][77b0] Stop:
[098:131] [2025-02-05 14:14:46 +0000.61562][77b0] DeviceStop:
audioDevice_:0x772c549000
[098:131] [2025-02-05 14:14:46 +0000.61616][77b0] OpenSlesOutput:Stop playout
[098:133] [2025-02-05 14:14:46 +0000.63408][77b0] DeviceStop: Done
[098:133] [2025-02-05 14:14:46 +0000.63704][77b0] Warning(audio_playback.cc:730):
operator(): Audio playback stopped.
[098:133] [2025-02-05 14:14:46 +0000.63764][77b0] operator(): Stop now!
[098:145] [2025-02-05 14:14:46 +0000.76318][6be6]
Java_com_xiaomi_recordmediaprocess_EffectMediaPlayer_DestructMediaPlayerJni:
[098:146] [2025-02-05 14:14:46 +0000.76458][6be6] StopPreView: Have Stopped,
operation cancel
[098:146] [2025-02-05 14:14:46 +0000.76493][6be6] Stop:
[098:146] [2025-02-05 14:14:46 +0000.76622][77b0] Warning(audio_playback.cc:715):
operator(): Audio playback not started. Operation cancelled.
[098:146] [2025-02-05 14:14:46 +0000.76863][6be6] DeviceRelease:
audioDevice_:0x772c549000
[098:146] [2025-02-05 14:14:46 +0000.76936][6be6] OpenSlesOutput:Stop playout
[098:146] [2025-02-05 14:14:46 +0000.76980][6be6] DeviceRelease: Release the webrtc
device object.
[098:146] [2025-02-05 14:14:46 +0000.77171][6be6] OpenSlesOutput destruct.
[098:146] [2025-02-05 14:14:46 +0000.77264][6be6] DeviceRelease: Done
[098:147] [2025-02-05 14:14:46 +0000.77411][6be6] Stop:
[098:147] [2025-02-05 14:14:46 +0000.77556][77af] Warning(video_render.cc:349):
operator(): video render not started. Operation cancelled.
[098:150] [2025-02-05 14:14:46 +0000.80543][6be6] global uninited!
[098:151] [2025-02-05 14:14:46 +0000.81988][6be6]
Java_com_xiaomi_recordmediaprocess_MediaEffectGraph_DestructMediaEffectGraphJni:
[098:151] [2025-02-05 14:14:46 +0000.82187][6be6] ~MediaFilterGraph:
MediaFilterGraph destruct
[098:151] [2025-02-05 14:14:46 +0000.82223][6be6] RemoveVideoBackGroud: hava not
add video backgroud
[098:151] [2025-02-05 14:14:46 +0000.82269][6be6] UnbindInputFilter 0x772c77a558
this 0x77c8358d38
[098:152] [2025-02-05 14:14:46 +0000.82356][6be6] UnbindInputFilter 0x77c835b050
this 0x77c8358d38
[098:152] [2025-02-05 14:14:46 +0000.82402][6be6] UnbindInputFilter 0x772c779d18
this 0x772c77a558
[098:152] [2025-02-05 14:14:46 +0000.82445][6be6] CleanUp time:229992257 enter.
[098:152] [2025-02-05 14:14:46 +0000.83227][6be6] CleanUp leave. expire time = 0
ms
[098:154] [2025-02-05 14:14:46 +0000.84317][6be6] UnbindInputFilter 0x772c779598
this 0x772c7ea820
[098:154] [2025-02-05 14:14:46 +0000.84424][6be6] ClearAllSource: remove source
filter, sourceid: 0x773a122180
[098:154] [2025-02-05 14:14:46 +0000.84455][6be6] DestoryDecoderByVideoSource
time:229992259 enter.
[098:154] [2025-02-05 14:14:46 +0000.84484][6be6] ~VideoBindDecoder time:229992259
enter.
[098:155] [2025-02-05 14:14:46 +0000.85436][6be6] CleanUp time:229992260 enter.
[098:158] [2025-02-05 14:14:46 +0000.88762][6be6] CleanUp leave. expire time = 3
ms
[098:158] [2025-02-05 14:14:46 +0000.88882][6be6] CleanUp time:229992263 enter.
[098:158] [2025-02-05 14:14:46 +0000.89174][6be6] CleanUp leave. expire time = 0
ms
[098:159] [2025-02-05 14:14:46 +0000.89941][6be6] ~VideoBindDecoder leave. expire
time = 5 ms
[098:159] [2025-02-05 14:14:46 +0000.90002][6be6] DestoryDecoderByVideoSource
leave. expire time = 5 ms
[098:159] [2025-02-05 14:14:46 +0000.90044][6be6] UnbindInputFilter 0x771e86fed8
this 0x772c779598
[098:159] [2025-02-05 14:14:46 +0000.90077][6be6] UnbindInputFilter 0x771e86fe18
this 0x771e86fed8
[098:159] [2025-02-05 14:14:46 +0000.90111][6be6] UnbindInputFilter 0x773a1223a0
this 0x771e86fe18
[098:159] [2025-02-05 14:14:46 +0000.90165][6be6] UnbindInputFilter 0x772c779358
this 0x772c779d18
[098:159] [2025-02-05 14:14:46 +0000.90195][6be6] UnbindInputFilter 0x772c779298
this 0x772c779358
[098:159] [2025-02-05 14:14:46 +0000.90240][6be6] UnbindInputFilter 0x773a1223a0
this 0x772c779298
[098:160] [2025-02-05 14:14:46 +0000.90407][6be6] ~GLESContext:
[098:162] [2025-02-05 14:14:46 +0000.92334][6be6] GLESContext destruct finish.
[098:162] [2025-02-05 14:14:46 +0000.92434][6be6] filter: filter pipeline destroy
this: 0x772c7ea780
[098:162] [2025-02-05 14:14:46 +0000.93217][6be6]
Java_com_xiaomi_recordmediaprocess_MediaEffectGraph_ConstructMediaEffectGraphJni:
[098:163] [2025-02-05 14:14:46 +0000.94149][6be6] machine model :redmi
[098:163] [2025-02-05 14:14:46 +0000.94213][6be6] Support this machine model :redmi
[098:163] [2025-02-05 14:14:46 +0000.94241][6be6] global inited! current sdk
version: 07-20-936c45f
[098:164] [2025-02-05 14:14:46 +0000.94622][6be6] filter: filter pipeline construtc
this: 0x772c7ea780
[098:164] [2025-02-05 14:14:46 +0000.94666][6be6] MediaFilterGraph:
MediaFilterGraph construct
[098:164] [2025-02-05 14:14:46 +0000.94689][6be6] GLESContext:
[098:164] [2025-02-05 14:14:46 +0000.94737][6be6] The result of eglGetDisplay is:
0x1
[098:165] [2025-02-05 14:14:46 +0000.96194][6be6] The result of creation:
0x773a51e100
[098:166] [2025-02-05 14:14:46 +0000.96329][6be6] The result of
eglCreatePbufferSurface is: 0x772c5faf80
[098:166] [2025-02-05 14:14:46 +0000.96418][6be6] The source 0
path:/data/user/0/[Link]/no_backup/.milive//record_video_229973369.mp4
[098:166] [2025-02-05 14:14:46 +0000.96452][6be6] The source 0 speed:1
[098:166] [2025-02-05 14:14:46 +0000.96489][6be6] AddVideoSource: add video source:
/data/user/0/[Link]/no_backup/.milive//record_video_229973369.mp4,
delay: 0
[098:166] [2025-02-05 14:14:46 +0000.96519][6be6] CreateDecoderByVideoSource
time:229992271 enter.
[098:166] [2025-02-05 14:14:46 +0000.96710][6be6] running_decoder_count:0max
count:2
[098:166] [2025-02-05 14:14:46 +0000.96750][6be6] Start decoding file
/data/user/0/[Link]/no_backup/.milive//record_video_229973369.mp4,
sync_mode: 1, seek_pos: 0, delay: 0, this:0x771e83d800
[098:167] [2025-02-05 14:14:46 +0000.97572][77c5] FFMpeg=> [mov,mp4,m4a,3gp,3g2,mj2
@ 0x7725a11000] Current FFmpeg version git-2021-06-16-97cea6f
[098:242] [2025-02-05 14:14:46 +0000.172791][77c5] OnStreamInfoFound: video
duration_: 15183
[098:243] [2025-02-05 14:14:46 +0000.174232][77c6] NO get frame from decoder
[098:243] [2025-02-05 14:14:46 +0000.174259][6be6] start decoder
[098:244] [2025-02-05 14:14:46 +0000.174385][6be6] CreateDecoderByVideoSource
leave. expire time = 78 ms
[098:244] [2025-02-05 14:14:46 +0000.174433][6be6] BindInputFilter 0x773a1223a0
this 0x771e659fd8
[098:244] [2025-02-05 14:14:46 +0000.174467][6be6] BindInputFilter 0x771e659fd8
this 0x771e86f098
[098:244] [2025-02-05 14:14:46 +0000.174499][6be6] BindInputFilter 0x773a1223a0
this 0x771e86f158
[098:244] [2025-02-05 14:14:46 +0000.174530][6be6] BindInputFilter 0x771e86f158
this 0x771e86f218
[098:244] [2025-02-05 14:14:46 +0000.174552][6be6] AddVideoSource: source filter
list is empty, add first:
/data/user/0/[Link]/no_backup/.milive//record_video_229973369.mp4
[098:244] [2025-02-05 14:14:46 +0000.174588][6be6] BindInputFilter 0x771e86f098
this 0x771e86f2d8
[098:244] [2025-02-05 14:14:46 +0000.174618][6be6] BindInputFilter 0x771e86f2d8
this 0x772c7ea820
[098:244] [2025-02-05 14:14:46 +0000.174653][6be6] BindInputFilter 0x771e86f218
this 0x771e86f398
[098:244] [2025-02-05 14:14:46 +0000.174687][6be6] AddVideoSource: END add video
source:
/data/user/0/[Link]/no_backup/.milive//record_video_229973369.mp4
[098:244] [2025-02-05 14:14:46 +0000.174775][6be6]
Java_com_xiaomi_recordmediaprocess_MediaEffectGraph_SetAudioMuteJni: #
[098:244] [2025-02-05 14:14:46 +0000.174872][6be6]
Java_com_xiaomi_recordmediaprocess_MediaEffectGraph_AddAudioTrackJni:
[098:244] [2025-02-05 14:14:46 +0000.174909][6be6] AddAudioTrack: add audio source
for background: /data/user/0/[Link]/no_backup/music/local/[Link] and
play loop is: 0
[098:244] [2025-02-05 14:14:46 +0000.174992][77c6] NO get frame from decoder
[098:244] [2025-02-05 14:14:46 +0000.175092][6be6] SetPlayLoop: AudioSource
SetPlayLoop 0
[098:244] [2025-02-05 14:14:46 +0000.175122][6be6] AudioMixerFilter time:229992349
enter.
[098:245] [2025-02-05 14:14:46 +0000.175369][6be6] AudioMixerFilter leave. expire
time = 1 ms
[098:245] [2025-02-05 14:14:46 +0000.175437][6be6] BindInputFilter 0x771e86f5d8
this 0x77c44fd8b8
[098:245] [2025-02-05 14:14:46 +0000.175474][6be6] BindInputFilter 0x77cc4fd410
this 0x77c44fd8b8
[098:245] [2025-02-05 14:14:46 +0000.175530][6be6] BindInputFilter 0x771e86f398
this 0x771e86f5d8
[098:245] [2025-02-05 14:14:46 +0000.175560][6be6] AddAudioTrack: add audio source
for background:1
[098:245] [2025-02-05 14:14:46 +0000.175708][77c6] NO get frame from decoder
[098:246] [2025-02-05 14:14:46 +0000.176745][6be6]
Java_com_xiaomi_recordmediaprocess_MediaComposeFile_ConstructMediaComposeFileJni:
[098:246] [2025-02-05 14:14:46 +0000.176905][6be6] MediaComposeFile time:229992351
enter.
[098:246] [2025-02-05 14:14:46 +0000.176961][6be6] RecordingSessionInternalSimple:
Create session internal:720 X 1280 fps:30
[098:246] [2025-02-05 14:14:46 +0000.177092][6be6] createSessionInternal: create
session with video size:720 X 1280 fps:30 bitrate:31457280
[098:246] [2025-02-05 14:14:46 +0000.177168][6be6] Recording session using default
bitrate support by app:31457280
[098:246] [2025-02-05 14:14:46 +0000.177244][77d7] Error([Link]): Set the
pthread name failed with error:34 name:Thread 0x0x772c678540
[098:246] [2025-02-05 14:14:46 +0000.177285][77d7] setAudioChannelCount_w:
RecordingSessionInternalSimple:set the audio channel count:2
[098:247] [2025-02-05 14:14:46 +0000.177412][6be6] setAudioSampleRate:
RecordingSessionInternalSimple:set the audio bitrate:44100
[098:247] [2025-02-05 14:14:46 +0000.177742][77c6] NO get frame from decoder
[098:248] [2025-02-05 14:14:46 +0000.178381][77c6] NO get frame from decoder
[098:252] [2025-02-05 14:14:46 +0000.182960][77c6] NO get frame from decoder
[098:257] [2025-02-05 14:14:46 +0000.187435][77c6] NO get frame from decoder
[098:257] [2025-02-05 14:14:46 +0000.187626][6be6] GetPipeline:
-----------------------------------------
[098:257] [2025-02-05 14:14:46 +0000.187662][6be6] GetPipeline: source:
0x773a122180
[098:257] [2025-02-05 14:14:46 +0000.187688][6be6] GetPipeline: filter: NULLFilter
[098:257] [2025-02-05 14:14:46 +0000.187739][6be6] GetPipeline: filter: NULLFilter
[098:257] [2025-02-05 14:14:46 +0000.187763][6be6] GetPipeline: filter: NULLFilter
[098:257] [2025-02-05 14:14:46 +0000.187785][6be6] GetPipeline: audio filter:
AuidoNULLFilter
[098:257] [2025-02-05 14:14:46 +0000.187807][6be6] GetPipeline: audio filter:
AuidoNULLFilter
[098:257] [2025-02-05 14:14:46 +0000.187828][6be6] GetPipeline: audio filter:
AudioNUllFilter
[098:257] [2025-02-05 14:14:46 +0000.187850][6be6] GetPipeline:
------------------------------------------
[098:257] [2025-02-05 14:14:46 +0000.187875][6be6] filter: filter pipeline2 update
pattern: 2
[098:257] [2025-02-05 14:14:46 +0000.188150][6be6] MediaComposeFile leave. expire
time = 11 ms
[098:258] [2025-02-05 14:14:46 +0000.188987][6be6] machine model :redmi
[098:258] [2025-02-05 14:14:46 +0000.189032][6be6] Support this machine
model :redmi
[098:258] [2025-02-05 14:14:46 +0000.189058][6be6] global inited! current sdk
version: 07-20-936c45f
[098:261] [2025-02-05 14:14:46 +0000.191854][77c6] NO get frame from decoder
[098:274] [2025-02-05 14:14:46 +0000.204343][6be6]
Java_com_xiaomi_recordmediaprocess_MediaComposeFile_SetComposeFileFdJni:
SetComposeFileFdJni:
[098:274] [2025-02-05 14:14:46 +0000.204532][6be6] SetComposeFileFd:
MediaComposeFile::SetComposeFileFd: 243
[098:274] [2025-02-05 14:14:46 +0000.205071][6be6]
Java_com_xiaomi_recordmediaprocess_MediaComposeFile_BeginComposeJni:
[098:274] [2025-02-05 14:14:46 +0000.205130][6be6] BeginCompose: BeginCompose, is
composing 0
[098:277] [2025-02-05 14:14:46 +0000.207702][77d7] start recording, file path:
[098:278] [2025-02-05 14:14:46 +0000.208882][77d7] MP4 session params: fps:30
width:1280 height:720 file name: fileFd: 243 audio_timescale:44100
video_timescale:90000
[098:278] [2025-02-05 14:14:46 +0000.208966][77d7] MP4Recorder AddDisplayRotate:0
c:1 s:0 matrix[0]:256 matrix[1]:0 matrix[2]:0 matrix[3]:0 matrix[4]:256
matrix[8]:64
[098:278] [2025-02-05 14:14:46 +0000.209005][77d7] MP4 recorder params: fps:30
width:1280 height:720 audio time scale:44100 video time scale:90000 file name:
fileFD: 243
[098:278] [2025-02-05 14:14:46 +0000.209046][77d7] fd_open successed
handle:0xb4000077dbc990b0
[098:278] [2025-02-05 14:14:46 +0000.209304][77d7] create mp4 file:254
m_fileHandle: 0x772c764200
[098:279] [2025-02-05 14:14:46 +0000.209372][77d7] MP4 file: is opened successfully
[098:279] [2025-02-05 14:14:46 +0000.209397][77d7] setupMediaProcessers:
[098:279] [2025-02-05 14:14:46 +0000.209420][77d7]
RecordingSessionInternalSimple:setup media processers.
[098:279] [2025-02-05 14:14:46 +0000.209442][77d7] construct AAC encoder
[098:279] [2025-02-05 14:14:46 +0000.209807][77d7] H264Encoder creating:
ultrafast012323
[098:279] [2025-02-05 14:14:46 +0000.209869][77d7] H264Encode::H264Encoder creating
with width:1280 height:720 m_fps:30 m_bitrate:31457280 useHWEncoder:0
[098:280] [2025-02-05 14:14:46 +0000.210327][77d7] H264Encode::GetMachineModel is
2201117TI
[098:280] [2025-02-05 14:14:46 +0000.210395][77d7] H264Encoder machine_mode
is:2201117TI
[098:280] [2025-02-05 14:14:46 +0000.210419][77d7] H264Encode::machine size :9
machine_mode:2201117TI
[098:280] [2025-02-05 14:14:46 +0000.210446][77d7] H264Encode::machine array
size :22 machine_mode:2201117TI
[098:280] [2025-02-05 14:14:46 +0000.210471][77d7] H264Encode::current machine
is :2201117TI auto check hw codec decide to use hw codec
[098:280] [2025-02-05 14:14:46 +0000.210494][77d7] setupCompressionSession:
[098:280] [2025-02-05 14:14:46 +0000.210516][77d7] H264Encode::creating hareware
Encoder
[098:280] [2025-02-05 14:14:46 +0000.210541][77d7] AndroidHwAvcEncoder
time:229992385 enter.
[098:280] [2025-02-05 14:14:46 +0000.210788][77d7] AndroidHwAvcEncoder:
g_jvm_encoder_ :0xb4000077dbc21380 address:0x771b1b4760
[098:280] [2025-02-05 14:14:46 +0000.210937][77d7] AndroidMediaCodecVideoEncoder
construct jni_init_jfields: 1, 1
[098:280] [2025-02-05 14:14:46 +0000.210974][77d7] The video avc hw codec address
is 0x771f00c818
[098:280] [2025-02-05 14:14:46 +0000.211100][77d7] AndroidHwAvcEncoder leave.
expire time = 0 ms
[098:280] [2025-02-05 14:14:46 +0000.211137][77d7] RegisterEncodeCompleteCallback
time:229992385 enter.
[098:280] [2025-02-05 14:14:46 +0000.211227][77d7] RegisterEncodeCompleteCallback
leave. expire time = 0 ms
[098:280] [2025-02-05 14:14:46 +0000.211265][77d7] InitEncode time:229992385
enter.
[098:281] [2025-02-05 14:14:46 +0000.211320][77d7] InitEncode:
MediaCodecVideoEncoder::Release _inited:1
[098:281] [2025-02-05 14:14:46 +0000.211358][77d7] Create time:229992386 enter.
[098:281] [2025-02-05 14:14:46 +0000.211381][77d7] H264Encoder encoderCreate
width:1280 height:720 fps:30 bitrate:31457280 usingVbrMode:1
[098:281] [2025-02-05 14:14:46 +0000.211419][77d7]
AndroidMediaCodecVideoEncoder::initEncoder, codec: 0, width: 1280, height: 720,
framerate: 30, bitrate: 31457280, usingVbr: 1, VideoEncoder: 0x771e86fb40
[098:281] [2025-02-05 14:14:46 +0000.211642][77d7]
supported_type:image/[Link]
[098:281] [2025-02-05 14:14:46 +0000.211696][77d7] supported_type:video/avc
[098:281] [2025-02-05 14:14:46 +0000.211735][77d7] name:[Link]
mime:video/avc
[098:281] [2025-02-05 14:14:46 +0000.211783][77d7] hwCodecPrefix :[Link].
[098:281] [2025-02-05 14:14:46 +0000.211810][77d7] Found target codecer
[Link]
[098:281] [2025-02-05 14:14:46 +0000.211848][77d7] mediacodec_createCodecByName
time:229992386 enter.
[098:281] [2025-02-05 14:14:46 +0000.211884][77d7] WrapAndroidMediaCodec
time:229992386 enter.
[098:281] [2025-02-05 14:14:46 +0000.212008][77d7] WrapAndroidMediaCodec leave.
expire time = 0 ms
[098:287] [2025-02-05 14:14:46 +0000.217548][77dc] Error([Link]): Set the
pthread name failed with error:34 name:Thread 0x0x77c814a898
[098:307] [2025-02-05 14:14:46 +0000.237871][77d7] mediacodec_createCodecByName
leave. expire time = 26 ms
[098:307] [2025-02-05 14:14:46 +0000.237960][77d7] WrapAndroidMediaFromat
time:229992412 enter.
[098:307] [2025-02-05 14:14:46 +0000.238035][77d7] WrapAndroidMediaFromat leave.
expire time = 0 ms
[098:331] [2025-02-05 14:14:46 +0000.262174][77d7] Destroy time:229992436 enter.
[098:331] [2025-02-05 14:14:46 +0000.262294][77d7] WrapAndroidMediaFromat::
Destroy
[098:332] [2025-02-05 14:14:46 +0000.262331][77d7] Destroy leave. expire time = 1
ms
[098:332] [2025-02-05 14:14:46 +0000.262364][77d7] ~WrapAndroidMediaFromat
time:229992437 enter.
[098:332] [2025-02-05 14:14:46 +0000.262397][77d7] ~WrapAndroidMediaFromat leave.
expire time = 0 ms
[098:332] [2025-02-05 14:14:46 +0000.262434][77d7] Create leave. expire time = 51
ms
[098:332] [2025-02-05 14:14:46 +0000.262469][77d7] isSemiPlanarSupport
time:229992437 enter.
[098:332] [2025-02-05 14:14:46 +0000.262500][77d7] H264Encoder isSemiPlanarSupport
[098:332] [2025-02-05 14:14:46 +0000.262533][77d7] isSemiPlanarSupport leave.
expire time = 0 ms
[098:332] [2025-02-05 14:14:46 +0000.262564][77d7] creat hw H264Encoder success,
isSemiPlanar:1
[098:332] [2025-02-05 14:14:46 +0000.262703][77d7] InitEncode leave. expire time =
52 ms
[098:332] [2025-02-05 14:14:46 +0000.262740][77d7] H264Encode::created Encoder
[098:332] [2025-02-05 14:14:46 +0000.262770][77d7] H264Encode:: H264 encoder
created.
[098:332] [2025-02-05 14:14:46 +0000.262796][77d7] H264 encoder created.
[098:332] [2025-02-05 14:14:46 +0000.262822][77d7]
RecordingSessionInternalSimple:created avc encoder avc: 0x771eecd700
[098:332] [2025-02-05 14:14:46 +0000.262852][77d7] setOutput:
[098:332] [2025-02-05 14:14:46 +0000.262878][77d7]
RecordingSessionInternalSimple:encoder set output to muxer!
[098:332] [2025-02-05 14:14:46 +0000.262905][77d7] request a key frame
[098:332] [2025-02-05 14:14:46 +0000.262931][77d7] H264Encode:: request a key frame
[098:334] [2025-02-05 14:14:46 +0000.264666][77d7] setDisplayRotate :90
[098:334] [2025-02-05 14:14:46 +0000.264792][77d7] MP4Recorder AddDisplayRotate:90
c:6.12323e-17 s:-1 matrix[0]:0 matrix[1]:256 matrix[2]:0 matrix[3]:65535
matrix[4]:0 matrix[8]:64
[098:335] [2025-02-05 14:14:46 +0000.265881][77db] Start decoding file
/data/user/0/[Link]/no_backup/music/local/[Link], sync_mode: 0,
seek_pos: 0, delay: 0, this:0x773a107400
[098:336] [2025-02-05 14:14:46 +0000.267314][77d8] MediaComposeFile
WriteVideoFrametoMP4_w -> pushExtraYUVFrame
[098:337] [2025-02-05 14:14:46 +0000.268255][77d8]
AndroidMediaCodecVideoEncoder::encodeFrameInput force a key frame
[098:343] [2025-02-05 14:14:46 +0000.273940][77d5] FFMpeg=> [aac @ 0x775c189400]
Current FFmpeg version git-2021-06-16-97cea6f
[098:351] [2025-02-05 14:14:46 +0000.281754][77d5] Warning(ff_ffplay.cpp:68):
FFMpeg=> [aac @ 0x775c189400] Estimating duration from bitrate, this may be
inaccurate
[098:383] [2025-02-05 14:14:46 +0000.314189][77db] Error(video_source.cc:301):
VideoSource not start to decode audio
[098:387] [2025-02-05 14:14:46 +0000.318225][77dc] add aac audio track with id:1
[098:388] [2025-02-05 14:14:46 +0000.318449][77dc] audio start ts:0
[098:388] [2025-02-05 14:14:46 +0000.318517][77dc] the audio frame has been written
into MP4 file
[098:475] [2025-02-05 14:14:46 +0000.406256][77d8] h264 add frame header cdr flag
[098:491] [2025-02-05 14:14:46 +0000.421612][77d8] h264 add frame header cdr flag
[098:491] [2025-02-05 14:14:46 +0000.422088][77d8] Received key frame:10
[098:491] [2025-02-05 14:14:46 +0000.422166][77d8] H264Encode:: get a sps pps
header!headerSize:31
[098:492] [2025-02-05 14:14:46 +0000.422342][77dc] get the H.264 SPS parameter
[098:493] [2025-02-05 14:14:46 +0000.423557][77dc] add video track with id:2
[098:493] [2025-02-05 14:14:46 +0000.424082][77dc] get the H.264 PPS parameter
[098:503] [2025-02-05 14:14:46 +0000.433682][77dc] get the H.264 IDR frame
[098:503] [2025-02-05 14:14:46 +0000.434169][77dc] resss:true
[098:503] [2025-02-05 14:14:46 +0000.434200][77dc] video start ts:10
[098:503] [2025-02-05 14:14:46 +0000.434267][77dc] the video frame has been written
into MP4 file
[098:553] [2025-02-05 14:14:46 +0000.484014][77da] Error(video_source.cc:430): wait
decoder a frame: 0
[098:565] [2025-02-05 14:14:46 +0000.495694][77db] Error(video_source.cc:301):
VideoSource not start to decode audio
[098:635] [2025-02-05 14:14:46 +0000.566135][77d8] DTS queue for
Generator:0x77c814aeb8 430 467 499 538
[098:692] [2025-02-05 14:14:46 +0000.622692][764f] Run AGC when audioType = 0
[098:692] [2025-02-05 14:14:46 +0000.623167][764f]
AudioDeviceDataHandler::MixAndSendOutFrame
[098:795] [2025-02-05 14:14:46 +0000.725873][77d8] Push an pts:794 to dts queue.
[098:800] [2025-02-05 14:14:46 +0000.731292][77db] Error(video_source.cc:301):
VideoSource not start to decode audio
[098:898] [2025-02-05 14:14:46 +0000.829267][77db] audio frame wait video
frame.last_video_timestamp:1596 last_audio_timestamp:1811
[098:924] [2025-02-05 14:14:46 +0000.854724][77d8] last dts:761 currentPts:794
ppsOrSPS:0 queue length:4
[098:972] [2025-02-05 14:14:46 +0000.902913][764f] haveEnoughProcessedData
[Link]: 0
[099:097] [2025-02-05 14:14:47 +0000.27860][77da] Error(video_source.cc:430): wait
decoder a frame: 0
[099:109] [2025-02-05 14:14:47 +0000.40087][77db] Error(video_source.cc:301):
VideoSource not start to decode audio
[099:216] [2025-02-05 14:14:47 +0000.146527][77d8] DTS queue for
Generator:0x77c814aeb8 1251 1282 1319 1350
[099:269] [2025-02-05 14:14:47 +0000.200307][77d8] RecordingSessionInternalSimple:
pushExtraYUVFrame. width:1280 height:720input pixel type:0 dataType:0 stride:1280
streamId:1 timestamp:1623
[099:270] [2025-02-05 14:14:47 +0000.200529][77d8] push video frame to H264
encoder. (100 frame for one log)
[099:270] [2025-02-05 14:14:47 +0000.200590][77d8] push video frame to H264
encoder. (100 frame for one log) used width:1280 height:720
[099:270] [2025-02-05 14:14:47 +0000.200617][77d8] H264Encode::push video frame to
H264 encoder, using hw H264:1 width:1280 height:720 pts:1623(100 frame for one
log)
[099:270] [2025-02-05 14:14:47 +0000.200658][77d8] The input pts:1623 fps:30
[099:340] [2025-02-05 14:14:47 +0000.270626][77d8] SendFrame
encodedImage._timeStamp:1454encodedImage->_length:153664
[099:361] [2025-02-05 14:14:47 +0000.291567][77db] Error(video_source.cc:301):
VideoSource not start to decode audio
[099:362] [2025-02-05 14:14:47 +0000.293242][77d8] H264Encode::H264 encoder push
frame to next component(100 times for one log) with dts:1496 pts:1496
[099:419] [2025-02-05 14:14:47 +0000.349961][77d8] H264Encode::H264SWEncoder get
callback, length:128992 type:1 nalType:1length:128988
[099:531] [2025-02-05 14:14:47 +0000.462018][77d8] Push an pts:2118 to dts queue.
[099:594] [2025-02-05 14:14:47 +0000.525273][77d8] h264 add frame header cdr flag
[099:595] [2025-02-05 14:14:47 +0000.525806][77d8] Received key frame:1987
[099:595] [2025-02-05 14:14:47 +0000.525871][77d8] DTS queue for
Generator:0x77c814aeb8 1987 2019 2052 2085 2118 2151 2189 2224 2255
[099:597] [2025-02-05 14:14:47 +0000.527867][77dc] get the H.264 IDR frame
[099:604] [2025-02-05 14:14:47 +0000.535206][77db] FilterPipeline2::OnAudioFrame
pts 3645 last_audio_timestamp_ 3645
[099:607] [2025-02-05 14:14:47 +0000.537910][77da] Error(video_source.cc:430): wait
decoder a frame: 0
[099:646] [2025-02-05 14:14:47 +0000.576693][77d8] last dts:2085 currentPts:2118
ppsOrSPS:0 queue length:9
[099:685] [2025-02-05 14:14:47 +0000.615407][77da] webrtc common_video plane
old ..... (1/1000) new: 9001 delete: 8860 diff: 141
[099:688] [2025-02-05 14:14:47 +0000.618833][77db] Error(video_source.cc:301):
VideoSource not start to decode audio
[099:953] [2025-02-05 14:14:47 +0000.883417][77db] Error(video_source.cc:301):
VideoSource not start to decode audio
[099:981] [2025-02-05 14:14:47 +0000.911570][77d8] DTS queue for
Generator:0x77c814aeb8 2821 2851 2889 2920 2957 2993 3027 3056 3088
[100:140] [2025-02-05 14:14:48 +0000.70598][77d8] Push an pts:3454 to dts queue.
[100:213] [2025-02-05 14:14:48 +0000.143997][77da] Error(video_source.cc:430): wait
decoder a frame: 35
[100:256] [2025-02-05 14:14:48 +0000.187176][77db] Error(video_source.cc:301):
VideoSource not start to decode audio
[100:295] [2025-02-05 14:14:48 +0000.225750][77d8] last dts:3422 currentPts:3454
ppsOrSPS:0 queue length:9
[100:378] [2025-02-05 14:14:48 +0000.309165][77d8] DTS queue for
Generator:0x77c814aeb8 3650 3690 3728 3766 3797 3831 3865 3897 3934
[100:433] [2025-02-05 14:14:48 +0000.364074][77db] too much frame will be writed
[100:432] [2025-02-05 14:14:48 +0000.362935][77da] too much frame will be writed
[100:491] [2025-02-05 14:14:48 +0000.422046][77db] Error(video_source.cc:301):
VideoSource not start to decode audio
[100:520] [2025-02-05 14:14:48 +0000.450987][77db] too much frame will be writed
[100:532] [2025-02-05 14:14:48 +0000.462380][77d8] h264 add frame header cdr flag
[100:532] [2025-02-05 14:14:48 +0000.462781][77d8] Received key frame:4001
[100:556] [2025-02-05 14:14:48 +0000.487158][77dc] get the H.264 IDR frame
[100:557] [2025-02-05 14:14:48 +0000.488132][77da] too much frame will be writed
[100:561] [2025-02-05 14:14:48 +0000.492241][77db] too much frame will be writed
[100:582] [2025-02-05 14:14:48 +0000.512908][77db] too much frame will be writed
[100:614] [2025-02-05 14:14:48 +0000.544997][77da] too much frame will be writed
[100:637] [2025-02-05 14:14:48 +0000.568154][77db] too much frame will be writed
[100:662] [2025-02-05 14:14:48 +0000.592737][77db] too much frame will be writed
[100:686] [2025-02-05 14:14:48 +0000.616584][7650] webrtc device:Handle the data
from samplesPerSec recording sample rate:48000 nSamples:480 nBytesPerSample:#
nChannels:#
[100:686] [2025-02-05 14:14:48 +0000.616683][7650] _deviceSampleRate:48000
[100:687] [2025-02-05 14:14:48 +0000.618203][764f] Run AGC when audioType = 0
[100:687] [2025-02-05 14:14:48 +0000.618260][77da] too much frame will be writed
[100:693] [2025-02-05 14:14:48 +0000.623656][764f] haveEnoughProcessedData
[Link]: 0
[100:696] [2025-02-05 14:14:48 +0000.626469][77db] too much frame will be writed
[100:710] [2025-02-05 14:14:48 +0000.641301][77da] Error(video_source.cc:430): wait
decoder a frame: 0
[100:729] [2025-02-05 14:14:48 +0000.659577][77db] too much frame will be writed
[100:738] [2025-02-05 14:14:48 +0000.668643][77d8] DTS queue for
Generator:0x77c814aeb8 4495 4531 4562 4596 4629 4664 4695 4729
[100:743] [2025-02-05 14:14:48 +0000.674195][77da] too much frame will be writed
[100:756] [2025-02-05 14:14:48 +0000.686817][77d8] Push an pts:4792 to dts queue.
[100:769] [2025-02-05 14:14:48 +0000.699477][77db] too much frame will be writed
[100:796] [2025-02-05 14:14:48 +0000.726721][77db] too much frame will be writed
[100:800] [2025-02-05 14:14:48 +0000.730497][77da] too much frame will be writed
[100:823] [2025-02-05 14:14:48 +0000.754125][77db] too much frame will be writed
[100:827] [2025-02-05 14:14:48 +0000.757824][77db] Error(video_source.cc:301):
VideoSource not start to decode audio
[100:844] [2025-02-05 14:14:48 +0000.774984][77d8] RecordingSessionInternalSimple:
pushExtraYUVFrame. width:1280 height:720input pixel type:0 dataType:0 stride:1280
streamId:1 timestamp:4987
[100:844] [2025-02-05 14:14:48 +0000.775105][77d8] push video frame to H264
encoder. (100 frame for one log)
[100:844] [2025-02-05 14:14:48 +0000.775139][77d8] push video frame to H264
encoder. (100 frame for one log) used width:1280 height:720
[100:844] [2025-02-05 14:14:48 +0000.775164][77d8] H264Encode::push video frame to
H264 encoder, using hw H264:1 width:1280 height:720 pts:4987(100 frame for one
log)
[100:844] [2025-02-05 14:14:48 +0000.775205][77d8] The input pts:4987 fps:30
[100:862] [2025-02-05 14:14:48 +0000.792760][77db] too much frame will be writed
[100:867] [2025-02-05 14:14:48 +0000.797835][77da] too much frame will be writed
[100:891] [2025-02-05 14:14:48 +0000.821426][77db] too much frame will be writed
[100:895] [2025-02-05 14:14:48 +0000.825995][77d8] SendFrame
encodedImage._timeStamp:4792encodedImage->_length:116160
[100:896] [2025-02-05 14:14:48 +0000.826435][77d8] last dts:4764 currentPts:4792
ppsOrSPS:0 queue length:9
[100:920] [2025-02-05 14:14:48 +0000.850723][77db] too much frame will be writed
[100:922] [2025-02-05 14:14:48 +0000.852625][77da] too much frame will be writed
[100:929] [2025-02-05 14:14:48 +0000.860002][77d8] H264Encode::H264 encoder push
frame to next component(100 times for one log) with dts:4854 pts:4854
[100:946] [2025-02-05 14:14:48 +0000.876779][77db] too much frame will be writed
[100:973] [2025-02-05 14:14:48 +0000.904304][77db] too much frame will be writed
[100:981] [2025-02-05 14:14:48 +0000.911514][77d8] H264Encode::H264SWEncoder get
callback, length:95776 type:1 nalType:1length:95772
[100:982] [2025-02-05 14:14:48 +0000.913136][77da] too much frame will be writed
[100:999] [2025-02-05 14:14:48 +0000.929818][77db] too much frame will be writed
[101:031] [2025-02-05 14:14:48 +0000.961487][77db] too much frame will be writed
[101:043] [2025-02-05 14:14:48 +0000.973375][77da] too much frame will be writed
[101:062] [2025-02-05 14:14:48 +0000.993037][77db] too much frame will be writed
[101:089] [2025-02-05 14:14:49 +0000.20030][77db] too much frame will be writed
[101:091] [2025-02-05 14:14:49 +0000.22112][77da] too much frame will be writed
[101:110] [2025-02-05 14:14:49 +0000.40765][77db] too much frame will be writed
[101:139] [2025-02-05 14:14:49 +0000.69416][77da] too much frame will be writed
[101:145] [2025-02-05 14:14:49 +0000.76275][77d8] DTS queue for
Generator:0x77c814aeb8 5326 5359 5398 5429 5464 5498 5525 5559
[101:149] [2025-02-05 14:14:49 +0000.79668][77db] too much frame will be writed
[101:172] [2025-02-05 14:14:49 +0000.103150][77db] too much frame will be writed
[101:181] [2025-02-05 14:14:49 +0000.112261][77db] Error(video_source.cc:301):
VideoSource not start to decode audio
[101:198] [2025-02-05 14:14:49 +0000.128660][77db] too much frame will be writed
[101:198] [2025-02-05 14:14:49 +0000.129126][77da] too much frame will be writed
[101:232] [2025-02-05 14:14:49 +0000.162576][77db] too much frame will be writed
[101:253] [2025-02-05 14:14:49 +0000.183504][77da] too much frame will be writed
[101:253] [2025-02-05 14:14:49 +0000.183990][77db] too much frame will be writed
[101:276] [2025-02-05 14:14:49 +0000.207106][77db] too much frame will be writed
[101:304] [2025-02-05 14:14:49 +0000.234577][77da] too much frame will be writed
[101:307] [2025-02-05 14:14:49 +0000.238013][77db] too much frame will be writed
[101:341] [2025-02-05 14:14:49 +0000.272164][77db] too much frame will be writed
[101:362] [2025-02-05 14:14:49 +0000.292780][77da] too much frame will be writed
[101:364] [2025-02-05 14:14:49 +0000.295324][77db] too much frame will be writed
[101:398] [2025-02-05 14:14:49 +0000.328729][77db] too much frame will be writed
[101:410] [2025-02-05 14:14:49 +0000.340615][77da] too much frame will be writed
[101:421] [2025-02-05 14:14:49 +0000.352146][77db] too much frame will be writed
[101:433] [2025-02-05 14:14:49 +0000.363478][77da] Error(video_source.cc:430): wait
decoder a frame: 0
[101:435] [2025-02-05 14:14:49 +0000.365443][77d8] Push an pts:6124 to dts queue.
[101:451] [2025-02-05 14:14:49 +0000.381560][77db] too much frame will be writed
[101:466] [2025-02-05 14:14:49 +0000.396889][77da] too much frame will be writed
[101:480] [2025-02-05 14:14:49 +0000.411151][77db] too much frame will be writed
[101:497] [2025-02-05 14:14:49 +0000.427739][77d8] h264 add frame header cdr flag
[101:497] [2025-02-05 14:14:49 +0000.428121][77d8] Received key frame:5993
[101:499] [2025-02-05 14:14:49 +0000.429819][77da] webrtc common_video plane
old ..... (1/1000) new: 10001 delete: 9812 diff: 189
[101:508] [2025-02-05 14:14:49 +0000.439179][77db] too much frame will be writed
[101:511] [2025-02-05 14:14:49 +0000.441429][77db] Error(video_source.cc:301):
VideoSource not start to decode audio
[101:527] [2025-02-05 14:14:49 +0000.457505][77da] too much frame will be writed
[101:537] [2025-02-05 14:14:49 +0000.468168][77db] too much frame will be writed
[101:541] [2025-02-05 14:14:49 +0000.471602][77dc] get the H.264 IDR frame
[101:569] [2025-02-05 14:14:49 +0000.499852][77db] too much frame will be writed
[101:571] [2025-02-05 14:14:49 +0000.501667][77d8] last dts:6094 currentPts:6124
ppsOrSPS:0 queue length:8
[101:571] [2025-02-05 14:14:49 +0000.501858][77d8] DTS queue for
Generator:0x77c814aeb8 6155 6186 6219 6255 6287 6324 6355
[101:576] [2025-02-05 14:14:49 +0000.506701][77da] too much frame will be writed
[101:592] [2025-02-05 14:14:49 +0000.523174][77db] too much frame will be writed
[101:618] [2025-02-05 14:14:49 +0000.548473][77db] too much frame will be writed
[101:628] [2025-02-05 14:14:49 +0000.559087][77da] too much frame will be writed
[101:662] [2025-02-05 14:14:49 +0000.592948][77db] too much frame will be writed
[101:682] [2025-02-05 14:14:49 +0000.613036][77da] too much frame will be writed
[101:684] [2025-02-05 14:14:49 +0000.614691][77db] too much frame will be writed
[101:732] [2025-02-05 14:14:49 +0000.663160][77db] too much frame will be writed
[101:741] [2025-02-05 14:14:49 +0000.672124][77da] too much frame will be writed
[101:757] [2025-02-05 14:14:49 +0000.687794][77db] too much frame will be writed
[101:793] [2025-02-05 14:14:49 +0000.723349][77db] too much frame will be writed
[101:797] [2025-02-05 14:14:49 +0000.728225][77da] too much frame will be writed
[101:823] [2025-02-05 14:14:49 +0000.753575][77db] too much frame will be writed
[101:851] [2025-02-05 14:14:49 +0000.781715][77da] too much frame will be writed
[101:851] [2025-02-05 14:14:49 +0000.781998][77db] too much frame will be writed
[101:874] [2025-02-05 14:14:49 +0000.805114][77db] too much frame will be writed
[101:898] [2025-02-05 14:14:49 +0000.828972][77db] too much frame will be writed
[101:915] [2025-02-05 14:14:49 +0000.845821][77da] too much frame will be writed
[101:922] [2025-02-05 14:14:49 +0000.852830][77db] too much frame will be writed
[101:931] [2025-02-05 14:14:49 +0000.861616][77db] Error(video_source.cc:301):
VideoSource not start to decode audio
[101:949] [2025-02-05 14:14:49 +0000.879763][77db] too much frame will be writed
[101:963] [2025-02-05 14:14:49 +0000.894177][77da] too much frame will be writed
[101:978] [2025-02-05 14:14:49 +0000.908562][77db] too much frame will be writed
[102:005] [2025-02-05 14:14:49 +0000.936022][77db] too much frame will be writed
[102:014] [2025-02-05 14:14:49 +0000.945201][77da] too much frame will be writed
[102:026] [2025-02-05 14:14:49 +0000.956692][77db] too much frame will be writed
[102:037] [2025-02-05 14:14:49 +0000.968275][77d8] DTS queue for
Generator:0x77c814aeb8 7027 7061 7091 7127 7155
[102:049] [2025-02-05 14:14:49 +0000.979530][77db] too much frame will be writed
[102:062] [2025-02-05 14:14:49 +0000.993097][77da] too much frame will be writed
[102:074] [2025-02-05 14:14:50 +0000.5280][77db] too much frame will be writed
[102:102] [2025-02-05 14:14:50 +0000.32546][77db] too much frame will be writed
[102:107] [2025-02-05 14:14:50 +0000.37658][77da] too much frame will be writed
[102:135] [2025-02-05 14:14:50 +0000.65913][77db] too much frame will be writed
[102:164] [2025-02-05 14:14:50 +0000.95168][77da] too much frame will be writed
[102:164] [2025-02-05 14:14:50 +0000.95109][77db] too much frame will be writed
[102:183] [2025-02-05 14:14:50 +0000.114246][77d8] Push an pts:7455 to dts queue.
[102:185] [2025-02-05 14:14:50 +0000.116132][77da] Error(video_source.cc:430): wait
decoder a frame: 0
[102:192] [2025-02-05 14:14:50 +0000.123015][77db] too much frame will be writed
[102:213] [2025-02-05 14:14:50 +0000.143859][77da] too much frame will be writed
[102:233] [2025-02-05 14:14:50 +0000.163422][77db] too much frame will be writed
[102:266] [2025-02-05 14:14:50 +0000.196626][77db] too much frame will be writed
[102:272] [2025-02-05 14:14:50 +0000.202783][77da] too much frame will be writed
[102:286] [2025-02-05 14:14:50 +0000.216774][77db] Error(video_source.cc:301):
VideoSource not start to decode audio
[102:306] [2025-02-05 14:14:50 +0000.236607][77db] too much frame will be writed
[102:315] [2025-02-05 14:14:50 +0000.246101][77d8] last dts:7421 currentPts:7455
ppsOrSPS:0 queue length:11
[102:335] [2025-02-05 14:14:50 +0000.265778][77db] too much frame will be writed
[102:336] [2025-02-05 14:14:50 +0000.266900][77da] too much frame will be writed
[102:373] [2025-02-05 14:14:50 +0000.304239][77db] too much frame will be writed
[102:397] [2025-02-05 14:14:50 +0000.327473][77da] too much frame will be writed
[102:412] [2025-02-05 14:14:50 +0000.342958][77db] too much frame will be writed
[102:436] [2025-02-05 14:14:50 +0000.366717][77db] too much frame will be writed
[102:437] [2025-02-05 14:14:50 +0000.367552][764f] haveEnoughProcessedData
[Link]: 0
[102:455] [2025-02-05 14:14:50 +0000.385671][77da] too much frame will be writed
[102:459] [2025-02-05 14:14:50 +0000.390007][77db] too much frame will be writed
[102:470] [2025-02-05 14:14:50 +0000.401272][77d8] DTS queue for
Generator:0x77c814aeb8 7790 7820 7854 7886 7918 7950 7990 8020 8053
[102:482] [2025-02-05 14:14:50 +0000.412548][77db] too much frame will be writed
[102:525] [2025-02-05 14:14:50 +0000.455482][77da] too much frame will be writed
[102:526] [2025-02-05 14:14:50 +0000.456988][77db] too much frame will be writed
[102:554] [2025-02-05 14:14:50 +0000.484431][77db] too much frame will be writed
[102:560] [2025-02-05 14:14:50 +0000.490942][77d8] h264 add frame header cdr flag
[102:561] [2025-02-05 14:14:50 +0000.491815][77d8] Received key frame:7990
[102:572] [2025-02-05 14:14:50 +0000.502737][77dc] get the H.264 IDR frame
[102:575] [2025-02-05 14:14:50 +0000.505649][77da] too much frame will be writed
[102:575] [2025-02-05 14:14:50 +0000.506285][77d8] RecordingSessionInternalSimple:
pushExtraYUVFrame. width:1280 height:720input pixel type:0 dataType:0 stride:1280
streamId:1 timestamp:8356
[102:576] [2025-02-05 14:14:50 +0000.506350][77d8] push video frame to H264
encoder. (100 frame for one log)
[102:576] [2025-02-05 14:14:50 +0000.506374][77d8] push video frame to H264
encoder. (100 frame for one log) used width:1280 height:720
[102:576] [2025-02-05 14:14:50 +0000.506396][77d8] H264Encode::push video frame to
H264 encoder, using hw H264:1 width:1280 height:720 pts:8356(100 frame for one
log)
[102:576] [2025-02-05 14:14:50 +0000.506429][77d8] The input pts:8356 fps:30
[102:581] [2025-02-05 14:14:50 +0000.511650][77db] too much frame will be writed
[102:592] [2025-02-05 14:14:50 +0000.522886][77db] Error(video_source.cc:301):
VideoSource not start to decode audio
[102:606] [2025-02-05 14:14:50 +0000.537231][77db] too much frame will be writed
[102:622] [2025-02-05 14:14:50 +0000.552771][77d8] SendFrame
encodedImage._timeStamp:8120encodedImage->_length:146336
[102:625] [2025-02-05 14:14:50 +0000.555895][77da] too much frame will be writed
[102:628] [2025-02-05 14:14:50 +0000.558911][77db] too much frame will be writed
[102:646] [2025-02-05 14:14:50 +0000.577032][77d8] H264Encode::H264 encoder push
frame to next component(100 times for one log) with dts:8224 pts:8224
[102:658] [2025-02-05 14:14:50 +0000.588368][77db] too much frame will be writed
[102:678] [2025-02-05 14:14:50 +0000.608600][77da] too much frame will be writed
[102:682] [2025-02-05 14:14:50 +0000.613307][77db] too much frame will be writed
[102:689] [2025-02-05 14:14:50 +0000.619745][764f] Run AGC when audioType = 0
[102:689] [2025-02-05 14:14:50 +0000.619976][764f]
AudioDeviceDataHandler::MixAndSendOutFrame
[102:704] [2025-02-05 14:14:50 +0000.634580][77d8] H264Encode::H264SWEncoder get
callback, length:137856 type:1 nalType:1length:137852
[102:711] [2025-02-05 14:14:50 +0000.642008][77db] too much frame will be writed
[102:738] [2025-02-05 14:14:50 +0000.668903][77da] too much frame will be writed
[102:745] [2025-02-05 14:14:50 +0000.675890][77db] too much frame will be writed
[102:765] [2025-02-05 14:14:50 +0000.696331][77d8] Push an pts:8786 to dts queue.
[102:775] [2025-02-05 14:14:50 +0000.705765][77da] Error(video_source.cc:430): wait
decoder a frame: 0
[102:782] [2025-02-05 14:14:50 +0000.712660][77db] too much frame will be writed
[102:794] [2025-02-05 14:14:50 +0000.724624][77d8] DTS queue for
Generator:0x77c814aeb8 8589 8621 8658 8689 8722 8753 8786 8822 8856 8890
[102:813] [2025-02-05 14:14:50 +0000.744182][77db] too much frame will be writed
[102:814] [2025-02-05 14:14:50 +0000.744654][77da] too much frame will be writed
[102:846] [2025-02-05 14:14:50 +0000.777004][77db] too much frame will be writed
[102:864] [2025-02-05 14:14:50 +0000.794427][77da] too much frame will be writed
[102:869] [2025-02-05 14:14:50 +0000.800155][77db] too much frame will be writed
[102:890] [2025-02-05 14:14:50 +0000.820807][77d8] last dts:8753 currentPts:8786
ppsOrSPS:0 queue length:7
[102:892] [2025-02-05 14:14:50 +0000.823139][77db] too much frame will be writed
[102:908] [2025-02-05 14:14:50 +0000.839219][77da] too much frame will be writed
[102:917] [2025-02-05 14:14:50 +0000.848106][77db] too much frame will be writed
[102:921] [2025-02-05 14:14:50 +0000.851657][77db] Error(video_source.cc:301):
VideoSource not start to decode audio
[102:951] [2025-02-05 14:14:50 +0000.882311][77db] too much frame will be writed
[102:981] [2025-02-05 14:14:50 +0000.911597][77da] too much frame will be writed
[102:990] [2025-02-05 14:14:50 +0000.920436][77db] too much frame will be writed
[103:014] [2025-02-05 14:14:50 +0000.944502][77db] too much frame will be writed
[103:038] [2025-02-05 14:14:50 +0000.968712][77da] too much frame will be writed
[103:046] [2025-02-05 14:14:50 +0000.976749][77db] too much frame will be writed
[103:076] [2025-02-05 14:14:51 +0000.7020][77db] too much frame will be writed
[103:096] [2025-02-05 14:14:51 +0000.27248][77da] too much frame will be writed
[103:115] [2025-02-05 14:14:51 +0000.45509][77db] too much frame will be writed
[103:140] [2025-02-05 14:14:51 +0000.70764][77db] too much frame will be writed
[103:158] [2025-02-05 14:14:51 +0000.88536][77da] too much frame will be writed
[103:167] [2025-02-05 14:14:51 +0000.97932][77d8] DTS queue for
Generator:0x77c814aeb8 9451 9489 9521 9557 9589 9624 9656 9694
[103:179] [2025-02-05 14:14:51 +0000.109821][77db] too much frame will be writed
[103:182] [2025-02-05 14:14:51 +0000.112371][77db] Error(video_source.cc:301):
VideoSource not start to decode audio
[103:205] [2025-02-05 14:14:51 +0000.135553][77db] too much frame will be writed
[103:219] [2025-02-05 14:14:51 +0000.149865][77da] too much frame will be writed
[103:226] [2025-02-05 14:14:51 +0000.157039][77db] too much frame will be writed
[103:260] [2025-02-05 14:14:51 +0000.191037][77db] too much frame will be writed
[103:279] [2025-02-05 14:14:51 +0000.209658][77da] too much frame will be writed
[103:301] [2025-02-05 14:14:51 +0000.231450][77db] too much frame will be writed
[103:319] [2025-02-05 14:14:51 +0000.249825][77d8] Push an pts:10135 to dts queue.
[103:326] [2025-02-05 14:14:51 +0000.256321][77db] too much frame will be writed
[103:340] [2025-02-05 14:14:51 +0000.270688][77da] too much frame will be writed
[103:346] [2025-02-05 14:14:51 +0000.276668][77db] too much frame will be writed
[103:365] [2025-02-05 14:14:51 +0000.296043][77da] Error(video_source.cc:430): wait
decoder a frame: 0
[103:369] [2025-02-05 14:14:51 +0000.300085][77db] too much frame will be writed
[103:397] [2025-02-05 14:14:51 +0000.327892][77da] too much frame will be writed
[103:397] [2025-02-05 14:14:51 +0000.328249][77d8] h264 add frame header cdr flag
[103:398] [2025-02-05 14:14:51 +0000.328646][77d8] Received key frame:9992
[103:405] [2025-02-05 14:14:51 +0000.336263][77db] too much frame will be writed
[103:407] [2025-02-05 14:14:51 +0000.337920][77dc] get the H.264 IDR frame
[103:441] [2025-02-05 14:14:51 +0000.372081][77db] too much frame will be writed
[103:451] [2025-02-05 14:14:51 +0000.382184][77d8] last dts:10106 currentPts:10135
ppsOrSPS:0 queue length:9
[103:468] [2025-02-05 14:14:51 +0000.399203][77da] webrtc common_video plane
old ..... (1/1000) new: 11001 delete: 10812 diff: 189
[103:481] [2025-02-05 14:14:51 +0000.411847][77d8] DTS queue for
Generator:0x77c814aeb8 10267 10301 10331 10363 10397 10433 10464 10499 10527
[103:493] [2025-02-05 14:14:51 +0000.424210][77db] Error(video_source.cc:301):
VideoSource not start to decode audio
[103:508] [2025-02-05 14:14:51 +0000.438857][77db] too much frame will be writed
[103:528] [2025-02-05 14:14:51 +0000.459350][77da] too much frame will be writed
[103:539] [2025-02-05 14:14:51 +0000.469426][77db] too much frame will be writed
[103:561] [2025-02-05 14:14:51 +0000.491350][77db] too much frame will be writed
[103:586] [2025-02-05 14:14:51 +0000.516497][77da] too much frame will be writed
[103:587] [2025-02-05 14:14:51 +0000.517737][77db] too much frame will be writed
[103:617] [2025-02-05 14:14:51 +0000.548273][77db] too much frame will be writed
[103:638] [2025-02-05 14:14:51 +0000.568666][77da] too much frame will be writed
[103:638] [2025-02-05 14:14:51 +0000.568948][77db] too much frame will be writed
[103:663] [2025-02-05 14:14:51 +0000.593767][77db] too much frame will be writed
[103:693] [2025-02-05 14:14:51 +0000.623366][77db] too much frame will be writed
[103:697] [2025-02-05 14:14:51 +0000.628247][77da] too much frame will be writed
[103:728] [2025-02-05 14:14:51 +0000.658449][77db] too much frame will be writed
[103:747] [2025-02-05 14:14:51 +0000.677756][77da] too much frame will be writed
[103:750] [2025-02-05 14:14:51 +0000.680994][77db] too much frame will be writed
[103:771] [2025-02-05 14:14:51 +0000.701409][77db] too much frame will be writed
[103:800] [2025-02-05 14:14:51 +0000.730381][77da] too much frame will be writed
[103:802] [2025-02-05 14:14:51 +0000.732942][77db] Error(video_source.cc:301):
VideoSource not start to decode audio
[103:816] [2025-02-05 14:14:51 +0000.747265][77db] too much frame will be writed
[103:849] [2025-02-05 14:14:51 +0000.780095][77db] too much frame will be writed
[103:864] [2025-02-05 14:14:51 +0000.795003][77d8] DTS queue for
Generator:0x77c814aeb8 11129 11156 11197 11234 11274 11310 11343
[103:866] [2025-02-05 14:14:51 +0000.796950][77da] too much frame will be writed
[103:871] [2025-02-05 14:14:51 +0000.801981][77db] too much frame will be writed
[103:893] [2025-02-05 14:14:51 +0000.824131][77d8] Push an pts:11457 to dts queue.
[103:906] [2025-02-05 14:14:51 +0000.836569][77db] too much frame will be writed
[103:922] [2025-02-05 14:14:51 +0000.853037][77da] Error(video_source.cc:430): wait
decoder a frame: 0
[103:934] [2025-02-05 14:14:51 +0000.864688][77da] too much frame will be writed
[103:936] [2025-02-05 14:14:51 +0000.866840][77db] too much frame will be writed
[103:963] [2025-02-05 14:14:51 +0000.894050][77db] too much frame will be writed
[103:985] [2025-02-05 14:14:51 +0000.915807][77db] too much frame will be writed
[103:989] [2025-02-05 14:14:51 +0000.919720][77da] too much frame will be writed
[104:006] [2025-02-05 14:14:51 +0000.936526][77d8] SendFrame
encodedImage._timeStamp:11457encodedImage->_length:123712
[104:006] [2025-02-05 14:14:51 +0000.936659][77d8] last dts:11422 currentPts:11457
ppsOrSPS:0 queue length:6
[104:006] [2025-02-05 14:14:51 +0000.937202][77db] too much frame will be writed
[104:031] [2025-02-05 14:14:51 +0000.961580][77db] too much frame will be writed
[104:034] [2025-02-05 14:14:51 +0000.965025][77da] too much frame will be writed
[104:055] [2025-02-05 14:14:51 +0000.986054][77d8] H264Encode::H264 encoder push
frame to next component(100 times for one log) with dts:11595 pts:11595
[104:057] [2025-02-05 14:14:51 +0000.987413][77db] too much frame will be writed
[104:059] [2025-02-05 14:14:51 +0000.989900][77d8] RecordingSessionInternalSimple:
pushExtraYUVFrame. width:1280 height:720input pixel type:0 dataType:0 stride:1280
streamId:1 timestamp:11734
[104:059] [2025-02-05 14:14:51 +0000.990041][77d8] push video frame to H264
encoder. (100 frame for one log)
[104:059] [2025-02-05 14:14:51 +0000.990071][77d8] push video frame to H264
encoder. (100 frame for one log) used width:1280 height:720
[104:059] [2025-02-05 14:14:51 +0000.990096][77d8] H264Encode::push video frame to
H264 encoder, using hw H264:1 width:1280 height:720 pts:11734(100 frame for one
log)
[104:059] [2025-02-05 14:14:51 +0000.990132][77d8] The input pts:11734 fps:30
[104:082] [2025-02-05 14:14:52 +0000.13104][77db] too much frame will be writed
[104:088] [2025-02-05 14:14:52 +0000.19069][77da] too much frame will be writed
[104:115] [2025-02-05 14:14:52 +0000.45567][77db] too much frame will be writed
[104:123] [2025-02-05 14:14:52 +0000.54171][77d8] H264Encode::H264SWEncoder get
callback, length:134176 type:1 nalType:1length:134172
[104:128] [2025-02-05 14:14:52 +0000.58504][77db] Error(video_source.cc:301):
VideoSource not start to decode audio
[104:150] [2025-02-05 14:14:52 +0000.81070][764f] haveEnoughProcessedData
[Link]: 10
[104:159] [2025-02-05 14:14:52 +0000.90297][77db] too much frame will be writed
[104:167] [2025-02-05 14:14:52 +0000.97449][77da] too much frame will be writed
[104:185] [2025-02-05 14:14:52 +0000.115730][77c6] av_read_frame AVERROR_EOF
[104:191] [2025-02-05 14:14:52 +0000.121530][77db] too much frame will be writed
[104:202] [2025-02-05 14:14:52 +0000.133306][77d8] DTS queue for
Generator:0x77c814aeb8 11929 11960 11992 12026 12065 12092 12126 12165 12199
[104:222] [2025-02-05 14:14:52 +0000.152933][77db] too much frame will be writed
[104:227] [2025-02-05 14:14:52 +0000.157870][77da] too much frame will be writed
[104:232] [2025-02-05 14:14:52 +0000.162662][77d8] h264 add frame header cdr flag
[104:232] [2025-02-05 14:14:52 +0000.163156][77d8] Received key frame:11992
[104:247] [2025-02-05 14:14:52 +0000.178260][77db] too much frame will be writed
[104:249] [2025-02-05 14:14:52 +0000.179619][77dc] get the H.264 IDR frame
[104:288] [2025-02-05 14:14:52 +0000.218475][77db] too much frame will be writed
[104:288] [2025-02-05 14:14:52 +0000.218875][77c6] OnReceiveEOF:
[104:288] [2025-02-05 14:14:52 +0000.218941][77c6] OnDecoderEOF time:229998393
enter.
[104:288] [2025-02-05 14:14:52 +0000.218999][77c6] OnDecoderEOF leave. expire time
= 0 ms
[104:288] [2025-02-05 14:14:52 +0000.219020][77c4] CleanUp time:229998393 enter.
[104:288] [2025-02-05 14:14:52 +0000.219025][77c6] OnDecoderFinished:
OnDecoderFinished total decoder frames:456 this:0x773a122180
[104:293] [2025-02-05 14:14:52 +0000.223437][77c4] CleanUp leave. expire time = 5
ms
[104:293] [2025-02-05 14:14:52 +0000.223646][77c4] clean up
[104:293] [2025-02-05 14:14:52 +0000.223713][77c4] running_decoder_count:0max
count:2
[104:297] [2025-02-05 14:14:52 +0000.227490][77da] too much frame will be writed
[104:315] [2025-02-05 14:14:52 +0000.245414][77db] too much frame will be writed
[104:323] [2025-02-05 14:14:52 +0000.253525][77db] Error(video_source.cc:301):
VideoSource not start to decode audio
[104:343] [2025-02-05 14:14:52 +0000.273676][77db] too much frame will be writed
[104:358] [2025-02-05 14:14:52 +0000.288456][77da] too much frame will be writed
[104:374] [2025-02-05 14:14:52 +0000.305361][77db] too much frame will be writed
[104:385] [2025-02-05 14:14:52 +0000.316168][77d8] Push an pts:12789 to dts queue.
[104:404] [2025-02-05 14:14:52 +0000.335046][77db] too much frame will be writed
[104:421] [2025-02-05 14:14:52 +0000.351860][77da] too much frame will be writed
[104:426] [2025-02-05 14:14:52 +0000.356657][77da] Error(video_source.cc:430): wait
decoder a frame: 0
[104:441] [2025-02-05 14:14:52 +0000.371804][77d6] av_read_frame AVERROR_EOF
[104:441] [2025-02-05 14:14:52 +0000.372136][77d6] OnReceiveEOF:
[104:441] [2025-02-05 14:14:52 +0000.372186][77d6] OnDecoderFinished:
[104:444] [2025-02-05 14:14:52 +0000.374348][77db] too much frame will be writed
[104:456] [2025-02-05 14:14:52 +0000.387133][77d8] DTS queue for
Generator:0x77c814aeb8 12732 12756 12789 12819 12852 12892 12929 12963 13000 13026
[104:478] [2025-02-05 14:14:52 +0000.408366][77da] too much frame will be writed
[104:480] [2025-02-05 14:14:52 +0000.410487][77db] too much frame will be writed
[104:487] [2025-02-05 14:14:52 +0000.418068][77d8] last dts:12756 currentPts:12789
ppsOrSPS:0 queue length:10
[104:514] [2025-02-05 14:14:52 +0000.444481][77db] too much frame will be writed
[104:533] [2025-02-05 14:14:52 +0000.463662][77db] Error(video_source.cc:301):
VideoSource not start to decode audio
[104:535] [2025-02-05 14:14:52 +0000.466224][77da] FilterPipeline2::OnVideoFrame
pts 1327950 last_video_timestamp_ 14755
[104:538] [2025-02-05 14:14:52 +0000.468557][77da] too much frame will be writed
[104:545] [2025-02-05 14:14:52 +0000.475316][77db] too much frame will be writed
[104:574] [2025-02-05 14:14:52 +0000.504447][77db] CleanUp time:229998679 enter.
[104:574] [2025-02-05 14:14:52 +0000.505266][77db] CleanUp leave. expire time = 0
ms
[104:577] [2025-02-05 14:14:52 +0000.507776][77db] too much frame will be writed
[104:600] [2025-02-05 14:14:52 +0000.530641][77da] too much frame will be writed
[104:602] [2025-02-05 14:14:52 +0000.532934][77db] too much frame will be writed
[104:628] [2025-02-05 14:14:52 +0000.558389][77db] too much frame will be writed
[104:639] [2025-02-05 14:14:52 +0000.569567][77db] video fill audio eof
[104:639] [2025-02-05 14:14:52 +0000.569832][77db] PullAudioFrame: PullFrame audio
finished.
[104:639] [2025-02-05 14:14:52 +0000.569872][77db]
Warning(media_filter_composefile.cc:268): pull audio frame failed:8
[104:639] [2025-02-05 14:14:52 +0000.569914][77db] OnAudioTimer: OnAudioTimer
return
[104:663] [2025-02-05 14:14:52 +0000.593912][77da] too much frame will be writed
[104:672] [2025-02-05 14:14:52 +0000.602369][77da]
Warning(media_filter_composefile.cc:321): pull video frame failed:8
[104:672] [2025-02-05 14:14:52 +0000.602499][77da] OnVideoTimer: OnVideoTimer
EndComposeFile
[104:672] [2025-02-05 14:14:52 +0000.602525][77da] EndComposeFile: EndComposeFile,
is composing 1
[104:689] [2025-02-05 14:14:52 +0000.619805][764f] Run AGC when audioType = 0
[104:718] [2025-02-05 14:14:52 +0000.648673][77d8] DTS queue for
Generator:0x77c814aeb8 13557 13588 13620 13655 13687 13721 13754 13787 13817 13854
[104:802] [2025-02-05 14:14:52 +0000.732854][77d8] Push an pts:14119 to dts queue.
[104:874] [2025-02-05 14:14:52 +0000.804440][77d8] h264 add frame header cdr flag
[104:874] [2025-02-05 14:14:52 +0000.805306][77d8] Received key frame:13990
[104:878] [2025-02-05 14:14:52 +0000.808825][77dc] get the H.264 IDR frame
[104:905] [2025-02-05 14:14:52 +0000.835367][77d8] last dts:14087 currentPts:14119
ppsOrSPS:0 queue length:10
[104:979] [2025-02-05 14:14:52 +0000.909437][77d8] DTS queue for
Generator:0x77c814aeb8 14387 14417 14455 14487 14522 14552 14589 14620 14654
[105:106] [2025-02-05 14:14:53 +0000.36798][77d8] RecordingSessionInternalSimple:
pushExtraYUVFrame. width:1280 height:720input pixel type:0 dataType:0 stride:1280
streamId:1 timestamp:15085
[105:106] [2025-02-05 14:14:53 +0000.37109][77d8] push video frame to H264 encoder.
(100 frame for one log)
[105:106] [2025-02-05 14:14:53 +0000.37178][77d8] push video frame to H264 encoder.
(100 frame for one log) used width:1280 height:720
[105:106] [2025-02-05 14:14:53 +0000.37219][77d8] H264Encode::push video frame to
H264 encoder, using hw H264:1 width:1280 height:720 pts:15085(100 frame for one
log)
[105:106] [2025-02-05 14:14:53 +0000.37270][77d8] The input pts:15085 fps:30
[105:114] [2025-02-05 14:14:53 +0000.45136][77d8] SendFrame
encodedImage._timeStamp:14789encodedImage->_length:128496
[105:135] [2025-02-05 14:14:53 +0000.66222][77d8]
MediaComposeFile::WriteVideoFrametoMP4_w quitwrite mp4 sum frames:456
[105:136] [2025-02-05 14:14:53 +0000.66435][77d8]
MediaComposeFile::WriteVideoFrametoMP4_w quit this:0x773a31f800
[105:138] [2025-02-05 14:14:53 +0000.69137][77d9]
MediaComposeFile::WriteAudioFrametoMP4_w quit
[105:138] [2025-02-05 14:14:53 +0000.69255][77d9]
MediaComposeFile::WriteAudioFrametoMP4_w real quit
[105:139] [2025-02-05 14:14:53 +0000.69650][77d7] stop recording
[105:139] [2025-02-05 14:14:53 +0000.69726][77d7]
RecordingSessionInternalSimple:destroy media processers
[105:139] [2025-02-05 14:14:53 +0000.69762][77d7] H264Encode::H264Encoder flush
frames, m_useHWEncoder:1
[105:139] [2025-02-05 14:14:53 +0000.69792][77d7] H264Encode::flushing hareware
Encoder
[105:139] [2025-02-05 14:14:53 +0000.69994][77d7] Flush time:229999244 enter.
[105:139] [2025-02-05 14:14:53 +0000.70048][77d7] H264Encoder encoder flush
[105:139] [2025-02-05 14:14:53 +0000.70092][77d7] flush output queue
[105:162] [2025-02-05 14:14:53 +0000.92378][77d7] H264Encode::H264 encoder push
frame to next component(100 times for one log) with dts:14953 pts:14953
[105:237] [2025-02-05 14:14:53 +0000.167766][77d7] H264Encode::H264SWEncoder get
callback, length:128256 type:1 nalType:1length:128252
[105:460] [2025-02-05 14:14:53 +0000.391203][77d7] Flush leave. expire time = 321
ms
[105:461] [2025-02-05 14:14:53 +0000.391437][77d7] ~H264EncodeWrap:
[105:461] [2025-02-05 14:14:53 +0000.391528][77d7] ~H264Encode:
[105:461] [2025-02-05 14:14:53 +0000.391597][77d7] teardownCompressionSession:
H264Encode::destroying Encoder
[105:461] [2025-02-05 14:14:53 +0000.391635][77d7] Release time:229999566 enter.
[105:461] [2025-02-05 14:14:53 +0000.391858][77d7] Release:
MediaCodecVideoEncoder::Release _inited:1
[105:461] [2025-02-05 14:14:53 +0000.391912][77d7] Destroy time:229999566 enter.
[105:461] [2025-02-05 14:14:53 +0000.391953][77d7] H264Encoder encoderDestroy
[105:461] [2025-02-05 14:14:53 +0000.391994][77d7]
AndroidMediaCodecVideoEncoder::release env: 0x771eecd840
[105:461] [2025-02-05 14:14:53 +0000.392036][77d7]
AndroidMediaCodecVideoEncoder::Destroy
[105:480] [2025-02-05 14:14:53 +0000.410620][77d7] Destroy leave. expire time = 19
ms
[105:480] [2025-02-05 14:14:53 +0000.410870][77d7] Release leave. expire time = 19
ms
[105:480] [2025-02-05 14:14:53 +0000.410920][77d7] ~AndroidHwAvcEncoder
time:229999585 enter.
[105:480] [2025-02-05 14:14:53 +0000.411146][77d7] Release time:229999585 enter.
[105:480] [2025-02-05 14:14:53 +0000.411216][77d7] Release:
MediaCodecVideoEncoder:: has been released before, just return
[105:480] [2025-02-05 14:14:53 +0000.411258][77d7] Release leave. expire time = 0
ms
[105:480] [2025-02-05 14:14:53 +0000.411310][77d7] ~AndroidMediaCodecVideoEncoder
[105:481] [2025-02-05 14:14:53 +0000.411377][77d7] ~WrapAndroidMediaCodec
time:229999586 enter.
[105:481] [2025-02-05 14:14:53 +0000.411435][77d7] ~WrapAndroidMediaCodec leave.
expire time = 0 ms
[105:481] [2025-02-05 14:14:53 +0000.411476][77d7] video hevc hw codec
destructor:0x771f00c818
[105:481] [2025-02-05 14:14:53 +0000.411552][77d7] ~AndroidHwAvcEncoder leave.
expire time = 1 ms
[105:481] [2025-02-05 14:14:53 +0000.411634][77d7] teardownCompressionSession:
H264Encode::destroyed Encoder
[105:481] [2025-02-05 14:14:53 +0000.411753][77d7]
RecordingSessionInternalSimple:destroy aac encoder output!
[105:481] [2025-02-05 14:14:53 +0000.411792][77d7] AACSWEncode destructor
[105:493] [2025-02-05 14:14:53 +0000.424306][77dc] fd_close successed!
[105:494] [2025-02-05 14:14:53 +0000.424646][77dc] MP4 close file successfully
[105:494] [2025-02-05 14:14:53 +0000.424692][77dc] Recording session Internal:
notify recording ok
[105:494] [2025-02-05 14:14:53 +0000.424731][77dc] onRecordingOk: Recording Ok,
compose use time: 7220, averagefps 0
[105:494] [2025-02-05 14:14:53 +0000.424771][77dc] OnReceiveEOF:
[105:496] [2025-02-05 14:14:53 +0000.426953][77da] OnVideoTimer: OnVideoTimer
return
[105:510] [2025-02-05 14:14:53 +0000.440979][6be6]
Java_com_xiaomi_recordmediaprocess_MediaComposeFile_DestructMediaComposeFileJni:
[105:510] [2025-02-05 14:14:53 +0000.441153][6be6] ~MediaComposeFile time:229999615
enter.
[105:510] [2025-02-05 14:14:53 +0000.441192][6be6] CancelCompose: CancelCompose,
is composing 0
[105:511] [2025-02-05 14:14:53 +0000.441391][77d7] stop recording
[105:511] [2025-02-05 14:14:53 +0000.441436][77d7] we have stopped recording before
[105:511] [2025-02-05 14:14:53 +0000.442131][6be6] ~MediaComposeFile leave. expire
time = 1 ms
[105:511] [2025-02-05 14:14:53 +0000.442244][6be6] ~RecordingSessionInternalSimple:
RecordingSessionInternalSimple::~RecordingSessionInternalSimple
[105:512] [2025-02-05 14:14:53 +0000.442583][6be6] global uninited!
[105:512] [2025-02-05 14:14:53 +0000.442639][6be6]
Java_com_xiaomi_recordmediaprocess_MediaEffectGraph_DestructMediaEffectGraphJni:
[105:512] [2025-02-05 14:14:53 +0000.442692][6be6] ~MediaFilterGraph:
MediaFilterGraph destruct
[105:512] [2025-02-05 14:14:53 +0000.442717][6be6] RemoveVideoBackGroud: hava not
add video backgroud
[105:512] [2025-02-05 14:14:53 +0000.442760][6be6] UnbindInputFilter 0x771e86f5d8
this 0x77c44fd8b8
[105:512] [2025-02-05 14:14:53 +0000.442799][6be6] UnbindInputFilter 0x77cc4fd410
this 0x77c44fd8b8
[105:512] [2025-02-05 14:14:53 +0000.442844][6be6] UnbindInputFilter 0x771e86f398
this 0x771e86f5d8
[105:512] [2025-02-05 14:14:53 +0000.442883][6be6] CleanUp time:229999617 enter.
[105:512] [2025-02-05 14:14:53 +0000.443298][6be6] CleanUp leave. expire time = 1
ms
[105:513] [2025-02-05 14:14:53 +0000.444181][6be6] UnbindInputFilter 0x771e86f2d8
this 0x772c7ea820
[105:513] [2025-02-05 14:14:53 +0000.444262][6be6] ClearAllSource: remove source
filter, sourceid: 0x773a122180
[105:513] [2025-02-05 14:14:53 +0000.444292][6be6] DestoryDecoderByVideoSource
time:229999618 enter.
[105:514] [2025-02-05 14:14:53 +0000.444330][6be6] ~VideoBindDecoder time:229999619
enter.
[105:514] [2025-02-05 14:14:53 +0000.444508][6be6] CleanUp time:229999619 enter.
[105:514] [2025-02-05 14:14:53 +0000.444789][6be6] CleanUp leave. expire time = 0
ms
[105:514] [2025-02-05 14:14:53 +0000.444827][6be6] CleanUp time:229999619 enter.
[105:514] [2025-02-05 14:14:53 +0000.445049][6be6] CleanUp leave. expire time = 0
ms
[105:515] [2025-02-05 14:14:53 +0000.445792][6be6] ~VideoBindDecoder leave. expire
time = 1 ms
[105:515] [2025-02-05 14:14:53 +0000.445829][6be6] DestoryDecoderByVideoSource
leave. expire time = 2 ms
[105:515] [2025-02-05 14:14:53 +0000.445868][6be6] UnbindInputFilter 0x771e86f098
this 0x771e86f2d8
[105:515] [2025-02-05 14:14:53 +0000.445907][6be6] UnbindInputFilter 0x771e659fd8
this 0x771e86f098
[105:515] [2025-02-05 14:14:53 +0000.445944][6be6] UnbindInputFilter 0x773a1223a0
this 0x771e659fd8
[105:515] [2025-02-05 14:14:53 +0000.445979][6be6] UnbindInputFilter 0x771e86f218
this 0x771e86f398
[105:515] [2025-02-05 14:14:53 +0000.446012][6be6] UnbindInputFilter 0x771e86f158
this 0x771e86f218
[105:515] [2025-02-05 14:14:53 +0000.446045][6be6] UnbindInputFilter 0x773a1223a0
this 0x771e86f158
[105:515] [2025-02-05 14:14:53 +0000.446075][6be6] ~GLESContext:
[105:516] [2025-02-05 14:14:53 +0000.446848][6be6] GLESContext destruct finish.
[105:516] [2025-02-05 14:14:53 +0000.446881][6be6] filter: filter pipeline destroy
this: 0x772c7ea780
[105:861] [2025-02-05 14:14:53 +0000.791907][764f] haveEnoughProcessedData
[Link]: 10
[106:690] [2025-02-05 14:14:54 +0000.620562][764f] Run AGC when audioType = 0
[106:690] [2025-02-05 14:14:54 +0000.620712][764f]
AudioDeviceDataHandler::MixAndSendOutFrame
[107:137] [2025-02-05 14:14:55 +0000.67844][6c2c]
Java_com_xiaomi_recordmediaprocess_MediaEffectCamera_DestructMediaEffectCameraJni:
[107:137] [2025-02-05 14:14:55 +0000.67957][6c2c] ~MediaFilterCamera time:230001242
enter.
[107:137] [2025-02-05 14:14:55 +0000.67990][6c2c] StopPullFrameAndWriteMp4
time:230001242 enter.
[107:137] [2025-02-05 14:14:55 +0000.68019][6c2c] Stop:
[107:139] [2025-02-05 14:14:55 +0000.69794][7648] stop recording
[107:139] [2025-02-05 14:14:55 +0000.69935][7648] we have stopped recording before
[107:139] [2025-02-05 14:14:55 +0000.70215][6c2c] StopPullFrameAndWriteMp4 leave.
expire time = 2 ms
[107:139] [2025-02-05 14:14:55 +0000.70309][6c2c] Stop:
[107:140] [2025-02-05 14:14:55 +0000.70377][6c2c] DeviceRelease:
audioDevice_:0x77cc4a2000
[107:140] [2025-02-05 14:14:55 +0000.70433][6c2c] OpenSlesOutput:Stop playout
[107:140] [2025-02-05 14:14:55 +0000.70511][6c2c] DeviceRelease: Release the webrtc
device object.
[107:140] [2025-02-05 14:14:55 +0000.70588][6c2c] OpenSlesOutput destruct.
[107:140] [2025-02-05 14:14:55 +0000.70719][6c2c] DeviceRelease: Done
[107:142] [2025-02-05 14:14:55 +0000.74380][6c2c] DestroyPipelineAndFilters
time:230001247 enter.
[107:144] [2025-02-05 14:14:55 +0000.74535][6c2c] DestroyPipelineAndFilters leave.
expire time = 2 ms
[107:144] [2025-02-05 14:14:55 +0000.74573][6c2c] AppDeviceManagerStopMic
[107:144] [2025-02-05 14:14:55 +0000.74699][6c2c] AppDeviceManagerStopMic::mic
status is on
[107:144] [2025-02-05 14:14:55 +0000.74740][6c2c] Try to stop webrtc device.
[107:144] [2025-02-05 14:14:55 +0000.74777][6c2c] Set record state to
[Link]
[107:201] [2025-02-05 14:14:55 +0000.131496][6c2c] Try to destory the
[Link]
[107:401] [2025-02-05 14:14:55 +0000.331689][6c2c] DestroyAudioRecorder:
[107:401] [2025-02-05 14:14:55 +0000.331998][6c2c] Cleanup the buffer queue in the
recorder.
[107:401] [2025-02-05 14:14:55 +0000.332132][6c2c] Destroy the recorder.
[107:403] [2025-02-05 14:14:55 +0000.333957][6c2c] StopRecording finished.
[107:403] [2025-02-05 14:14:55 +0000.334107][6c2c] The stop recording success.
[107:403] [2025-02-05 14:14:55 +0000.334134][6c2c]
AudioDeviceDataHandler::StopMicProcess
[107:406] [2025-02-05 14:14:55 +0000.336690][6c2c] AppDeviceManager stop.
[107:406] [2025-02-05 14:14:55 +0000.336832][6c2c] Rlease the webrtc device object.
[107:408] [2025-02-05 14:14:55 +0000.338612][6c2c] OpenSlesInput destruct.
[107:408] [2025-02-05 14:14:55 +0000.338761][6c2c] OpenSlesOutput destruct.
[107:409] [2025-02-05 14:14:55 +0000.339654][6c2c] EventDispatchServerScope
destruct
[107:409] [2025-02-05 14:14:55 +0000.340173][6c2c]
Warning([Link]): PhysicalSocketServer destruct
[107:410] [2025-02-05 14:14:55 +0000.340328][6c2c] ~AudioDeviceDataHandler
[107:417] [2025-02-05 14:14:55 +0000.347766][6c2c] AppDeviceManagerDestruct.
[107:417] [2025-02-05 14:14:55 +0000.347959][6c2c] ~AppDeviceManager:
[107:417] [2025-02-05 14:14:55 +0000.348044][6c2c] ~CpuOverloadDetect
time:230001522 enter.
[107:420] [2025-02-05 14:14:55 +0000.350355][6c2c] ~CpuOverloadDetect leave.
expire time = 3 ms
[107:427] [2025-02-05 14:14:55 +0000.358321][6c2c] Destruct BeautifyReader begin...
[107:428] [2025-02-05 14:14:55 +0000.358464][6c2c] Destruct BeautifyReader done.
[107:428] [2025-02-05 14:14:55 +0000.358504][6c2c] ~MediaFilterCamera leave.
expire time = 291 ms
[107:428] [2025-02-05 14:14:55 +0000.358725][6c2c] ~GLESContext:
[107:432] [2025-02-05 14:14:55 +0000.362395][6c2c] GLESContext destruct finish.
[107:432] [2025-02-05 14:14:55 +0000.362636][6c2c] ~RecordingSessionInternalSimple:
RecordingSessionInternalSimple::~RecordingSessionInternalSimple
[107:433] [2025-02-05 14:14:55 +0000.363971][6c2c] global uninited!
[107:434] [2025-02-05 14:14:55 +0000.364833][6c2c] clear AppID 50011
[107:434] [2025-02-05 14:14:55 +0000.365087][6c2c] UnRegister JVM for Xplatform
util
[107:434] [2025-02-05 14:14:55 +0000.365133][6c2c] Dispose::unregister webrtc video
engine
[107:434] [2025-02-05 14:14:55 +0000.365163][6c2c] Init the android object with
jvm:0x0 env:0x0 context:0x0
[107:434] [2025-02-05 14:14:55 +0000.365202][6c2c] SetAndroidMediaCodecObjects
time:230001539 enter.
[107:435] [2025-02-05 14:14:55 +0000.365595][6c2c] ClearAndroidMediaCodecObjects
time:230001540 enter.
[107:435] [2025-02-05 14:14:55 +0000.365665][6c2c] ClearAndroidMediaCodecObjects
leave. expire time = 0 ms
[107:435] [2025-02-05 14:14:55 +0000.365702][6c2c] SetAndroidMediaCodecObjects
leave. expire time = 1 ms
[107:435] [2025-02-05 14:14:55 +0000.365776][6c2c] SetAndroidMediaCodecObjects
time:230001540 enter.
[107:435] [2025-02-05 14:14:55 +0000.365884][6c2c] SetAndroidMediaCodecObjects:
SetAndroidMediaCodecObjects:: jvm :0x0
[107:435] [2025-02-05 14:14:55 +0000.366288][6c2c] ClearAndroidMediaCodecObjects
time:230001540 enter.
[107:436] [2025-02-05 14:14:55 +0000.366419][6c2c] ClearAndroidMediaCodecObjects
leave. expire time = 1 ms
[107:436] [2025-02-05 14:14:55 +0000.366542][6c2c] SetAndroidMediaCodecObjects:
SetAndroidMediaCodecObjects failed
[107:436] [2025-02-05 14:14:55 +0000.366588][6c2c] SetAndroidMediaCodecObjects
leave. expire time = 1 ms
[107:436] [2025-02-05 14:14:55 +0000.366639][6c2c] Dispose::unregister webrtc voice
engine
[107:436] [2025-02-05 14:14:55 +0000.366677][6c2c] Set the android objects with
jvm:0x0 env:0x0 context:0x0
[107:436] [2025-02-05 14:14:55 +0000.366729][6c2c] SystemUtil UnInit done
[138:625] [2025-02-05 14:15:26 +0000.555821][6c2c] Register JVM for xplatform util
[138:629] [2025-02-05 14:15:26 +0000.559732][6c2c] Log to
file:/storage/emulated/0/voip-data/[Link]/[Link] start time:2025-02-
05 14:15:26 +0000
[138:629] [2025-02-05 14:15:26 +0000.559787][6c2c] set AppID=50011 old AppID=-1
[138:629] [2025-02-05 14:15:26 +0000.559812][6c2c] Init the android object with
jvm:0xb4000077dbc21380 env:0x77cc41b080 context:0x77620d3288
[138:629] [2025-02-05 14:15:26 +0000.559850][6c2c] SetAndroidMediaCodecObjects
time:230032734 enter.
[138:629] [2025-02-05 14:15:26 +0000.559908][6c2c] SetAndroidMediaCodecObjects
leave. expire time = 0 ms
[138:629] [2025-02-05 14:15:26 +0000.559945][6c2c] SetAndroidMediaCodecObjects
time:230032734 enter.
[138:629] [2025-02-05 14:15:26 +0000.559988][6c2c] SetAndroidMediaCodecObjects:
SetAndroidMediaCodecObjects:: jvm :0xb4000077dbc21380
[138:629] [2025-02-05 14:15:26 +0000.560012][6c2c] SetAndroidMediaCodecObjects:
SetAndroidMediaCodecObjects success g_jvm_:0xb4000077dbc21380 address:0x771b1b4760
[138:629] [2025-02-05 14:15:26 +0000.560045][6c2c] SetAndroidMediaCodecObjects:
SetAndroidMediaCodecObjects success g_jvm_encoder_:0xb4000077dbc21380
address:0x771b1b4760
[138:629] [2025-02-05 14:15:26 +0000.560069][6c2c] SetAndroidMediaCodecObjects
leave. expire time = 0 ms
[138:629] [2025-02-05 14:15:26 +0000.560092][6c2c] Set the android objects with
jvm:0xb4000077dbc21380 env:0x77cc41b080 context:0x77620d3288
[138:629] [2025-02-05 14:15:26 +0000.560117][6c2c] audio jni debug :manager
SetAndroidAudioDeviceObjects env:0x77cc41b080
[138:629] [2025-02-05 14:15:26 +0000.560163][6c2c] SystemUtil Init done
[138:630] [2025-02-05 14:15:26 +0000.560429][6c2c]
Java_com_xiaomi_recordmediaprocess_MediaEffectCamera_ConstructMediaEffectCameraJni:
[138:630] [2025-02-05 14:15:26 +0000.560548][6c2c] MediaFilterCamera
[138:630] [2025-02-05 14:15:26 +0000.560606][6c2c] RecordingSessionInternalSimple:
Create session internal:720 X 1280 fps:30
[138:630] [2025-02-05 14:15:26 +0000.560739][6c2c] createSessionInternal: create
session with video size:720 X 1280 fps:30 bitrate:31457280
[138:630] [2025-02-05 14:15:26 +0000.560780][6c2c] Recording session using default
bitrate support by app:31457280
[138:630] [2025-02-05 14:15:26 +0000.560874][7ae2] Error([Link]): Set the
pthread name failed with error:34 name:Thread 0x0x773f0ccdc0
[138:630] [2025-02-05 14:15:26 +0000.560933][7ae2] setAudioChannelCount_w:
RecordingSessionInternalSimple:set the audio channel count:2
[138:630] [2025-02-05 14:15:26 +0000.561105][6c2c] setAudioSampleRate:
RecordingSessionInternalSimple:set the audio bitrate:44100
[138:631] [2025-02-05 14:15:26 +0000.562030][6c2c] Error([Link]): Open the file
failed. error:2
[138:631] [2025-02-05 14:15:26 +0000.562137][6c2c]
Error(key_value_pair_store.cc:130): load the data failed from: voip_config.ini
[138:631] [2025-02-05 14:15:26 +0000.562165][6c2c] The device model: 2201117ti
usingSoftwareAEC value: 0
[138:636] [2025-02-05 14:15:26 +0000.566981][6c2c] Error([Link]): Open the file
failed. error:2
[138:636] [2025-02-05 14:15:26 +0000.567129][6c2c]
Error(key_value_pair_store.cc:130): load the data failed from:
/storage/emulated/0/voip-data/[Link]/voip_config.ini
[138:636] [2025-02-05 14:15:26 +0000.567166][6c2c] The device model: 2201117ti
usingHardwareAEC value: 0
[138:636] [2025-02-05 14:15:26 +0000.567191][6c2c] The machine device: 2201117ti
usingHardwareAEC value: 0
[138:636] [2025-02-05 14:15:26 +0000.567217][6c2c] Using Default AEC type: software
AEC
[138:638] [2025-02-05 14:15:26 +0000.568421][6c2c] The device model: 2201117ti enum
value: 0
[138:638] [2025-02-05 14:15:26 +0000.569154][6c2c] GetMachineModel is 2201117TI
[138:638] [2025-02-05 14:15:26 +0000.569231][6c2c] GetMachineInfo: 2201117TI
[138:638] [2025-02-05 14:15:26 +0000.569254][6c2c] Construct BeautifyReader
begin...
[138:638] [2025-02-05 14:15:26 +0000.569282][6c2c] dumpStickerRgba:0
dumpStickerYuv:0
[138:638] [2025-02-05 14:15:26 +0000.569302][6c2c] Construct BeautifyReader done.
[138:642] [2025-02-05 14:15:26 +0000.572751][6c2c] AppDeviceManagerStartCamera::The
result of start thread is: 1 micOn:0
[138:642] [2025-02-05 14:15:26 +0000.572778][7ae6] Error([Link]): Set the
pthread name failed with error:34 name:Thread 0x0x773f2b55a0
[138:642] [2025-02-05 14:15:26 +0000.572865][6c2c] AppDeviceManager telnet server
for statistics started......
[138:642] [2025-02-05 14:15:26 +0000.573220][6c2c] CpuOverloadDetect time:230032747
enter.
[138:642] [2025-02-05 14:15:26 +0000.573308][6c2c] CpuOverloadDetect leave. expire
time = 1 ms
[138:643] [2025-02-05 14:15:26 +0000.573353][7ae7] Error([Link]): Set the
pthread name failed with error:34 name:Thread 0x0x773a434dc0
[138:643] [2025-02-05 14:15:26 +0000.573899][6c2c] AppDeviceMana
GetOpenslVoiceMode before get setting: 1
[138:643] [2025-02-05 14:15:26 +0000.573935][6c2c] AppDeviceMana
GetOpenslVoiceMode after get setting: 1
[138:643] [2025-02-05 14:15:26 +0000.574146][6c2c] AudioManagerAndroid
getProperty:[Link].OUTPUT_SAMPLE_RATE
[138:644] [2025-02-05 14:15:26 +0000.574378][6c2c] AudioManagerAndroid
getProperty:[Link].OUTPUT_FRAMES_PER_BUFFER
[138:644] [2025-02-05 14:15:26 +0000.574577][6c2c] CreatePlatformSpecificObjects:
[138:644] [2025-02-05 14:15:26 +0000.574614][6c2c] audio device use opensle input
and opensl output
[138:644] [2025-02-05 14:15:26 +0000.574658][6c2c] Create OpenSLES output module
with java VM support.
[138:644] [2025-02-05 14:15:26 +0000.574763][6c2c] AudioManagerAndroid
getProperty:[Link].OUTPUT_SAMPLE_RATE
[138:644] [2025-02-05 14:15:26 +0000.574904][6c2c] AudioManagerAndroid
getProperty:[Link].OUTPUT_FRAMES_PER_BUFFER
[138:644] [2025-02-05 14:15:26 +0000.575038][6c2c] Create OpenSLES output module
with buffer num:1
[138:644] [2025-02-05 14:15:26 +0000.575139][6c2c] AudioManagerAndroid
getProperty:[Link].OUTPUT_SAMPLE_RATE
[138:644] [2025-02-05 14:15:26 +0000.575263][6c2c] AudioManagerAndroid
getProperty:[Link].OUTPUT_FRAMES_PER_BUFFER
[138:645] [2025-02-05 14:15:26 +0000.575402][6c2c] Create OpenSLES input module
with java VM support.
[138:645] [2025-02-05 14:15:26 +0000.575442][6c2c] Create OpenSLES input module
with buffer num:1
[138:645] [2025-02-05 14:15:26 +0000.575490][6c2c] Error([Link]): Init the
output and input for audio device template.
[138:645] [2025-02-05 14:15:26 +0000.575532][6c2c] Init the output device.
[138:645] [2025-02-05 14:15:26 +0000.575554][6c2c] Init the opensl input.
[138:645] [2025-02-05 14:15:26 +0000.575591][6c2c] AppDeviceManager get setting
samplerate: 0
[138:645] [2025-02-05 14:15:26 +0000.575902][6c2c] The device model: 2201117ti enum
value: 0
[138:646] [2025-02-05 14:15:26 +0000.576429][6c2c] The device model: 2201117ti enum
value: 0
[138:646] [2025-02-05 14:15:26 +0000.576464][6c2c] Set the sample rate to be:48000
[138:646] [2025-02-05 14:15:26 +0000.576502][6c2c] Enable the recording stereo:0
[138:646] [2025-02-05 14:15:26 +0000.576525][6c2c] Set the playout as stereo:1
[138:646] [2025-02-05 14:15:26 +0000.576560][6c2c] Init the microphone.
[138:646] [2025-02-05 14:15:26 +0000.576821][6c2c] Update the recording sample rate
to be: 48000
[138:646] [2025-02-05 14:15:26 +0000.576866][6c2c] Init the speaker.
[138:646] [2025-02-05 14:15:26 +0000.576894][6c2c] Low latency buffer size:144 low
sample rate:48000
[138:646] [2025-02-05 14:15:26 +0000.577184][6c2c] Using 1 x 10ms for an audio
frame.
[138:650] [2025-02-05 14:15:26 +0000.581046][6c2c] Error(splitting_filter.cc:26):
Splitting filter only support two or three bands now.
[138:650] [2025-02-05 14:15:26 +0000.581214][6c2c] Error(splitting_filter.cc:26):
Splitting filter only support two or three bands now.
[138:650] [2025-02-05 14:15:26 +0000.581263][6c2c] Error(splitting_filter.cc:26):
Splitting filter only support two or three bands now.
[138:655] [2025-02-05 14:15:26 +0000.586003][6c2c] The device model:2201117ti
[138:655] [2025-02-05 14:15:26 +0000.586110][6c2c] speaker output factor:100
defaultFactor: 100
[138:655] [2025-02-05 14:15:26 +0000.586135][6c2c] headset output factor:100
defaultFactor: 100
[138:656] [2025-02-05 14:15:26 +0000.586481][6c2c] AppDeviceManagerStart finished.
[138:656] [2025-02-05 14:15:26 +0000.586527][6c2c] AppDeviceManagerStartMic::mic
status is off
[138:656] [2025-02-05 14:15:26 +0000.586580][6c2c] AppDeviceManagerStartMic update
aec type: 2
[138:656] [2025-02-05 14:15:26 +0000.586602][6c2c] AppDeviceManagerStartMic update
voiceChangeMode: 4
[138:656] [2025-02-05 14:15:26 +0000.586651][6c2c]
AudioDeviceDataHandler::setVoiceChangeMode, mode : 4
[138:656] [2025-02-05 14:15:26 +0000.586671][6c2c]
AudioDeviceDataHandler::StartMicProcess
[138:656] [2025-02-05 14:15:26 +0000.586833][6c2c] Try to start webrtc recording
device.
[138:656] [2025-02-05 14:15:26 +0000.586871][6c2c] StartRecording. threadID:27692
[138:656] [2025-02-05 14:15:26 +0000.586869][7aea] Error([Link]): Set the
pthread name failed with error:34 name:AudioDeviceDataHandler gapProcessThread
[138:656] [2025-02-05 14:15:26 +0000.586931][6c2c] default mode: Set the recording
mode to voice communication to enable HW AEC .
[138:656] [2025-02-05 14:15:26 +0000.586959][6c2c] Set the recording mode before
getSetting: 4
[138:656] [2025-02-05 14:15:26 +0000.586987][6c2c] Set the recording mode after
getSetting: 1
[138:676] [2025-02-05 14:15:26 +0000.606460][6c2c] StartRecording finished.
[138:676] [2025-02-05 14:15:26 +0000.606547][6c2c] audio: start the audio mic
checker timer.
[138:676] [2025-02-05 14:15:26 +0000.607000][6c2c] machine model :redmi
[138:676] [2025-02-05 14:15:26 +0000.607050][6c2c] Support this machine
model :redmi
[138:676] [2025-02-05 14:15:26 +0000.607099][6c2c] global inited! current sdk
version: 07-20-936c45f
[138:943] [2025-02-05 14:15:26 +0000.873619][7aea] haveEnoughProcessedData
[Link]: 0
[139:233] [2025-02-05 14:15:27 +0000.163505][6f4a]
Java_com_xiaomi_recordmediaprocess_OpenGlRender_SetCurrentGLContextJni:
[139:233] [2025-02-05 14:15:27 +0000.163689][7ae3] MediaFilterCamera, recording
file context:0x77c8228a80 input texture:25
[139:233] [2025-02-05 14:15:27 +0000.163753][7ae3] GLESContext:
[139:233] [2025-02-05 14:15:27 +0000.163804][7ae3] The result of eglGetDisplay is:
0x1
[139:234] [2025-02-05 14:15:27 +0000.164859][7ae3] The result of creation:
0x773a08b900
[139:234] [2025-02-05 14:15:27 +0000.165019][7ae3] The result of
eglCreatePbufferSurface is: 0x773a08bc00
[139:235] [2025-02-05 14:15:27 +0000.165677][6f4a]
Java_com_xiaomi_recordmediaprocess_OpenGlRender_SetCurrentGLContextJni:
g_eglcontext: 0x77c8228a80 input_texture: 25
[140:061] [2025-02-05 14:15:27 +0000.991707][6c2c]
Java_com_xiaomi_recordmediaprocess_MediaEffectCamera_DestructMediaEffectCameraJni:
[140:061] [2025-02-05 14:15:27 +0000.991843][6c2c] ~MediaFilterCamera
time:230034166 enter.
[140:061] [2025-02-05 14:15:27 +0000.991871][6c2c] StopPullFrameAndWriteMp4
time:230034166 enter.
[140:061] [2025-02-05 14:15:27 +0000.992306][7ae2] stop recording
[140:062] [2025-02-05 14:15:27 +0000.992364][7ae2] we have stopped recording before
[140:062] [2025-02-05 14:15:27 +0000.992474][6c2c] StopPullFrameAndWriteMp4 leave.
expire time = 1 ms
[140:063] [2025-02-05 14:15:27 +0000.993654][6c2c] DestroyPipelineAndFilters
time:230034168 enter.
[140:063] [2025-02-05 14:15:27 +0000.993718][6c2c] DestroyPipelineAndFilters
leave. expire time = 0 ms
[140:063] [2025-02-05 14:15:27 +0000.993744][6c2c] AppDeviceManagerStopMic
[140:063] [2025-02-05 14:15:27 +0000.993838][6c2c] AppDeviceManagerStopMic::mic
status is on
[140:063] [2025-02-05 14:15:27 +0000.993864][6c2c] Try to stop webrtc device.
[140:063] [2025-02-05 14:15:27 +0000.993893][6c2c] Set record state to
[Link]
[140:179] [2025-02-05 14:15:28 +0000.109881][6c2c] Try to destory the
[Link]
[140:379] [2025-02-05 14:15:28 +0000.310037][6c2c] DestroyAudioRecorder:
[140:379] [2025-02-05 14:15:28 +0000.310103][6c2c] Cleanup the buffer queue in the
recorder.
[140:379] [2025-02-05 14:15:28 +0000.310135][6c2c] Destroy the recorder.
[140:381] [2025-02-05 14:15:28 +0000.311947][6c2c] StopRecording finished.
[140:381] [2025-02[000:033] [2025-03-05 11:37:06 +0000.875124][501f] Log to
file:/storage/emulated/0/voip-data/[Link]/[Link] start time:2025-03-
05 11:37:06 +0000
[000:033] [2025-03-05 11:37:06 +0000.875203][501f] set AppID=50011 old AppID=-1
[000:033] [2025-03-05 11:37:06 +0000.875238][501f] Init the android object with
jvm:0xb400007a8fc21380 env:0x7a8021b080 context:0x7a17ff4288
[000:033] [2025-03-05 11:37:06 +0000.875299][501f] SetAndroidMediaCodecObjects
time:524700286 enter.
[000:033] [2025-03-05 11:37:06 +0000.875342][501f] SetAndroidMediaCodecObjects
leave. expire time = 0 ms
[000:033] [2025-03-05 11:37:06 +0000.875382][501f] SetAndroidMediaCodecObjects
time:524700286 enter.
[000:033] [2025-03-05 11:37:06 +0000.875415][501f] SetAndroidMediaCodecObjects:
SetAndroidMediaCodecObjects:: jvm :0xb400007a8fc21380
[000:033] [2025-03-05 11:37:06 +0000.875478][501f] SetAndroidMediaCodecObjects:
SetAndroidMediaCodecObjects success g_jvm_:0xb400007a8fc21380 address:0x79cefd0760
[000:033] [2025-03-05 11:37:06 +0000.875514][501f] SetAndroidMediaCodecObjects:
SetAndroidMediaCodecObjects success g_jvm_encoder_:0xb400007a8fc21380
address:0x79cefd0760
[000:033] [2025-03-05 11:37:06 +0000.875553][501f] SetAndroidMediaCodecObjects
leave. expire time = 0 ms
[000:033] [2025-03-05 11:37:06 +0000.875589][501f] Set the android objects with
jvm:0xb400007a8fc21380 env:0x7a8021b080 context:0x7a17ff4288
[000:034] [2025-03-05 11:37:06 +0000.876601][501f] audio jni debug :manager
SetAndroidAudioDeviceObjects env:0x7a8021b080
[000:034] [2025-03-05 11:37:06 +0000.876652][501f] SystemUtil Init done
[000:036] [2025-03-05 11:37:06 +0000.878827][501f]
Java_com_xiaomi_recordmediaprocess_MediaEffectCamera_ConstructMediaEffectCameraJni:
[000:039] [2025-03-05 11:37:06 +0000.881313][501f] MediaFilterCamera
[000:039] [2025-03-05 11:37:06 +0000.881411][501f] RecordingSessionInternalSimple:
Create session internal:720 X 1280 fps:30
[000:039] [2025-03-05 11:37:06 +0000.881570][501f] createSessionInternal: create
session with video size:720 X 1280 fps:30 bitrate:31457280
[000:039] [2025-03-05 11:37:06 +0000.881620][501f] Recording session using default
bitrate support by app:31457280
[000:039] [2025-03-05 11:37:06 +0000.881607][68a1] Error([Link]): Set the
pthread name failed with error:34 name:Thread 0x0x7a2836aec0
[000:039] [2025-03-05 11:37:06 +0000.881824][68a1] setAudioChannelCount_w:
RecordingSessionInternalSimple:set the audio channel count:2
[000:039] [2025-03-05 11:37:06 +0000.881906][501f] setAudioSampleRate:
RecordingSessionInternalSimple:set the audio bitrate:44100
[000:040] [2025-03-05 11:37:06 +0000.882473][501f] Error([Link]): Open the file
failed. error:2
[000:040] [2025-03-05 11:37:06 +0000.882513][501f]
Error(key_value_pair_store.cc:130): load the data failed from: voip_config.ini
[000:040] [2025-03-05 11:37:06 +0000.882562][501f] The device model: 2201117ti
usingSoftwareAEC value: 0
[000:042] [2025-03-05 11:37:06 +0000.884811][501f] Error([Link]): Open the file
failed. error:2
[000:042] [2025-03-05 11:37:06 +0000.884883][501f]
Error(key_value_pair_store.cc:130): load the data failed from:
/storage/emulated/0/voip-data/[Link]/voip_config.ini
[000:042] [2025-03-05 11:37:06 +0000.884930][501f] The device model: 2201117ti
usingHardwareAEC value: 0
[000:042] [2025-03-05 11:37:06 +0000.884961][501f] The machine device: 2201117ti
usingHardwareAEC value: 0
[000:042] [2025-03-05 11:37:06 +0000.884997][501f] Using Default AEC type: software
AEC
[000:044] [2025-03-05 11:37:06 +0000.886125][501f] The device model: 2201117ti enum
value: 0
[000:044] [2025-03-05 11:37:06 +0000.886718][501f] GetMachineModel is 2201117TI
[000:044] [2025-03-05 11:37:06 +0000.886774][501f] GetMachineInfo: 2201117TI
[000:044] [2025-03-05 11:37:06 +0000.886812][501f] Construct BeautifyReader
begin...
[000:044] [2025-03-05 11:37:06 +0000.886857][501f] dumpStickerRgba:0
dumpStickerYuv:0
[000:044] [2025-03-05 11:37:06 +0000.886881][501f] Construct BeautifyReader done.
[000:048] [2025-03-05 11:37:06 +0000.890617][501f] AppDeviceManagerStartCamera::The
result of start thread is: 1 micOn:0
[000:048] [2025-03-05 11:37:06 +0000.890643][68a4] Error([Link]): Set the
pthread name failed with error:34 name:Thread 0x0x7a2869fea0
[000:048] [2025-03-05 11:37:06 +0000.890988][501f] AppDeviceManager telnet server
for statistics started......
[000:049] [2025-03-05 11:37:06 +0000.891394][501f] CpuOverloadDetect time:524700302
enter.
[000:049] [2025-03-05 11:37:06 +0000.891483][501f] CpuOverloadDetect leave. expire
time = 0 ms
[000:049] [2025-03-05 11:37:06 +0000.891507][68a5] Error([Link]): Set the
pthread name failed with error:34 name:Thread 0x0x79eed1c740
[000:050] [2025-03-05 11:37:06 +0000.892078][501f] AppDeviceMana
GetOpenslVoiceMode before get setting: 1
[000:050] [2025-03-05 11:37:06 +0000.892118][501f] AppDeviceMana
GetOpenslVoiceMode after get setting: 1
[000:050] [2025-03-05 11:37:06 +0000.892561][501f] AudioManagerAndroid
getProperty:[Link].OUTPUT_SAMPLE_RATE
[000:052] [2025-03-05 11:37:06 +0000.894701][501f] AudioManagerAndroid
getProperty:[Link].OUTPUT_FRAMES_PER_BUFFER
[000:053] [2025-03-05 11:37:06 +0000.895243][501f] CreatePlatformSpecificObjects:
[000:053] [2025-03-05 11:37:06 +0000.895296][501f] audio device use opensle input
and opensl output
[000:053] [2025-03-05 11:37:06 +0000.895331][501f] Create OpenSLES output module
with java VM support.
[000:053] [2025-03-05 11:37:06 +0000.895523][501f] AudioManagerAndroid
getProperty:[Link].OUTPUT_SAMPLE_RATE
[000:053] [2025-03-05 11:37:06 +0000.895674][501f] AudioManagerAndroid
getProperty:[Link].OUTPUT_FRAMES_PER_BUFFER
[000:053] [2025-03-05 11:37:06 +0000.895913][501f] Create OpenSLES output module
with buffer num:1
[000:054] [2025-03-05 11:37:06 +0000.896116][501f] AudioManagerAndroid
getProperty:[Link].OUTPUT_SAMPLE_RATE
[000:054] [2025-03-05 11:37:06 +0000.896257][501f] AudioManagerAndroid
getProperty:[Link].OUTPUT_FRAMES_PER_BUFFER
[000:054] [2025-03-05 11:37:06 +0000.896410][501f] Create OpenSLES input module
with java VM support.
[000:054] [2025-03-05 11:37:06 +0000.896452][501f] Create OpenSLES input module
with buffer num:1
[000:054] [2025-03-05 11:37:06 +0000.896531][501f] Error([Link]): Init the
output and input for audio device template.
[000:054] [2025-03-05 11:37:06 +0000.896567][501f] Init the output device.
[000:054] [2025-03-05 11:37:06 +0000.896604][501f] Init the opensl input.
[000:054] [2025-03-05 11:37:06 +0000.896633][501f] AppDeviceManager get setting
samplerate: 0
[000:055] [2025-03-05 11:37:06 +0000.897083][501f] The device model: 2201117ti enum
value: 0
[000:055] [2025-03-05 11:37:06 +0000.897610][501f] The device model: 2201117ti enum
value: 0
[000:055] [2025-03-05 11:37:06 +0000.897658][501f] Set the sample rate to be:48000
[000:055] [2025-03-05 11:37:06 +0000.897693][501f] Enable the recording stereo:0
[000:055] [2025-03-05 11:37:06 +0000.897728][501f] Set the playout as stereo:1
[000:055] [2025-03-05 11:37:06 +0000.897761][501f] Init the microphone.
[000:056] [2025-03-05 11:37:06 +0000.898221][501f] Update the recording sample rate
to be: 48000
[000:056] [2025-03-05 11:37:06 +0000.898261][501f] Init the speaker.
[000:056] [2025-03-05 11:37:06 +0000.898300][501f] Low latency buffer size:144 low
sample rate:48000
[000:056] [2025-03-05 11:37:06 +0000.898574][501f] Using 1 x 10ms for an audio
frame.
[000:059] [2025-03-05 11:37:06 +0000.901818][501f] Error(splitting_filter.cc:26):
Splitting filter only support two or three bands now.
[000:059] [2025-03-05 11:37:06 +0000.901962][501f] Error(splitting_filter.cc:26):
Splitting filter only support two or three bands now.
[000:059] [2025-03-05 11:37:06 +0000.902010][501f] Error(splitting_filter.cc:26):
Splitting filter only support two or three bands now.
[000:064] [2025-03-05 11:37:06 +0000.906519][501f] The device model:2201117ti
[000:064] [2025-03-05 11:37:06 +0000.906600][501f] speaker output factor:100
defaultFactor: 100
[000:064] [2025-03-05 11:37:06 +0000.906636][501f] headset output factor:100
defaultFactor: 100
[000:065] [2025-03-05 11:37:06 +0000.907040][501f] AppDeviceManagerStart finished.
[000:065] [2025-03-05 11:37:06 +0000.907080][501f] AppDeviceManagerStartMic::mic
status is off
[000:065] [2025-03-05 11:37:06 +0000.907135][501f] AppDeviceManagerStartMic update
aec type: 2
[000:065] [2025-03-05 11:37:06 +0000.907168][501f] AppDeviceManagerStartMic update
voiceChangeMode: 4
[000:065] [2025-03-05 11:37:06 +0000.907207][501f]
AudioDeviceDataHandler::setVoiceChangeMode, mode : 4
[000:065] [2025-03-05 11:37:06 +0000.907244][501f]
AudioDeviceDataHandler::StartMicProcess
[000:065] [2025-03-05 11:37:06 +0000.907380][501f] Try to start webrtc recording
device.
[000:065] [2025-03-05 11:37:06 +0000.907416][501f] StartRecording. threadID:20511
[000:065] [2025-03-05 11:37:06 +0000.907408][68a6] Error([Link]): Set the
pthread name failed with error:34 name:AudioDeviceDataHandler gapProcessThread
[000:065] [2025-03-05 11:37:06 +0000.907470][68a6] haveEnoughProcessedData
[Link]: 0
[000:065] [2025-03-05 11:37:06 +0000.907738][501f] The machine model:2201117TI
[000:065] [2025-03-05 11:37:06 +0000.907793][501f] default mode: Set the recording
mode to voice communication to enable HW AEC .
[000:065] [2025-03-05 11:37:06 +0000.907826][501f] Set the recording mode before
getSetting: 4
[000:065] [2025-03-05 11:37:06 +0000.907852][501f] Set the recording mode after
getSetting: 1
[000:109] [2025-03-05 11:37:06 +0000.951267][501f] StartRecording finished.
[000:109] [2025-03-05 11:37:06 +0000.951342][501f] audio: start the audio mic
checker timer.
[000:109] [2025-03-05 11:37:06 +0000.951841][501f] machine model :redmi
[000:109] [2025-03-05 11:37:06 +0000.951883][501f] Support this machine
model :redmi
[000:117] [2025-03-05 11:37:06 +0000.959079][501f] global inited! current sdk
version: 07-20-936c45f
[000:199] [2025-03-05 11:37:07 +0000.41564][68a7] webrtc device:Handle the data
from samplesPerSec recording sample rate:48000 nSamples:480 nBytesPerSample:#
nChannels:#
[000:199] [2025-03-05 11:37:07 +0000.41665][68a7] _deviceSampleRate:48000
[000:203] [2025-03-05 11:37:07 +0000.45484][68a6] Run AGC when audioType = 0
[000:203] [2025-03-05 11:37:07 +0000.45625][68a6]
AudioDeviceDataHandler::MixAndSendOutFrame
[000:745] [2025-03-05 11:37:07 +0000.587557][649c]
Java_com_xiaomi_recordmediaprocess_OpenGlRender_SetCurrentGLContextJni:
[000:745] [2025-03-05 11:37:07 +0000.587741][68a2] MediaFilterCamera, recording
file context:0x7a803d2000 input texture:15
[000:745] [2025-03-05 11:37:07 +0000.587832][68a2] GLESContext:
[000:745] [2025-03-05 11:37:07 +0000.587897][68a2] The result of eglGetDisplay is:
0x1
[000:746] [2025-03-05 11:37:07 +0000.589005][68a2] The result of creation:
0x79eedf7380
[000:747] [2025-03-05 11:37:07 +0000.589217][68a2] The result of
eglCreatePbufferSurface is: 0x79eedf7480
[000:747] [2025-03-05 11:37:07 +0000.589342][649c]
Java_com_xiaomi_recordmediaprocess_OpenGlRender_SetCurrentGLContextJni:
g_eglcontext: 0x7a803d2000 input_texture: 15
[001:811] [2025-03-05 11:37:08 +0000.653136][68a6] haveEnoughProcessedData
[Link]: 10
[001:926] [2025-03-05 11:37:08 +0000.768255][501f]
Java_com_xiaomi_recordmediaprocess_MediaEffectCamera_DestructMediaEffectCameraJni:
[001:926] [2025-03-05 11:37:08 +0000.768396][501f] ~MediaFilterCamera
time:524702179 enter.
[001:926] [2025-03-05 11:37:08 +0000.768424][501f] StopPullFrameAndWriteMp4
time:524702179 enter.
[001:926] [2025-03-05 11:37:08 +0000.768732][68a1] stop recording
[001:926] [2025-03-05 11:37:08 +0000.768775][68a1] we have stopped recording before
[001:926] [2025-03-05 11:37:08 +0000.768834][501f] StopPullFrameAndWriteMp4 leave.
expire time = 0 ms
[001:927] [2025-03-05 11:37:08 +0000.769375][501f] DestroyPipelineAndFilters
time:524702180 enter.
[001:927] [2025-03-05 11:37:08 +0000.769441][501f] DestroyPipelineAndFilters
leave. expire time = 0 ms
[001:927] [2025-03-05 11:37:08 +0000.769479][501f] AppDeviceManagerStopMic
[001:927] [2025-03-05 11:37:08 +0000.769517][501f] AppDeviceManagerStopMic::mic
status is on
[001:927] [2025-03-05 11:37:08 +0000.769551][501f] Try to stop webrtc device.
[001:927] [2025-03-05 11:37:08 +0000.769629][501f] Set record state to
[Link]
[001:974] [2025-03-05 11:37:08 +0000.816934][501f] Try to destory the
[Link]
[002:175] [2025-03-05 11:37:09 +0000.17217][501f] DestroyAudioRecorder:
[002:175] [2025-03-05 11:37:09 +0000.17440][501f] Cleanup the buffer queue in the
recorder.
[002:175] [2025-03-05 11:37:09 +0000.17481][501f] Destroy the recorder.
[002:179] [2025-03-05 11:37:09 +0000.21803][501f] StopRecording finished.
[002:179] [2025-03-05 11:37:09 +0000.21963][501f] The stop recording success.
[002:180] [2025-03-05 11:37:09 +0000.22013][501f]
AudioDeviceDataHandler::StopMicProcess
[002:181] [2025-03-05 11:37:09 +0000.23381][501f] AppDeviceManager stop.
[002:181] [2025-03-05 11:37:09 +0000.23582][501f] Rlease the webrtc device object.
[002:184] [2025-03-05 11:37:09 +0000.26199][501f] OpenSlesInput destruct.
[002:184] [2025-03-05 11:37:09 +0000.26359][501f] OpenSlesOutput destruct.
[002:185] [2025-03-05 11:37:09 +0000.27182][501f] EventDispatchServerScope destruct
[002:185] [2025-03-05 11:37:09 +0000.27286][501f]
Warning([Link]): PhysicalSocketServer destruct
[002:185] [2025-03-05 11:37:09 +0000.27388][501f] ~AudioDeviceDataHandler
[002:186] [2025-03-05 11:37:09 +0000.28067][501f] AppDeviceManagerDestruct.
[002:186] [2025-03-05 11:37:09 +0000.28194][501f] ~AppDeviceManager:
[002:186] [2025-03-05 11:37:09 +0000.28276][501f] ~CpuOverloadDetect time:524702439
enter.
[002:186] [2025-03-05 11:37:09 +0000.28776][501f] ~CpuOverloadDetect leave. expire
time = 0 ms
[002:189] [2025-03-05 11:37:09 +0000.31501][501f] Destruct BeautifyReader begin...
[002:189] [2025-03-05 11:37:09 +0000.31653][501f] Destruct BeautifyReader done.
[002:189] [2025-03-05 11:37:09 +0000.31711][501f] ~MediaFilterCamera leave. expire
time = 263 ms
[002:189] [2025-03-05 11:37:09 +0000.31995][501f] ~GLESContext:
[002:190] [2025-03-05 11:37:09 +0000.32956][501f] GLESContext destruct finish.
[002:191] [2025-03-05 11:37:09 +0000.33126][501f] ~RecordingSessionInternalSimple:
RecordingSessionInternalSimple::~RecordingSessionInternalSimple
[002:191] [2025-03-05 11:37:09 +0000.33551][501f] global uninited!
[002:197] [2025-03-05 11:37:09 +0000.39989][501f] clear AppID 50011
[002:198] [2025-03-05 11:37:09 +0000.40213][501f] UnRegister JVM for Xplatform util
[002:198] [2025-03-05 11:37:09 +0000.40261][501f] Dispose::unregister webrtc video
engine
[002:198] [2025-03-05 11:37:09 +0000.40310][501f] Init the android object with
jvm:0x0 env:0x0 context:0x0
[002:198] [2025-03-05 11:37:09 +0000.40372][501f] SetAndroidMediaCodecObjects
time:524702451 enter.
[002:198] [2025-03-05 11:37:09 +0000.40418][501f] ClearAndroidMediaCodecObjects
time:524702451 enter.
[002:198] [2025-03-05 11:37:09 +0000.40474][501f] ClearAndroidMediaCodecObjects
leave. expire time = 0 ms
[002:198] [2025-03-05 11:37:09 +0000.40518][501f] SetAndroidMediaCodecObjects
leave. expire time = 0 ms
[002:198] [2025-03-05 11:37:09 +0000.40561][501f] SetAndroidMediaCodecObjects
time:524702451 enter.
[002:198] [2025-03-05 11:37:09 +0000.40604][501f] SetAndroidMediaCodecObjects:
SetAndroidMediaCodecObjects:: jvm :0x0
[002:198] [2025-03-05 11:37:09 +0000.40651][501f] ClearAndroidMediaCodecObjects
time:524702451 enter.
[002:198] [2025-03-05 11:37:09 +0000.40696][501f] ClearAndroidMediaCodecObjects
leave. expire time = 0 ms
[002:198] [2025-03-05 11:37:09 +0000.40746][501f] SetAndroidMediaCodecObjects:
SetAndroidMediaCodecObjects failed
[002:198] [2025-03-05 11:37:09 +0000.40797][501f] SetAndroidMediaCodecObjects
leave. expire time = 0 ms
[002:198] [2025-03-05 11:37:09 +0000.40844][501f] Dispose::unregister webrtc voice
engine
[002:198] [2025-03-05 11:37:09 +0000.40891][501f] Set the android objects with
jvm:0x0 env:0x0 context:0x0
[002:198] [2025-03-05 11:37:09 +0000.40945][501f] SystemUtil UnInit done
[085:072] [2025-03-05 11:38:31 +0000.914715][501f] Register JVM for xplatform util
[085:076] [2025-03-05 11:38:31 +0000.918889][501f] Log to
file:/storage/emulated/0/voip-data/[Link]/[Link] start time:2025-03-
05 11:38:31 +0000
[085:076] [2025-03-05 11:38:31 +0000.918975][501f] set AppID=50011 old AppID=-1
[085:076] [2025-03-05 11:38:31 +0000.919011][501f] Init the android object with
jvm:0xb400007a8fc21380 env:0x7a8021b080 context:0x7a17ff4288
[085:077] [2025-03-05 11:38:31 +0000.919068][501f] SetAndroidMediaCodecObjects
time:524785330 enter.
[085:077] [2025-03-05 11:38:31 +0000.919113][501f] SetAndroidMediaCodecObjects
leave. expire time = 0 ms
[085:077] [2025-03-05 11:38:31 +0000.919152][501f] SetAndroidMediaCodecObjects
time:524785330 enter.
[085:077] [2025-03-05 11:38:31 +0000.919175][501f] SetAndroidMediaCodecObjects:
SetAndroidMediaCodecObjects:: jvm :0xb400007a8fc21380
[085:077] [2025-03-05 11:38:31 +0000.919215][501f] SetAndroidMediaCodecObjects:
SetAndroidMediaCodecObjects success g_jvm_:0xb400007a8fc21380 address:0x79cefd0760
[085:077] [2025-03-05 11:38:31 +0000.919256][501f] SetAndroidMediaCodecObjects:
SetAndroidMediaCodecObjects success g_jvm_encoder_:0xb400007a8fc21380
address:0x79cefd0760
[085:077] [2025-03-05 11:38:31 +0000.919296][501f] SetAndroidMediaCodecObjects
leave. expire time = 0 ms
[085:077] [2025-03-05 11:38:31 +0000.919321][501f] Set the android objects with
jvm:0xb400007a8fc21380 env:0x7a8021b080 context:0x7a17ff4288
[085:077] [2025-03-05 11:38:31 +0000.919356][501f] audio jni debug :manager
SetAndroidAudioDeviceObjects env:0x7a8021b080
[085:077] [2025-03-05 11:38:31 +0000.919385][501f] SystemUtil Init done
[085:077] [2025-03-05 11:38:31 +0000.919689][501f]
Java_com_xiaomi_recordmediaprocess_MediaEffectCamera_ConstructMediaEffectCameraJni:
[085:077] [2025-03-05 11:38:31 +0000.919860][501f] MediaFilterCamera
[085:077] [2025-03-05 11:38:31 +0000.919914][501f] RecordingSessionInternalSimple:
Create session internal:720 X 1280 fps:30
[085:078] [2025-03-05 11:38:31 +0000.920072][501f] createSessionInternal: create
session with video size:720 X 1280 fps:30 bitrate:31457280
[085:078] [2025-03-05 11:38:31 +0000.920138][501f] Recording session using default
bitrate support by app:31457280
[085:078] [2025-03-05 11:38:31 +0000.920532][7d86] Error([Link]): Set the
pthread name failed with error:34 name:Thread 0x0x7a2836aec0
[085:078] [2025-03-05 11:38:31 +0000.920683][7d86] setAudioChannelCount_w:
RecordingSessionInternalSimple:set the audio channel count:2
[085:078] [2025-03-05 11:38:31 +0000.920794][501f] setAudioSampleRate:
RecordingSessionInternalSimple:set the audio bitrate:44100
[085:079] [2025-03-05 11:38:31 +0000.921845][501f] Error([Link]): Open the file
failed. error:2
[085:079] [2025-03-05 11:38:31 +0000.921930][501f]
Error(key_value_pair_store.cc:130): load the data failed from: voip_config.ini
[085:079] [2025-03-05 11:38:31 +0000.921959][501f] The device model: 2201117ti
usingSoftwareAEC value: 0
[085:083] [2025-03-05 11:38:31 +0000.925541][501f] Error([Link]): Open the file
failed. error:2
[085:083] [2025-03-05 11:38:31 +0000.925636][501f]
Error(key_value_pair_store.cc:130): load the data failed from:
/storage/emulated/0/voip-data/[Link]/voip_config.ini
[085:083] [2025-03-05 11:38:31 +0000.925682][501f] The device model: 2201117ti
usingHardwareAEC value: 0
[085:083] [2025-03-05 11:38:31 +0000.925707][501f] The machine device: 2201117ti
usingHardwareAEC value: 0
[085:083] [2025-03-05 11:38:31 +0000.925730][501f] Using Default AEC type: software
AEC
[085:084] [2025-03-05 11:38:31 +0000.926851][501f] The device model: 2201117ti enum
value: 0
[085:085] [2025-03-05 11:38:31 +0000.927355][501f] GetMachineModel is 2201117TI
[085:085] [2025-03-05 11:38:31 +0000.927417][501f] GetMachineInfo: 2201117TI
[085:085] [2025-03-05 11:38:31 +0000.927442][501f] Construct BeautifyReader
begin...
[085:085] [2025-03-05 11:38:31 +0000.927479][501f] dumpStickerRgba:0
dumpStickerYuv:0
[085:085] [2025-03-05 11:38:31 +0000.927503][501f] Construct BeautifyReader done.
[085:088] [2025-03-05 11:38:31 +0000.930404][501f] AppDeviceManagerStartCamera::The
result of start thread is: 1 micOn:0
[085:088] [2025-03-05 11:38:31 +0000.930489][501f] AppDeviceManager telnet server
for statistics started......
[085:088] [2025-03-05 11:38:31 +0000.930439][7d8a] Error([Link]): Set the
pthread name failed with error:34 name:Thread 0x0x7a72f068a0
[085:088] [2025-03-05 11:38:31 +0000.930870][501f] CpuOverloadDetect time:524785341
enter.
[085:088] [2025-03-05 11:38:31 +0000.930970][501f] CpuOverloadDetect leave. expire
time = 0 ms
[085:088] [2025-03-05 11:38:31 +0000.930991][7d8b] Error([Link]): Set the
pthread name failed with error:34 name:Thread 0x0x79eed18bc0
[085:089] [2025-03-05 11:38:31 +0000.931534][501f] AppDeviceMana
GetOpenslVoiceMode before get setting: 1
[085:089] [2025-03-05 11:38:31 +0000.931570][501f] AppDeviceMana
GetOpenslVoiceMode after get setting: 1
[085:089] [2025-03-05 11:38:31 +0000.931844][501f] AudioManagerAndroid
getProperty:[Link].OUTPUT_SAMPLE_RATE
[085:090] [2025-03-05 11:38:31 +0000.932108][501f] AudioManagerAndroid
getProperty:[Link].OUTPUT_FRAMES_PER_BUFFER
[085:090] [2025-03-05 11:38:31 +0000.932298][501f] CreatePlatformSpecificObjects:
[085:090] [2025-03-05 11:38:31 +0000.932334][501f] audio device use opensle input
and opensl output
[085:090] [2025-03-05 11:38:31 +0000.932395][501f] Create OpenSLES output module
with java VM support.
[085:090] [2025-03-05 11:38:31 +0000.932505][501f] AudioManagerAndroid
getProperty:[Link].OUTPUT_SAMPLE_RATE
[085:090] [2025-03-05 11:38:31 +0000.932630][501f] AudioManagerAndroid
getProperty:[Link].OUTPUT_FRAMES_PER_BUFFER
[085:090] [2025-03-05 11:38:31 +0000.932762][501f] Create OpenSLES output module
with buffer num:1
[085:090] [2025-03-05 11:38:31 +0000.932883][501f] AudioManagerAndroid
getProperty:[Link].OUTPUT_SAMPLE_RATE
[085:090] [2025-03-05 11:38:31 +0000.933009][501f] AudioManagerAndroid
getProperty:[Link].OUTPUT_FRAMES_PER_BUFFER
[085:091] [2025-03-05 11:38:31 +0000.933187][501f] Create OpenSLES input module
with java VM support.
[085:091] [2025-03-05 11:38:31 +0000.933226][501f] Create OpenSLES input module
with buffer num:1
[085:091] [2025-03-05 11:38:31 +0000.933272][501f] Error([Link]): Init the
output and input for audio device template.
[085:091] [2025-03-05 11:38:31 +0000.933304][501f] Init the output device.
[085:091] [2025-03-05 11:38:31 +0000.933340][501f] Init the opensl input.
[085:091] [2025-03-05 11:38:31 +0000.933379][501f] AppDeviceManager get setting
samplerate: 0
[085:091] [2025-03-05 11:38:31 +0000.933706][501f] The device model: 2201117ti enum
value: 0
[085:092] [2025-03-05 11:38:31 +0000.934319][501f] The device model: 2201117ti enum
value: 0
[085:092] [2025-03-05 11:38:31 +0000.934358][501f] Set the sample rate to be:48000
[085:092] [2025-03-05 11:38:31 +0000.934393][501f] Enable the recording stereo:0
[085:092] [2025-03-05 11:38:31 +0000.934432][501f] Set the playout as stereo:1
[085:092] [2025-03-05 11:38:31 +0000.934467][501f] Init the microphone.
[085:092] [2025-03-05 11:38:31 +0000.934844][501f] Update the recording sample rate
to be: 48000
[085:092] [2025-03-05 11:38:31 +0000.934897][501f] Init the speaker.
[085:092] [2025-03-05 11:38:31 +0000.934958][501f] Low latency buffer size:144 low
sample rate:48000
[085:093] [2025-03-05 11:38:31 +0000.935391][501f] Using 1 x 10ms for an audio
frame.
[085:097] [2025-03-05 11:38:31 +0000.939107][501f] Error(splitting_filter.cc:26):
Splitting filter only support two or three bands now.
[085:097] [2025-03-05 11:38:31 +0000.939314][501f] Error(splitting_filter.cc:26):
Splitting filter only support two or three bands now.
[085:097] [2025-03-05 11:38:31 +0000.939466][501f] Error(splitting_filter.cc:26):
Splitting filter only support two or three bands now.
[085:102] [2025-03-05 11:38:31 +0000.944653][501f] The device model:2201117ti
[085:102] [2025-03-05 11:38:31 +0000.944767][501f] speaker output factor:100
defaultFactor: 100
[085:102] [2025-03-05 11:38:31 +0000.944793][501f] headset output factor:100
defaultFactor: 100
[085:103] [2025-03-05 11:38:31 +0000.945226][501f] AppDeviceManagerStart finished.
[085:103] [2025-03-05 11:38:31 +0000.945264][501f] AppDeviceManagerStartMic::mic
status is off
[085:103] [2025-03-05 11:38:31 +0000.945319][501f] AppDeviceManagerStartMic update
aec type: 2
[085:103] [2025-03-05 11:38:31 +0000.945351][501f] AppDeviceManagerStartMic update
voiceChangeMode: 4
[085:103] [2025-03-05 11:38:31 +0000.945387][501f]
AudioDeviceDataHandler::setVoiceChangeMode, mode : 4
[085:103] [2025-03-05 11:38:31 +0000.945423][501f]
AudioDeviceDataHandler::StartMicProcess
[085:103] [2025-03-05 11:38:31 +0000.945577][501f] Try to start webrtc recording
device.
[085:103] [2025-03-05 11:38:31 +0000.945615][501f] StartRecording. threadID:20511
[085:103] [2025-03-05 11:38:31 +0000.945622][7d8c] Error([Link]): Set the
pthread name failed with error:34 name:AudioDeviceDataHandler gapProcessThread
[085:103] [2025-03-05 11:38:31 +0000.945693][501f] default mode: Set the recording
mode to voice communication to enable HW AEC .
[085:103] [2025-03-05 11:38:31 +0000.945725][501f] Set the recording mode before
getSetting: 4
[085:103] [2025-03-05 11:38:31 +0000.945766][501f] Set the recording mode after
getSetting: 1
[085:121] [2025-03-05 11:38:31 +0000.963299][501f] StartRecording finished.
[085:121] [2025-03-05 11:38:31 +0000.963368][501f] audio: start the audio mic
checker timer.
[085:121] [2025-03-05 11:38:31 +0000.963847][501f] machine model :redmi
[085:121] [2025-03-05 11:38:31 +0000.963885][501f] Support this machine
model :redmi
[085:121] [2025-03-05 11:38:31 +0000.963959][501f] global inited! current sdk
version: 07-20-936c45f
[085:450] [2025-03-05 11:38:32 +0000.292783][7d8c] Run AGC when audioType = 0
[085:719] [2025-03-05 11:38:32 +0000.561490][649c]
Java_com_xiaomi_recordmediaprocess_OpenGlRender_SetCurrentGLContextJni:
[085:719] [2025-03-05 11:38:32 +0000.561696][7d87] MediaFilterCamera, recording
file context:0x7a803d2000 input texture:21
[085:719] [2025-03-05 11:38:32 +0000.561820][7d87] GLESContext:
[085:719] [2025-03-05 11:38:32 +0000.561952][7d87] The result of eglGetDisplay is:
0x1
[085:721] [2025-03-05 11:38:32 +0000.563514][7d87] The result of creation:
0x79efb22a80
[085:721] [2025-03-05 11:38:32 +0000.563685][7d87] The result of
eglCreatePbufferSurface is: 0x79efb22b80
[085:721] [2025-03-05 11:38:32 +0000.564002][649c]
Java_com_xiaomi_recordmediaprocess_OpenGlRender_SetCurrentGLContextJni:
g_eglcontext: 0x7a803d2000 input_texture: 21
[086:537] [2025-03-05 11:38:33 +0000.379221][7d8c] haveEnoughProcessedData
[Link]: 0
[087:452] [2025-03-05 11:38:34 +0000.294535][7d8c] Run AGC when audioType = 0
[087:452] [2025-03-05 11:38:34 +0000.294852][7d8c]
AudioDeviceDataHandler::MixAndSendOutFrame
[088:252] [2025-03-05 11:38:35 +0000.94450][7d8c] haveEnoughProcessedData
[Link]: 0
[088:695] [2025-03-05 11:38:35 +0000.537813][501f]
Java_com_xiaomi_recordmediaprocess_MediaEffectCamera_DestructMediaEffectCameraJni:
[088:695] [2025-03-05 11:38:35 +0000.537993][501f] ~MediaFilterCamera
time:524788948 enter.
[088:696] [2025-03-05 11:38:35 +0000.538074][501f] StopPullFrameAndWriteMp4
time:524788949 enter.
[088:696] [2025-03-05 11:38:35 +0000.538650][7d86] stop recording
[088:696] [2025-03-05 11:38:35 +0000.538743][7d86] we have stopped recording before
[088:696] [2025-03-05 11:38:35 +0000.538840][501f] StopPullFrameAndWriteMp4 leave.
expire time = 0 ms
[088:697] [2025-03-05 11:38:35 +0000.539529][501f] DestroyPipelineAndFilters
time:524788950 enter.
[088:697] [2025-03-05 11:38:35 +0000.539589][501f] DestroyPipelineAndFilters
leave. expire time = 0 ms
[088:697] [2025-03-05 11:38:35 +0000.539618][501f] AppDeviceManagerStopMic
[088:697] [2025-03-05 11:38:35 +0000.539681][501f] AppDeviceManagerStopMic::mic
status is on
[088:697] [2025-03-05 11:38:35 +0000.539721][501f] Try to stop webrtc device.
[088:697] [2025-03-05 11:38:35 +0000.539755][501f] Set record state to
[Link]
[088:730] [2025-03-05 11:38:35 +0000.572815][501f] Try to destory the record